     2              OBSERVATION DATA    GPS                 RINEX VERSION / TYPE
ASRINEXO V2.9.7 UX USGS/MENLO_PARK 28-JAN- 0 14:54          PGM / RUN BY / DATE
                                                            COMMENT
Original Marker Name: lae1 LAPE1__T6nR4e_S28S27_1919_GLO    COMMENT
Campaign Name: Hector mine                                  COMMENT
4-Character Station Name: LAE1                              COMMENT
6-Character Antenna Code: DMRCHT                            COMMENT
Vertical Measurement Point: BCR                             COMMENT
Vertical Offset to Rinex Ref. Point: 0.0348                 COMMENT
Radial Measurement Point: ECF                               COMMENT
Radial Offset to Rinex Ref. Point: 0.1897                   COMMENT
Antenna Height from Field Measurement: 1.2140 m             COMMENT
Additional Antenna Identification Info.:                    COMMENT
Turborogue and Ashtech Choke Ring                           COMMENT
Original XYZ: -2350866.4256 -4703352.5757 3599625.8011      COMMENT
New XYZ position is based on association with SCEC monument COMMENT
E1F2J8I6+0011. Position of that monument is believed to be  COMMENT
valid to within 1 m horizontally; vertical accuracy         COMMENT
should be no worse than 3-times this value.                 COMMENT
                                                            COMMENT
Revised Rinex header created by UCSD GPS archive for        COMMENT
GSAC on 04-Apr-2000 (2000:095) 23:19:35 GMT                 COMMENT
For assistance contact dagnew@ucsd.edu or hjohnson@ucsd.edu COMMENT
                                                            COMMENT
T6N R4E S28 S27 S33 S34 1919                                MARKER NAME
CHS US GEOLOGICAL SURVEY                                    OBSERVER / AGENCY
804 ASHTECH Z-XII3 CD00                                     REC # / TYPE / VERS
244 DORNE-MARGOL. TYPE T                                    ANT # / TYPE
 -2350839.6563 -4703318.5399  3599600.5209                  APPROX POSITION XYZ
        1.1643        0.0000        0.0000                  ANTENNA: DELTA H/E/N
     1     1     0                                          WAVELENGTH FACT L1/2
     5    C1    L1    L2    P1    P2                        # / TYPES OF OBSERV
    30                                                      INTERVAL
  2000     1    21     0     1    0.000000                  TIME OF FIRST OBS
  2000     1    21    23    58   30.000000                  TIME OF LAST OBS
                                                            END OF HEADER
 00  1 21  0  1  0.0000000  0  8 24 08 07 16 09 05 02 04
  21035743.255   -22572059.275 9 -17545741.49247  21035743.088    21035748.6584
  23671196.077    -9561206.756 8  -7435249.44045  23671195.562    23671202.8874
  22679233.540   -15300828.411 8 -11638059.13746  22679232.963    22679238.6234
  24368750.923    -5317356.050 7  -4127539.82645  24368750.085    24368758.1924
  21188695.901   -21165670.228 9 -16469296.87847  21188695.751    21188700.1024
  22348291.022   -16456878.916 8 -12806156.71046  22348290.451    22348296.2934
  23474326.958   -11206151.634 8  -8716091.82745  23474326.292    23474333.6054
  20334406.611   -26337568.539 9 -20243097.87748  20334406.813    20334410.5114
 00  1 21  0  1 30.0000000  0  8 24 08 07 16 09 05 02 04
  21023121.615   -22638386.019 9 -17597424.60447  21023121.446    21023127.0084
  23693135.502    -9445914.652 8  -7345411.53045  23693134.994    23693142.3284
  22691517.571   -15236275.284 8 -11587757.98246  22691517.009    22691522.6414
  24364833.355    -5337941.376 7  -4143580.21745  24364832.707    24364840.8854
  21191265.177   -21152168.334 9 -16458775.89647  21191265.033    21191269.3764
  22333213.132   -16536113.282 8 -12867897.66946  22333212.599    22333218.3554
  23489120.329   -11128412.031 8  -8655515.56245  23489119.671    23489127.0204
  20336915.714   -26324382.878 9 -20232823.30848  20336915.916    20336919.6154
 00  1 21  0  2  0.0000000  0  8 24 08 07 16 09 05 02 04
  21010588.288   -22704248.679 9 -17648746.08947  21010588.143    21010593.6944
  23715089.337    -9330546.466 8  -7255514.33645  23715088.855    23715096.2854
  22703804.853   -15171705.301 8 -11537443.69846  22703804.283    22703809.8944
  24361005.627    -5358054.698 7  -4159252.82345  24361005.088    24361013.4334
  21193938.103   -21138122.162 9 -16447830.79947  21193937.972    21193942.3014
  22318156.897   -16615233.938 8 -12929550.02746  22318156.402    22318162.0764
  23503962.513   -11050416.100 8  -8594739.54845  23503961.826    23503969.2794
  20339534.845   -26310619.106 9 -20222098.26648  20339535.053    20339538.7474
 00  1 21  0  2 30.0000000  0  8 24 08 07 16 09 05 02 04
  20998143.196   -22769647.718 9 -17699706.31047  20998143.058    20998148.5824
  23737054.041    -9215121.539 8  -7165572.92445  23737053.610    23737061.0234
  22716092.628   -15107132.728 8 -11487127.39446  22716092.047    22716097.6464
  24357268.500    -5377691.810 7  -4174554.35645  24357268.055    24357276.5044
  21196717.147   -21123517.970 9 -16436450.88147  21196717.008    21196721.3124
  22303124.609   -16694228.492 8 -12991104.11646  22303124.109    22303129.7654
  23518852.708   -10972167.886 8  -8533766.95845  23518851.997    23518859.4494
  20342262.780   -26296283.823 9 -20210927.88548  20342262.984    20342266.6724
 00  1 21  0  3  0.0000000  0  8 24 08 07 16 09 05 02 04
  20985783.466   -22834598.490 9 -17750317.22747  20985783.325    20985788.8164
  23759028.470    -9099645.163 8  -7075591.41645  23759028.017    23759035.4384
  22728381.583   -15042553.817 8 -11436806.15046  22728381.020    22728386.5634
  24353624.220    -5396843.678 7  -4189477.75745  24353623.857    24353632.1164
  21199601.460   -21108360.957 9 -16424640.19147  21199601.292    21199605.5954
  22288118.503   -16773085.345 8 -13052550.90946  22288118.027    22288123.6614
  23533787.301   -10893686.262 8  -8472612.48045  23533786.628    23533794.0694
  20345098.850   -26281380.104 9 -20199314.56348  20345099.051    20345102.7084
 00  1 21  0  3 30.0000000  0  8 24 08 07 16 09 05 02 04
  20973507.333   -22899109.867 9 -17800585.76047  20973507.183    20973512.6534
  23781008.623    -8984139.069 8  -6985586.74145  23781008.181    23781015.6124
  22740672.139   -14977966.473 8 -11386478.32746  22740671.611    22740677.1684
  24350071.060    -5415516.551 7  -4204027.92845  24350070.468    24350078.7464
  21202590.643   -21092652.381 9 -16412399.71647  21202590.492    21202594.7864
  22273138.364   -16851805.912 8 -13113891.51546  22273137.898    22273143.5254
  23548762.820   -10814989.228 8  -8411290.16445  23548762.181    23548769.6564
  20348040.131   -26265923.558 9 -20187270.46748  20348040.315    20348043.9654
 00  1 21  0  4  0.0000000  0  8 24 08 07 16 09 05 02 04
  20961315.581   -22963177.887 9 -17850508.81547  20961315.413    20961320.8654
  23802991.741    -8868617.319 8  -6895569.88045  23802991.233    23802998.7894
  22752966.910   -14913356.911 8 -11336133.19346  22752966.349    22752971.9454
  24346608.716    -5433710.412 7  -4218204.82645  24346608.035    24346616.3874
  21205688.358   -21076373.516 9 -16399714.86347  21205688.227    21205692.5334
  22258181.921   -16930401.863 8 -13175135.01546  22258181.452    22258187.0944
  23563779.196   -10736077.128 8  -8349800.27445  23563778.606    23563786.1844
  20351090.596   -26249893.137 9 -20174779.19648  20351090.773    20351094.4274
 00  1 21  0  4 30.0000000  0  8 24 08 07 16 09 05 02 04
  20949209.232   -23026796.981 9 -17900082.05247  20949209.084    20949214.5044
  23824982.237    -8753056.871 8  -6805522.87545  23824981.758    23824989.3774
  22765271.304   -14848696.932 8 -11285748.78446  22765270.741    22765276.3174
  24343238.366    -5451419.534 7  -4232004.02245  24343237.838    24343246.0794
  21208893.004   -21059532.845 9 -16386592.23247  21208892.849    21208897.1674
  22243250.349   -17008867.256 8 -13236276.78246  22243249.879    22243255.5434
  23578838.334   -10656940.838 8  -8288135.67745  23578837.760    23578845.3784
  20354254.173   -26233268.139 9 -20161824.61448  20354254.363    20354258.0134
 00  1 21  0  5  0.0000000  0  8 24 08 07 16 09 05 02 04
  20937191.967   -23089947.831 9 -17949290.42747  20937191.814    20937197.2344
  23846983.694    -8637439.104 7  -6715431.21345  23846983.107    23846990.7714
  22777589.758   -14783963.078 8 -11235306.81146  22777589.173    22777594.7724
  24339961.912    -5468637.306 7  -4245420.35145  24339961.405    24339969.4424
  21212203.152   -21042137.705 9 -16373037.55547  21212203.017    21212207.3204
  22228341.678   -17087212.418 8 -13297324.86146  22228341.220    22228346.8524
  23593943.395   -10577563.514 7  -8226283.26945  23593942.774    23593950.3384
  20357534.726   -26216028.795 9 -20148391.32348  20357534.912    20357538.5414
 00  1 21  0  5 30.0000000  0  8 24 08 07 16 09 05 02 04
  20925267.603   -23152610.556 9 -17998118.45047  20925267.459    20925272.8604
  23868998.787    -8521749.423 8  -6625283.52245  23868998.215    23869005.8904
  22789923.555   -14719148.582 8 -11184802.01246  22789922.954    22789928.5284
  24336780.138    -5485358.140 7  -4258449.44545  24336779.578    24336787.5184
  21215621.698   -21024173.135 9 -16359039.15947  21215621.571    21215625.8574
  22213453.310   -17165451.212 8 -13358290.05246  22213452.787    22213458.3844
  23609101.854   -10497904.914 8  -8164211.69245  23609101.339    23609109.0084
  20360935.009   -26198160.113 9 -20134467.63948  20360935.188    20360938.8114
 00  1 21  0  6  0.0000000  0  8 24 08 07 16 09 05 02 04
  20913438.398   -23214773.337 9 -18046556.90747  20913438.248    20913443.6204
  23891029.534    -8405977.809 8  -6535071.98345  23891029.005    23891036.6014
  22802275.112   -14654240.631 8 -11134224.38146  22802274.514    22802280.0954
  24333695.030    -5501570.322 7  -4271082.20845  24333694.614    24333702.5094
  21219146.812   -21005648.641 9 -16344604.45247  21219146.670    21219150.9324
  22198587.830   -17243569.429 8 -13419161.28646  22198587.308    22198592.8824
  23624319.919   -10417933.829 8  -8101896.60945  23624319.403    23624327.0384
  20364455.119   -26179661.470 9 -20120053.07648  20364455.311    20364458.9194
 00  1 21  0  6 30.0000000  0  8 24 08 07 16 09 05 02 04
  20901703.210   -23276441.726 9 -18094610.12147  20901703.062    20901708.4214
  23913073.991    -8290134.003 8  -6444804.17545  23913073.364    23913081.0164
  22814643.415   -14589244.693 8 -11083578.19646  22814642.782    22814648.3804
  24330705.804    -5517276.658 7  -4283320.78345  24330705.574    24330713.4944
  21222775.675   -20986578.485 9 -16329744.56847  21222775.528    21222779.8174
  22183748.063   -17321552.168 8 -13479926.95446  22183747.601    22183753.1214
  23639597.856   -10337648.227 8  -8039336.45245  23639597.298    23639604.8584
  20368090.979   -26160554.948 9 -20105164.83048  20368091.174    20368094.7634
 00  1 21  0  7  0.0000000  0  8 24 08 07 16 09 05 02 04
  20890059.619   -23337628.939 9 -18142288.39847  20890059.473    20890064.8054
  23935127.348    -8174243.646 7  -6354500.10145  23935126.706    23935134.2534
  22827025.143   -14524178.318 8 -11032877.11446  22827024.510    22827030.0674
  24327811.004    -5532488.475 7  -4295174.01445  24327810.697    24327818.7434
  21226511.032   -20966948.647 9 -16314448.55947  21226510.922    21226515.2034
  22168932.786   -17399406.657 8 -13540592.69246  22168932.318    22168937.7974
  23654930.375   -10257075.497 7  -7976552.54845  23654929.853    23654937.3694
  20371837.044   -26140869.181 9 -20089825.22848  20371837.231    20371840.8204
 00  1 21  0  7 30.0000000  0  8 24 08 07 16 09 05 02 04
  20878505.731   -23398344.822 9 -18189599.40247  20878505.581    20878510.9014
  23957186.747    -8058321.110 7  -6264170.97545  23957186.095    23957193.7444
  22839417.615   -14459055.671 8 -10982132.20546  22839416.931    22839422.4834
  24325009.518    -5547209.503 7  -4306644.82545  24325009.147    24325017.2604
  21230353.324   -20946757.036 9 -16298714.81047  21230353.212    21230357.4754
  22154142.692   -17477128.865 8 -13601155.34446  22154142.207    22154147.6434
  23670312.013   -10176244.661 8  -7913567.52545  23670311.405    23670318.9094
  20375688.587   -26120628.980 9 -20074053.60148  20375688.764    20375692.3574
 00  1 21  0  8  0.0000000  0  8 24 08 07 16 09 05 02 04
  20867038.494   -23458605.127 9 -18236555.41047  20867038.340    20867043.6284
  23979248.579    -7942384.990 7  -6173831.26445  23979248.002    23979255.7314
  22851818.235   -14393889.786 8 -10931353.59146  22851817.626    22851823.1944
  24322298.439    -5561456.413 7  -4317746.17145  24322298.083    24322306.0694
  21234300.629   -20926013.758 9 -16282551.18647  21234300.529    21234304.7694
  22139379.842   -17554707.979 8 -13661606.49047  22139379.317    22139384.7214
  23685735.583   -10095193.342 7  -7850410.70045  23685734.957    23685742.4974
  20379641.841   -26099854.258 9 -20057865.46648  20379642.028    20379645.6264
 00  1 21  0  8 30.0000000  0  8 24 08 07 16 09 05 02 04
  20855655.517   -23518422.777 9 -18283166.49447  20855655.360    20855660.6134
  24001312.973    -7826435.781 8  -6083481.34545  24001312.497    24001320.2894
  22864221.539   -14328709.856 8 -10880564.03246  22864220.949    22864226.5604
  24319676.054    -5575236.930 7  -4328484.10445  24319675.659    24319683.7394
  21238354.737   -20904709.378 9 -16265950.35147  21238354.613    21238358.8274
  22124643.304   -17632148.527 8 -13721949.66647  22124642.789    22124648.1684
  23701195.368   -10013951.410 8  -7787105.34245  23701194.824    23701202.4344
  20383698.815   -26078534.269 9 -20041252.44248  20383698.999    20383702.6054
 00  1 21  0  9  0.0000000  0  8 24 08 07 16 09 05 02 04
  20844359.290   -23577784.654 9 -18329422.42947  20844359.150    20844364.3684
  24023381.447    -7710465.360 7  -5993114.90145  24023381.019    24023388.8554
  22876626.068   -14263523.698 8 -10829769.63546  22876625.481    22876631.0844
  24317142.873    -5588548.425 7  -4338856.58845  24317142.442    24317150.5554
  21242517.069   -20882836.028 9 -16248906.15047  21242516.971    21242521.1594
  22109933.732   -17709447.185 8 -13782182.27947  22109933.232    22109938.5864
  23716691.257    -9932520.203 8  -7723652.50245  23716690.716    23716698.2954
  20387862.673   -26056653.073 9 -20024202.12848  20387862.836    20387866.4284
 00  1 21  0  9 30.0000000  0  8 24 08 07 16 09 05 02 04
  20833152.486   -23636676.518 9 -18375312.12447  20833152.339    20833157.5354
  24045454.585    -7594470.889 8  -5902729.71845  24045454.138    24045461.9544
  22889033.017   -14198324.840 8 -10778965.31446  22889032.393    22889037.9474
  24314701.241    -5601379.415 7  -4348854.63945  24314700.904    24314708.8254
  21246786.186   -20860401.498 9 -16231424.67947  21246786.086    21246790.2494
  22095253.574   -17786591.753 8 -13842294.83147  22095253.075    22095258.3614
  23732227.335    -9850878.067 8  -7660035.28145  23732226.871    23732234.3784
  20392138.230   -26034184.698 9 -20006694.26548  20392138.396    20392141.9734
 00  1 21  0 10  0.0000000  0  8 24 08 07 16 09 05 02 04
  20822036.182   -23695092.793 9 -18420831.22047  20822036.044    20822041.2064
  24067532.438    -7478451.666 8  -5812325.23245  24067532.004    24067539.7774
  22901442.783   -14133110.649 8 -10728149.06646  22901442.171    22901447.7284
  24312354.804    -5613708.906 7  -4358461.92845  24312354.428    24312362.3854
  21251162.686   -20837402.934 9 -16213503.68947  21251162.546    21251166.7134
  22080605.505   -17863567.551 8 -13902275.86747  22080604.986    22080610.2874
  23747810.247    -9768989.692 7  -7596226.20045  23747809.793    23747817.2134
  20396528.605   -26011112.828 9 -19988716.14848  20396528.807    20396532.3744
 00  1 21  0 10 30.0000000  0  8 24 08 07 16 09 05 02 04
  20811013.105   -23753019.205 9 -18465968.61347  20811012.946    20811018.1004
  24089616.064    -7362401.787 8  -5721896.86745  24089615.676    24089623.4494
  22913857.447   -14067870.707 8 -10677312.74546  22913856.787    22913862.4454
  24310105.845    -5625526.005 7  -4367669.93445  24310105.545    24310113.6114
  21255645.898   -20813843.267 9 -16195145.48147  21255645.773    21255649.9494
  22065987.920   -17940382.817 8 -13962131.82047  22065987.435    22065992.7754
  23763443.291    -9686837.913 7  -7532211.86645  23763442.830    23763450.2564
  20401034.517   -25987433.923 9 -19970265.02348  20401034.708    20401038.2724
 00  1 21  0 11  0.0000000  0  8 24 08 07 16 09 05 02 04
  20800084.723   -23810447.867 9 -18510718.13947  20800084.571    20800089.6924
  24111703.050    -7246334.329 8  -5631454.81545  24111702.646    24111710.4484
  22926283.399   -14002571.832 8 -10626430.48946  22926282.764    22926288.4054
  24307955.452    -5636825.191 7  -4376474.41945  24307955.212    24307963.4414
  21260234.680   -20789729.008 9 -16176355.12247  21260234.536    21260238.7114
  22051399.684   -18017044.205 8 -14021867.85747  22051399.184    22051404.5164
  23779130.484    -9604401.213 7  -7467975.49645  23779130.071    23779137.5134
  20405654.126   -25963157.704 9 -19951348.45048  20405654.310    20405657.8534
 00  1 21  0 11 30.0000000  0  8 24 08 07 16 09 05 02 04
  20789251.314   -23867377.429 9 -18555078.76047  20789251.171    20789256.2894
  24133792.459    -7130254.690 8  -5541003.24445  24133791.964    24133799.7274
  22938722.501   -13937204.066 8 -10575494.55846  22938721.853    22938727.5354
  24305906.077    -5647596.143 7  -4384867.24945  24305905.592    24305913.5844
  21264927.955   -20765065.486 9 -16157136.76547  21264927.807    21264931.9944
  22036838.929   -18093561.122 8 -14081491.32947  22036838.424    22036843.7054
  23794871.054    -9521683.727 7  -7403520.35445  23794870.574    23794878.1064
  20410385.603   -25938293.402 9 -19931973.63748  20410385.794    20410389.3164
 00  1 21  0 12  0.0000000  0  8 24 08 07 16 09 05 02 04
  20778514.230   -23923801.021 9 -18599045.11747  20778514.084    20778519.1784
  24155886.439    -7014150.738 7  -5450532.74545  24155885.928    24155893.5474
  22951173.927   -13871771.252 8 -10524507.95146  22951173.323    22951179.0104
  24303954.855    -5657848.332 7  -4392855.88545  24303954.412    24303962.7224
  21269726.291   -20739850.046 9 -16137488.34347  21269726.145    21269730.3054
  22022303.977   -18169942.663 8 -14141009.31047  22022303.477    22022308.7064
  23810664.057    -9438690.946 7  -7338850.69645  23810663.610    23810671.1744
  20415227.811   -25912847.290 9 -19912145.46448  20415227.992    20415231.5034
 00  1 21  0 12 30.0000000  0  8 24 08 07 16 09 05 02 04
  20767873.975   -23979715.492 9 -18642614.76147  20767873.830    20767878.9084
  24177985.367    -6898020.725 8  -5360041.92545  24177984.839    24177992.5074
  22963639.101   -13806266.745 8 -10473465.47546  22963638.424    22963644.1564
  24302100.975    -5667592.245 7  -4400448.44945  24302100.487    24302108.2464
  21274629.844   -20714081.780 9 -16117409.15147  21274629.700    21274633.8634
  22007795.326   -18246185.492 8 -14200419.21347  22007794.831    22007800.0354
  23826503.930    -9355451.555 7  -7273988.86845  23826503.455    23826511.1064
  20420179.876   -25886823.850 9 -19891867.42448  20420180.064    20420183.5754
 00  1 21  0 13  0.0000000  0  8 24 08 07 16 09 05 02 04
  20757331.286   -24035117.581 9 -18685785.14847  20757331.139    20757336.2124
  24200088.481    -6781868.546 7  -5269533.83445  24200087.938    24200095.4834
  22976116.022   -13740700.035 8 -10422374.53046  22976115.366    22976121.0934
  24300344.198    -5676822.808 7  -4407641.04445  24300343.861    24300351.5244
  21279638.783   -20687759.536 9 -16096898.29047  21279638.653    21279642.8154
  21993316.810   -18322270.142 8 -14259705.85547  21993316.304    21993321.4824
  23842389.677    -9271971.864 7  -7208939.80745  23842389.117    23842396.8274
  20425241.201   -25860226.126 9 -19871141.89248  20425241.390    20425244.9154
 00  1 21  0 13 30.0000000  0  8 24 08 07 16 09 05 02 04
  20746886.569   -24090004.670 9 -18728554.23647  20746886.430    20746891.4854
  24222196.429    -6665691.092 7  -5179006.04745  24222195.883    24222203.4774
  22988598.586   -13675103.746 8 -10371260.53046  22988597.965    22988603.6734
  24298685.001    -5685544.247 7  -4414436.88945  24298684.441    24298691.9184
  21284752.522   -20660886.457 9 -16075958.20347  21284752.383    21284756.5644
  21978870.442   -18398185.908 8 -14318860.90447  21978869.925    21978875.0754
  23858319.119    -9188262.273 7  -7143711.61645  23858318.580    23858326.3384
  20430409.038   -25833068.769 9 -19849980.28848  20430409.222    20430412.7484
 00  1 21  0 14  0.0000000  0  8 24 08 07 16 09 05 02 04
  20736536.630   -24144393.505 9 -18770935.06647  20736536.495    20736541.5374
  24244306.392    -6549502.701 7  -5088469.74045  24244305.746    24244313.4124
  23001084.849   -13609487.973 8 -10320131.34146  23001084.241    23001089.9424
  24297120.678    -5693763.953 7  -4420841.78445  24297120.154    24297127.4144
  21289971.139   -20633462.212 9 -16054588.63647  21289971.020    21289975.1784
  21964458.108   -18473922.683 8 -14377876.47447  21964457.602    21964462.7784
  23874292.381    -9104322.322 7  -7078303.90745  23874291.922    23874299.5964
  20435680.941   -25805364.664 9 -19828392.63848  20435681.122    20435684.6464
 00  1 21  0 14 30.0000000  0  8 24 08 07 16 09 05 02 04
  20726278.082   -24198302.196 9 -18812941.76647  20726277.937    20726282.9604
  24266412.510    -6433334.109 7  -4997948.85345  24266411.952    24266419.6544
  23013573.357   -13543860.303 8 -10268992.89146  23013572.775    23013578.4574
  24295652.771    -5701477.872 7  -4426852.54645  24295652.141    24295659.3834
  21295291.964   -20605500.712 9 -16032800.43747  21295291.856    21295296.0334
  21950081.869   -18549469.795 8 -14436744.26647  21950081.375    21950086.5514
  23890307.604    -9020162.330 7  -7012724.72145  23890307.154    23890314.8634
  20441051.944   -25777139.700 9 -19806399.13348  20441052.134    20441055.6334
 00  1 21  0 15  0.0000000  0  8 24 08 07 16 09 05 02 04
  20716109.669   -24251737.058 9 -18854579.24947  20716109.526    20716114.5444
  24288511.957    -6317200.373 7  -4907455.14645  24288511.573    24288519.3394
  23026061.401   -13478235.133 8 -10217856.39446  23026060.810    23026066.4544
  24294280.975    -5708684.918 7  -4432468.35145  24294280.440    24294287.9144
  21300711.210   -20577022.444 9 -16010609.55747  21300711.085    21300715.2714
  21935737.229   -18624851.104 8 -14495482.86447  21935736.716    21935741.8394
  23906364.827    -8935781.213 7  -6946973.22845  23906364.399    23906372.1634
  20446520.796   -25748400.739 9 -19784005.10648  20446520.978    20446524.4654
 00  1 21  0 15 30.0000000  0  8 24 08 07 16 09 05 02 04
  20706029.249   -24304709.723 9 -18895856.57447  20706029.114    20706034.1094
  24310604.438    -6201104.361 7  -4816990.81645  24310604.109    24310611.8084
  23038550.498   -13412604.579 8 -10166715.69846  23038549.914    23038555.4884
  24293006.397    -5715382.634 7  -4437687.26745  24293005.842    24293013.1934
  21306228.756   -20548027.431 9 -15988016.01847  21306228.635    21306232.8094
  21921422.080   -18700077.613 8 -14554100.83747  21921421.566    21921426.6354
  23922463.981    -8851179.756 8  -6881050.06045  23922463.473    23922471.2974
  20452090.488   -25719131.695 9 -19761198.02548  20452090.652    20452094.1294
 00  1 21  0 16  0.0000000  0  8 24 08 07 16 09 05 02 04
  20696037.229   -24357218.000 9 -18936772.04047  20696037.072    20696042.0694
  24332691.072    -6085038.636 7  -4726550.09045  24332690.739    24332698.4004
  23051045.326   -13346943.964 8 -10115551.57646  23051044.754    23051050.2544
  24291829.316    -5721569.138 7  -4442507.82345  24291828.647    24291835.8094
  21311844.919   -20518514.109 9 -15965018.60447  21311844.817    21311849.0004
  21907137.135   -18775145.124 8 -14612594.91447  21907136.615    21907141.6844
  23938602.718    -8766370.056 8  -6814964.61345  23938602.140    23938610.0664
  20457764.042   -25689316.783 9 -19737965.58948  20457764.215    20457767.6944
 00  1 21  0 16 30.0000000  0  8 24 08 07 16 09 05 02 04
  20686135.505   -24409251.514 9 -18977317.56547  20686135.347    20686140.3304
  24354775.035    -5968986.292 7  -4636119.79345  24354774.710    24354782.5914
  23063546.740   -13281248.470 8 -10064360.26946  23063546.189    23063551.6844
  24290749.290    -5727243.441 7  -4446929.27545  24290748.735    24290755.8224
  21317557.671   -20488493.468 9 -15941625.87947  21317557.552    21317561.7474
  21892884.011   -18850045.747 8 -14670958.95147  21892883.452    21892888.5144
  23954781.747    -8681348.959 8  -6748714.45145  23954781.130    23954789.0594
  20463545.515   -25658934.764 9 -19714291.26048  20463545.682    20463549.1704
 00  1 21  0 17  0.0000000  0  8 24 08 07 16 09 05 02 04
  20676327.404   -24460793.126 9 -19017479.78647  20676327.247    20676332.2144
  24376859.869    -5852930.396 7  -4545686.71645  24376859.552    24376867.3854
  23076057.780   -13215502.516 8 -10013129.63846  23076057.248    23076062.7204
  24289768.099    -5732400.451 7  -4450947.62745  24289767.455    24289774.3464
  21323370.097   -20457948.760 9 -15917824.78947  21323369.968    21323374.1674
  21878662.475   -18924780.021 8 -14729193.36247  21878661.948    21878666.9354
  23971004.813    -8596096.835 8  -6682284.24745  23971004.239    23971012.0114
  20469440.318   -25627957.310 9 -19690152.94748  20469440.501    20469443.9934
 00  1 21  0 17 30.0000000  0  8 24 08 07 16 09 05 02 04
  20666614.231   -24511835.793 9 -19057253.22347  20666614.091    20666619.0314
  24398945.733    -5736869.062 7  -4455249.42945  24398945.362    24398953.3574
  23088579.766   -13149699.191 8  -9961854.31246  23088579.229    23088584.6554
  24288883.188    -5737049.421 7  -4454570.09645  24288882.427    24288889.5924
  21329284.813   -20426866.695 9 -15893604.97947  21329284.674    21329288.8604
  21864477.052   -18999324.389 8 -14787279.78647  21864476.518    21864481.4904
  23987272.564    -8510609.426 8  -6615670.70945  23987272.037    23987279.7944
  20475445.780   -25596398.287 9 -19665561.46648  20475445.944    20475449.4374
 00  1 21  0 18  0.0000000  0  8 24 08 07 16 09 05 02 04
  20656997.362   -24562372.635 9 -19096632.51247  20656997.209    20657002.1214
  24421030.650    -5620812.659 8  -4364815.95045  24421030.232    24421038.2874
  23101111.501   -13083844.462 8  -9910538.93846  23101110.974    23101116.3864
  24288093.513    -5741197.746 7  -4457802.43145  24288092.903    24288100.3534
  21335301.337   -20395249.755 9 -15868968.39447  21335301.179    21335305.3634
  21850329.627   -19073669.315 8 -14845210.80547  21850329.102    21850334.0624
  24003586.606    -8424878.696 7  -6548867.57745  24003586.083    24003593.8014
  20481558.899   -25564273.480 9 -19640529.12048  20481559.062    20481562.5544
 00  1 21  0 18 30.0000000  0  8 24 08 07 16 09 05 02 04
  20647477.036   -24612402.153 9 -19135616.48147  20647476.879    20647481.7574
  24443111.090    -5504779.260 7  -4274400.42245  24443110.667    24443118.8464
  23113649.985   -13017954.323 8  -9859195.96646  23113649.414    23113654.8564
  24287399.944    -5744843.661 7  -4460643.31245  24287399.213    24287406.5104
  21341419.157   -20363099.978 9 -15843916.60447  21341419.013    21341423.1814
  21836216.710   -19147832.795 8 -14903000.43547  21836216.202    21836221.1354
  24019949.848    -8338889.278 7  -6481862.85845  24019949.235    24019956.9924
  20487777.571   -25531593.713 9 -19615064.33248  20487777.737    20487781.2444
 00  1 21  0 19  0.0000000  0  8 24 08 07 16 09 05 02 04
  20638057.186   -24661903.425 9 -19174188.82947  20638057.041    20638061.8674
  24465186.846    -5388770.820 7  -4184004.32045  24465186.474    24465194.6644
  23126196.320   -12952022.787 8  -9807820.74246  23126195.748    23126201.1794
  24286803.017    -5747979.223 7  -4463086.51045  24286802.407    24286809.6534
  21347640.596   -20330406.214 9 -15818440.92647  21347640.446    21347644.5904
  21822136.221   -19221825.799 8 -14960657.22547  21822135.730    21822140.6234
  24036360.380    -8252651.264 7  -6414664.40645  24036359.694    24036367.4704
  20494098.263   -25498378.237 9 -19589182.10648  20494098.431    20494101.9214
 00  1 21  0 19 30.0000000  0  8 24 08 07 16 09 05 02 04
  20628737.568   -24710878.207 9 -19212350.92947  20628737.402    20628742.2264
  24487258.862    -5272782.366 7  -4093623.79445  24487258.433    24487266.7124
  23138748.591   -12886060.297 8  -9756421.39246  23138748.028    23138753.4064
  24286304.543    -5750597.495 7  -4465126.62745  24286304.081    24286311.2374
  21353963.481   -20297179.102 9 -15792549.66047  21353963.339    21353967.4744
  21808089.463   -19295641.527 8 -15018175.88247  21808088.994    21808093.8224
  24052815.026    -8166181.815 7  -6347285.63345  24052814.213    24052822.0974
  20500519.853   -25464632.420 9 -19562886.63348  20500520.015    20500523.4894
 00  1 21  0 20  0.0000000  0  8 24 08 07 16 09 05 02 04
  20619517.056   -24759332.100 9 -19250107.13947  20619516.896    20619521.6904
  24509326.026    -5156819.399 7  -4003263.14445  24509325.497    24509333.9114
  23151307.134   -12820064.800 8  -9704996.32746  23151306.564    23151311.9324
  24285907.462    -5752684.478 7  -4466752.76045  24285906.796    24285914.0184
  21360386.633   -20263425.065 9 -15766247.79547  21360386.492    21360390.6414
  21794075.440   -19369285.534 8 -15075560.72547  21794074.926    21794079.7384
  24069313.599    -8079480.742 7  -6279726.35045  24069312.850    24069320.4854
  20507045.454   -25430339.940 9 -19536165.19048  20507045.618    20507049.1074
 00  1 21  0 20 30.0000000  0  8 24 08 07 16 09 05 02 04
  20610396.308   -24807261.812 9 -19287454.89647  20610396.150    20610400.9044
  24531389.686    -5040874.857 7  -3912916.84245  24531389.112    24531397.5254
  23163874.869   -12754020.634 8  -9653533.33246  23163874.244    23163879.6704
  24285615.457    -5754219.129 7  -4467948.50145  24285614.918    24285622.0684
  21366910.473   -20229141.896 9 -15739533.62847  21366910.336    21366914.4914
  21780093.971   -19442758.556 8 -15132812.33147  21780093.416    21780098.2184
  24085854.732    -7992556.755 7  -6211993.37345  24085853.970    24085861.7714
  20513676.355   -25395494.135 9 -19509012.58348  20513676.537    20513680.0034
 00  1 21  0 21  0.0000000  0  8 24 08 07 16 09 05 02 04
  20601372.796   -24854680.618 9 -19324404.55247  20601372.637    20601377.3824
  24553449.630    -4924949.854 7  -3822585.75745  24553448.961    24553457.3504
  23176451.984   -12687926.802 8  -9602031.65246  23176451.416    23176456.8734
  24285428.179    -5755203.915 7  -4468715.77445  24285427.568    24285434.6674
  21373534.294   -20194333.407 9 -15712410.12447  21373534.170    21373538.3054
  21766149.517   -19516036.598 8 -15189912.00447  21766148.969    21766153.7694
  24102436.825    -7905417.449 7  -6144092.61245  24102436.191    24102443.6884
  20520412.594   -25360094.981 9 -19481428.80348  20520412.784    20520416.2174
 00  1 21  0 21 30.0000000  0  8 24 08 07 16 09 05 02 04
  20592442.251   -24901610.788 9 -19360973.44947  20592442.079    20592446.8154
  24575501.581    -4809066.429 7  -3732287.08345  24575500.905    24575509.1774
  23189037.149   -12621791.045 8  -9550497.28646  23189036.574    23189042.0944
  24285343.831    -5755647.677 7  -4469061.46145  24285343.107    24285350.2544
  21380257.081   -20159004.992 9 -15684881.47747  21380256.946    21380261.0664
  21752243.858   -19589110.798 8 -15246852.84047  21752243.325    21752248.0864
  24119061.493    -7818054.214 7  -6076017.38945  24119060.772    24119068.3014
  20527255.351   -25324136.292 9 -19453409.02248  20527255.517    20527258.9334
 00  1 21  0 22  0.0000000  0  7 24 07 16 09 05 02 04
  20583606.593   -24948042.198 9 -19397153.70347  20583606.426    20583611.1414
  23201631.849   -12555605.439 8  -9498924.08846  23201631.225    23201636.8404
  24285359.472    -5755563.796 7  -4468996.02945  24285358.797    24285365.9374
  21387080.961   -20123145.100 9 -15656938.69447  21387080.812    21387084.9274
  21738375.865   -19661987.068 8 -15303639.44847  21738375.346    21738380.0904
  24135731.646    -7730451.553 7  -6007755.57245  24135730.841    24135738.4564
  20534203.759   -25287622.004 9 -19424956.30248  20534203.927    20534207.3534
 00  1 21  0 22 30.0000000  0  7 24 07 16 09 05 02 04
  20574869.025   -24993957.986 9 -19432932.17447  20574868.855    20574873.5484
  23214234.240   -12489379.444 8  -9447319.40146  23214233.591    23214239.2104
  24285474.612    -5754957.419 7  -4468523.43945  24285473.896    24285481.2484
  21394007.923   -20086743.586 9 -15628573.86547  21394007.786    21394011.9074
  21724546.975   -19734657.687 8 -15360265.80447  21724546.480    21724551.2264
  24152445.992    -7642616.422 7  -5939312.60045  24152445.240    24152453.0594
  20541256.354   -25250560.231 9 -19396076.97648  20541256.524    20541259.9374
 00  1 21  0 23  0.0000000  0  7 24 07 16 09 05 02 04
  20566228.627   -25039363.052 9 -19468312.68247  20566228.476    20566233.1704
  23226838.327   -12423144.599 8  -9395707.82146  23226837.735    23226843.3184
  24285685.216    -5753850.894 7  -4467661.13745  24285684.451    24285691.6084
  21401036.728   -20049806.938 9 -15599792.04747  21401036.581    21401040.7254
  21710756.873   -19807124.795 8 -15416733.58247  21710756.366    21710761.1174
  24169201.335    -7554566.413 7  -5870702.20245  24169200.561    24169208.7054
  20548410.119   -25212966.797 9 -19366783.37048  20548410.282    20548413.6614
 00  1 21  0 23 30.0000000  0  7 24 07 16 09 05 02 04
  20557687.977   -25084244.012 9 -19503284.79747  20557687.819    20557692.5274
  23239444.750   -12356897.173 8  -9344086.45046  23239444.217    23239449.8574
  24285992.647    -5752234.595 7  -4466401.59945  24285992.038    24285999.1404
  21408168.263   -20012330.573 9 -15570589.67547  21408168.124    21408172.2664
  21697002.866   -19879402.326 9 -15473053.63947  21697002.358    21697007.0964
  24185997.630    -7466302.208 7  -5801924.90045  24185996.783    24186004.8644
  20555665.743   -25174838.077 9 -19337072.66048  20555665.919    20555669.2864
 00  1 21  0 24  0.0000000  0  7 24 07 16 09 05 02 04
  20549249.807   -25128586.487 9 -19537837.31747  20549249.661    20549254.3694
  23252053.584   -12290637.336 8  -9292455.39446  23252053.028    23252058.7164
  24286400.561    -5750090.415 7  -4464730.71345  24286399.926    24286407.0844
  21415402.811   -19974312.680 9 -15540965.33047  21415402.655    21415406.8004
  21683286.085   -19951484.257 9 -15529221.28647  21683285.594    21683290.2914
  24202833.255    -7377830.677 7  -5732986.03245  24202832.418    24202840.6354
  20563024.483   -25136167.665 9 -19306939.85048  20563024.654    20563028.0104
 00  1 21  0 24 30.0000000  0  7 24 07 16 09 05 02 04
  20540913.568   -25172393.462 9 -19571972.56047  20540913.412    20540918.1184
  23264666.824   -12224354.433 8  -9240806.36446  23264666.216    23264671.9254
  24286913.407    -5747395.559 7  -4462630.75945  24286912.620    24286919.8464
  21422740.390   -19935753.198 9 -15510918.96947  21422740.256    21422744.3814
  21669609.037   -20023357.425 8 -15585226.26147  21669608.522    21669613.1944
  24219707.804    -7289154.894 7  -5663888.01045  24219706.966    24219714.9774
  20570487.182   -25096951.048 9 -19276381.42648  20570487.358    20570490.6954
 00  1 21  0 25  0.0000000  0  7 24 07 16 09 05 02 04
  20532677.811   -25215672.411 9 -19605696.35447  20532677.653    20532682.3564
  23277287.626   -12158031.882 8  -9189126.44346  23277286.979    23277292.7114
  24287531.474    -5744147.774 7  -4460099.94245  24287530.912    24287537.7104
  21430179.080   -19896662.624 9 -15480458.76747  21430178.936    21430183.0594
  21655971.400   -20095023.276 9 -15641069.68547  21655970.914    21655975.5664
  24236623.746    -7200261.249 7  -5594620.21845  24236622.895    24236630.9334
  20578053.970   -25057187.283 9 -19245396.65048  20578054.140    20578057.4824
 00  1 21  0 25 30.0000000  0  7 24 07 16 09 05 02 04
  20524542.350   -25258424.137 9 -19639009.32547  20524542.195    20524546.8874
  23289919.517   -12091651.093 8  -9137401.13846  23289918.854    23289924.5674
  24288254.548    -5740347.360 7  -4457138.48845  24288253.982    24288260.9374
  21437715.715   -19857057.225 9 -15449597.40547  21437715.568    21437719.6884
  21642371.976   -20166488.389 9 -15696756.69447  21642371.498    21642376.1074
  24253583.460    -7111137.236 7  -5525172.91045  24253582.724    24253590.6484
  20585722.431   -25016888.980 9 -19213995.35248  20585722.601    20585725.9194
 00  1 21  0 26  0.0000000  0  7 24 07 16 09 05 02 04
  20516505.361   -25300658.633 9 -19671919.26647  20516505.199    20516509.8774
  23302562.004   -12025214.291 8  -9085632.18646  23302561.373    23302567.1004
  24289080.382    -5736006.367 7  -4453755.82845  24289079.711    24289086.8304
  21445346.999   -19816954.510 9 -15418348.52447  21445346.855    21445350.9684
  21628811.650   -20237748.113 9 -15752283.66447  21628811.156    21628815.7304
  24270585.232    -7021792.357 8  -5455553.52545  24270584.584    24270592.4094
  20593488.125   -24976080.023 9 -19182196.14348  20593488.295    20593491.5904
 00  1 21  0 26 30.0000000  0  7 24 07 16 09 05 02 04
  20508564.129   -25342389.827 9 -19704437.01747  20508563.967    20508568.6264
  23315213.729   -11958728.787 8  -9033825.28946  23315213.104    23315218.8564
  24290005.083    -5731146.013 7  -4449968.47045  24290004.570    24290011.6734
  21453070.495   -19776367.322 9 -15386722.13047  21453070.358    21453074.4534
  21615289.545   -20308806.854 9 -15807654.02347  21615289.027    21615293.5854
  24287628.337    -6932230.398 7  -5385764.95745  24287627.675    24287635.5744
  20601346.158   -24934785.683 9 -19150018.70948  20601346.325    20601349.6334
 00  1 21  0 27  0.0000000  0  7 24 07 16 09 05 02 04
  20500718.399   -25383619.283 9 -19736563.80647  20500718.248    20500722.8674
  23327869.654   -11892221.731 8  -8982001.59046  23327868.983    23327874.7694
  24291026.544    -5725777.950 7  -4445785.45645  24291026.103    24291033.0184
  21460882.154   -19735316.874 9 -15354734.75747  21460882.020    21460886.1144
  21601805.940   -20379663.144 9 -15862866.63147  21601805.431    21601809.9744
  24304710.473    -6842463.224 7  -5315816.49045  24304709.810    24304717.6014
  20609293.578   -24893021.530 9 -19117475.18948  20609293.753    20609297.0684
 00  1 21  0 27 30.0000000  0  7 24 07 16 09 05 02 04
  20492968.101   -25424347.069 9 -19768299.68547  20492967.974    20492972.5594
  23340526.823   -11825707.781 8  -8930172.52446  23340526.101    23340531.9374
  24292145.033    -5719900.096 7  -4441205.24145  24292144.628    24292151.6764
  21468781.938   -19693803.144 9 -15322386.37947  21468781.802    21468785.8834
  21588361.958   -20450311.360 9 -15917917.10047  21588361.448    21588366.0064
  24321830.924    -6752494.764 7  -5245711.18845  24321830.268    24321837.9744
  20617330.657   -24850786.260 9 -19084564.55948  20617330.829    20617334.1484
 00  1 21  0 28  0.0000000  0  7 24 07 16 09 05 02 04
  20485313.816   -25464570.696 9 -19799642.71147  20485313.672    20485318.2434
  23353183.157   -11759198.126 8  -8878346.79845  23353182.458    23353188.1724
  24293359.779    -5713515.985 7  -4436230.50445  24293359.427    24293366.3914
  21476771.878   -19651815.908 9 -15289669.03447  21476771.730    21476775.8234
  21574958.886   -20520744.675 9 -15972800.11847  21574958.367    21574962.9094
  24338987.609    -6662335.438 7  -5175457.13545  24338986.921    24338994.6734
  20625459.465   -24808068.747 9 -19051278.15548  20625459.661    20625462.9774
 00  1 21  0 28 30.0000000  0  6 24 07 16 09 05 04
  20477756.959   -25504281.929 9 -19830586.47247  20477756.794    20477761.3694
  23365839.036   -11692690.749 8  -8826522.83445  23365838.357    23365844.0244
  24294671.176    -5706625.433 7  -4430861.13845  24294670.760    24294677.6054
  21484855.463   -19609336.211 9 -15256567.95747  21484855.324    21484859.4184
  21561596.119   -20590966.190 9 -16027518.10747  21561595.618    21561600.1064
  20633683.903   -24764849.041 9 -19017600.43448  20633684.068    20633687.3904
 00  1 21  0 29  0.0000000  0  6 24 07 16 09 05 04
  20470301.964   -25543457.797 9 -19861113.06348  20470301.805    20470306.3574
  23378499.903   -11626157.752 8  -8774678.92445  23378499.182    23378504.7804
  24296081.687    -5699211.990 7  -4425084.33445  24296081.123    24296088.1444
  21493036.930   -19566342.222 9 -15223066.13247  21493036.790    21493040.8694
  21548275.614   -20660965.782 9 -16082063.17047  21548275.110    21548279.5534
  20642009.041   -24721100.047 9 -18983510.28048  20642009.195    20642012.5154
 00  1 21  0 29 30.0000000  0  6 24 07 16 09 05 04
  20462946.282   -25582112.080 9 -19891233.23247  20462946.107    20462950.6314
  23391168.456   -11559584.049 8  -8722803.27845  23391167.781    23391173.3584
  24297590.721    -5691282.428 7  -4418905.34845  24297589.999    24297596.7374
  21501317.117   -19522829.389 9 -15189160.01547  21501316.978    21501321.0794
  21534994.295   -20730759.253 9 -16136447.61847  21534993.754    21534998.1954
  20650434.111   -24676825.699 9 -18949010.76248  20650434.282    20650437.6034
 00  1 21  0 30  0.0000000  0  6 24 07 16 09 05 04
  20455689.205   -25620247.882 9 -19920949.37948  20455689.041    20455693.5404
  23403846.536   -11492959.872 8  -8670888.33045  23403845.904    23403851.5044
  24299198.545    -5682833.242 7  -4412321.43145  24299197.896    24299204.4944
  21509694.782   -19478804.361 9 -15154854.77947  21509694.648    21509698.7534
  21521750.295   -20800356.633 9 -16190679.27447  21521749.773    21521754.1844
  20658959.948   -24632022.148 9 -18914098.87248  20658960.120    20658963.4244
 00  1 21  0 30 30.0000000  0  6 24 07 16 09 05 04
  20448530.981   -25657864.264 9 -19950260.79548  20448530.817    20448535.3084
  23416535.707   -11426277.568 8  -8618928.06545  23416535.070    23416540.6414
  24300908.397    -5673847.280 7  -4405319.27745  24300907.793    24300914.3844
  21518168.589   -19434274.282 9 -15120156.00547  21518168.422    21518172.5354
  21508543.797   -20869756.878 9 -16244757.32147  21508543.256    21508547.6594
  20667587.883   -24586682.048 9 -18878768.90048  20667588.047    20667591.3424
 00  1 21  0 31  0.0000000  0  6 24 07 16 09 05 04
  20441471.744   -25694960.769 9 -19979167.10448  20441471.584    20441476.0544
  23429235.926   -11359537.314 8  -8566922.65045  23429235.307    23429240.8444
  24302722.324    -5664313.889 7  -4397890.57245  24302721.526    24302728.3024
  21526735.137   -19389256.699 9 -15085077.35347  21526734.981    21526739.0834
  21495377.692   -20938944.805 9 -16298669.93247  21495377.160    21495381.5294
  20676316.149   -24540814.483 9 -18843027.91347  20676316.314    20676319.6244
 00  1 21  0 31 30.0000000  0  6 24 07 16 09 05 04
  20434511.701   -25731535.683 9 -20007666.97948  20434511.552    20434516.0244
  23441944.673   -11292752.826 8  -8514882.75845  23441944.010    23441949.5174
  24304643.717    -5654217.929 7  -4390023.48945  24304642.775    24304649.4364
  21535393.803   -19343755.235 9 -15049621.65547  21535393.647    21535397.7184
  21482253.259   -21007913.881 9 -16352412.00947  21482252.756    21482257.1214
  20685145.439   -24494416.120 9 -18806873.31547  20685145.602    20685148.9054
 00  1 21  0 32  0.0000000  0  6 24 07 16 09 05 04
  20427654.153   -25767572.328 9 -20035747.42448  20427653.990    20427658.4454
  23454659.130   -11225937.827 8  -8462819.10345  23454658.508    23454663.9754
  24306672.783    -5643555.401 7  -4381714.94045  24306672.002    24306678.2124
  21544144.619   -19297769.312 9 -15013788.45947  21544144.459    21544148.5234
  21469174.021   -21076645.435 9 -16405969.00047  21469173.510    21469177.8634
  20694076.152   -24447484.835 9 -18770303.45747  20694076.319    20694079.5914
 00  1 21  0 32 30.0000000  0  6 24 07 16 09 05 04
  20420900.386   -25803063.367 9 -20063402.72348  20420900.225    20420904.6714
  23467378.269   -11159098.171 8  -8410736.23445  23467377.603    23467383.1514
  24308809.779    -5632323.339 7  -4372962.62145  24308809.092    24308815.4484
  21552990.201   -19251285.511 9 -14977567.30147  21552990.036    21552994.1014
  21456147.323   -21145101.045 9 -16459310.97647  21456146.799    21456151.1424
  20703105.757   -24400033.749 9 -18733328.55847  20703105.918    20703109.1834
 00  1 21  0 33  0.0000000  0  6 24 07 16 09 05 04
  20414250.281   -25838009.697 9 -20090633.57248  20414250.129    20414254.5474
  23480098.160   -11092254.354 8  -8358650.12945  23480097.577    23480103.1014
  24311054.070    -5620529.311 7  -4363772.35245  24311053.568    24311059.5844
  21561930.884   -19204301.646 9 -14940956.48947  21561930.716    21561934.7774
  21443173.808   -21213277.124 9 -16512435.13747  21443173.280    21443177.6164
  20712230.193   -24352084.377 9 -18695965.38547  20712230.361    20712233.6614
 00  1 21  0 33 30.0000000  0  6 24 07 16 09 05 04
  20407703.785   -25872411.386 9 -20117440.02748  20407703.641    20407708.0374
  23492818.653   -11025407.602 8  -8306561.72445  23492818.091    23492823.6434
  24313404.825    -5608174.351 7  -4354145.02045  24313404.312    24313410.7444
  21570964.507   -19156829.356 9 -14903965.08947  21570964.352    21570968.4224
  21430252.444   -21281179.034 9 -16565345.66347  21430251.925    21430256.2734
  20721447.541   -24303646.608 9 -18658221.64447  20721447.700    20721451.0204
 00  1 21  0 34  0.0000000  0  6 24 07 16 09 05 04
  20401259.337   -25906277.049 9 -20143828.79548  20401259.172    20401263.5624
  23505540.760   -10958551.829 8  -8254466.29145  23505540.224    23505545.8614
  24315859.950    -5595270.570 7  -4344090.04845  24315859.541    24315866.1234
  21580090.375   -19108872.249 9 -14866595.90647  21580090.214    21580094.3044
  21417383.177   -21348807.058 9 -16618042.76947  21417382.674    21417387.0184
  20730753.895   -24254741.179 9 -18620113.48647  20730754.068    20730757.3854
 00  1 21  0 34 30.0000000  0  6 24 07 16 09 05 04
  20394913.490   -25939624.394 9 -20169813.68548  20394913.325    20394917.7054
  23518264.775   -10891686.763 8  -8202363.62845  23518264.224    23518269.8124
  24318418.262    -5581827.204 7  -4333614.62045  24318417.949    24318424.0864
  21589305.861   -19060444.493 9 -14828859.99047  21589305.735    21589309.8244
  21404560.436   -21416190.977 9 -16670549.66047  21404559.922    21404564.2454
  20740144.872   -24205391.130 9 -18581658.87847  20740145.026    20740148.3294
 00  1 21  0 35  0.0000000  0  7 24 30 07 16 09 05 04
  20388664.632   -25972462.192 9 -20195401.51948  20388664.471    20388668.8224
  24558864.197    -4664987.300 8  -3618815.96445  24558864.322    24558872.3454
  23530989.988   -10824815.881 8  -8150256.42345  23530989.375    23530994.9604
  24321075.463    -5567863.620 7  -4322733.80945  24321075.061    24321081.5724
  21598605.916   -19011572.431 9 -14790777.86047  21598605.776    21598609.8614
  21391776.536   -21483370.720 9 -16722897.44247  21391776.012    21391780.3134
  20749617.635   -24155611.416 9 -18542869.45947  20749617.799    20749621.0814
 00  1 21  0 35 30.0000000  0  7 24 30 07 16 09 05 04
  20382510.387   -26004802.792 9 -20220601.93148  20382510.212    20382514.5374
  24539839.278    -4764963.406 8  -3696719.25045  24539839.473    24539847.1124
  23543716.851   -10757935.836 8  -8098142.08745  23543716.214    23543721.8434
  24323828.113    -5553397.502 7  -4311461.44145  24323827.725    24323834.2414
  21607990.432   -18962256.681 9 -14752350.00147  21607990.290    21607994.3484
  21379030.795   -21550349.687 9 -16775088.78047  21379030.275    21379034.5484
  20759172.813   -24105398.444 9 -18503742.44247  20759172.964    20759176.2464
 00  1 21  0 36  0.0000000  0  7 24 30 07 16 09 05 04
  20376452.480   -26036637.139 9 -20245407.86148  20376452.306    20376456.6124
  24520814.371    -4864939.365 8  -3774622.45345  24520814.453    24520822.1784
  23556446.229   -10691041.958 7  -8046016.96245  23556445.683    23556451.2974
  24326675.478    -5538434.467 7  -4299801.86645  24326675.013    24326681.2044
  21617464.634   -18912469.550 9 -14713554.83547  21617464.481    21617468.5174
  21366325.523   -21617116.214 9 -16827114.57847  21366324.991    21366329.1984
  20768814.235   -24054732.385 9 -18464262.36547  20768814.399    20768817.6414
 00  1 21  0 36 30.0000000  0  7 24 30 07 16 09 05 04
  20370492.193   -26067958.426 9 -20269814.00548  20370492.022    20370496.3144
  24501785.587    -4964935.543 8  -3852541.44245  24501785.717    24501793.2924
  23569177.894   -10624136.315 8  -7993882.68045  23569177.338    23569183.0034
  24329617.768    -5522974.046 7  -4287754.69745  24329617.197    24329623.2374
  21627024.393   -18862232.770 9 -14674409.29147  21627024.253    21627028.2894
  21353662.602   -21683660.011 9 -16878966.81247  21353662.078    21353666.2464
  20778544.703   -24003598.447 9 -18424417.71247  20778544.853    20778548.1004
 00  1 21  0 37  0.0000000  0  7 24 30 07 16 09 05 04
  20364633.800   -26098744.390 9 -20293803.01348  20364633.628    20364637.8914
  24482753.946    -5064947.649 8  -3930472.86845  24482754.063    24482761.5024
  23581914.505   -10557204.565 8  -7941728.04645  23581913.911    23581919.5704
  24332656.248    -5507005.695 7  -4275311.73845  24332655.633    24332661.7864
  21636672.935   -18811529.360 9 -14634900.13947  21636672.803    21636676.8234
  21341048.734   -21749945.918 9 -16930618.08747  21341048.210    21341052.3844
  20788370.250   -23951964.611 9 -18384183.52347  20788370.401    20788373.6454
 00  1 21  0 37 30.0000000  0  7 24 30 07 16 09 05 04
  20358879.299   -26128984.276 9 -20317366.50848  20358879.131    20358883.3544
  24463721.801    -5164961.970 7  -4008405.99645  24463721.848    24463729.2144
  23594660.108   -10490226.228 8  -7889537.11545  23594659.507    23594665.1724
  24335796.072    -5490504.573 7  -4262453.66245  24335795.469    24335801.9114
  21646413.173   -18760344.187 9 -14595015.59147  21646413.040    21646417.0534
  21328487.597   -21815954.586 9 -16982053.32447  21328487.076    21328491.2534
  20798294.571   -23899811.804 9 -18343544.94747  20798294.720    20798297.9604
 00  1 21  0 38  0.0000000  0  7 24 30 07 16 09 05 04
  20353232.222   -26158659.506 9 -20340490.01248  20353232.051    20353236.2674
  24444688.019    -5264983.757 7  -4086344.94745  24444688.205    24444695.5344
  23607417.821   -10423184.013 8  -7837296.40645  23607417.255    23607422.8294
  24339042.659    -5473444.178 7  -4249159.78745  24339042.151    24339048.3764
  21656243.240   -18708686.993 9 -14554763.23147  21656243.095    21656247.1134
  21315982.297   -21881669.968 9 -17033260.02747  21315981.793    21315985.9774
  20808316.897   -23847143.996 9 -18302505.07147  20808317.052    20808320.2754
 00  1 21  0 38 30.0000000  0  7 24 30 07 16 09 05 04
  20347694.377   -26187760.603 9 -20363166.14048  20347694.235    20347698.4304
  24425653.112    -5365011.851 7  -4164288.80045  24425653.273    24425660.6324
  23620188.961   -10356071.509 8  -7785000.91445  23620188.364    23620193.7994
  24342398.341    -5455808.336 7  -4235417.50945  24342397.770    24342404.1494
  21666163.865   -18656553.501 9 -14514139.73947  21666163.737    21666167.7334
  21303533.327   -21947089.626 9 -17084236.29147  21303532.801    21303536.9534
  20818434.904   -23793973.330 9 -18261073.36147  20818435.047    20818438.2774
 00  1 21  0 39  0.0000000  0  7 24 30 07 16 09 05 04
  20342261.372   -26216311.062 9 -20385413.19648  20342261.216    20342265.3944
  24406618.654    -5465037.709 7  -4242230.89945  24406618.870    24406626.2404
  23632970.241   -10288905.363 8  -7732663.61945  23632969.646    23632975.0364
  24345862.193    -5437605.810 7  -4221233.65645  24345861.730    24345867.6824
  21676177.542   -18603931.359 9 -14473135.47247  21676177.385    21676181.3964
  21291136.471   -22012235.179 9 -17134998.96047  21291135.943    21291140.0974
  20828642.251   -23740333.125 9 -18219275.77747  20828642.421    20828645.6244
 00  1 21  0 39 30.0000000  0  7 24 30 07 16 09 05 04
  20336928.400   -26244336.040 9 -20407250.78948  20336928.248    20336932.4074
  24387581.263    -5565080.018 7  -4320185.82145  24387581.399    24387588.5384
  23645756.807   -10221711.087 8  -7680304.40745  23645756.304    23645761.6814
  24349431.748    -5418847.433 7  -4206616.65045  24349431.329    24349437.1804
  21686279.619   -18550844.545 9 -14431769.12547  21686279.451    21686283.4924
  21278788.519   -22077123.659 9 -17185561.31047  21278788.002    21278792.1354
  20838933.315   -23686253.183 9 -18177135.53947  20838933.457    20838936.6474
 00  1 21  0 40  0.0000000  0  7 24 30 07 16 09 05 04
  20331694.037   -26271842.680 9 -20428684.47948  20331693.861    20331698.0314
  24368540.708    -5665137.970 7  -4398152.90745  24368540.901    24368547.9804
  23658545.231   -10154506.654 8  -7627937.27645  23658544.791    23658550.2134
  24353103.421    -5399552.780 7  -4191581.79245  24353103.088    24353109.0514
  21696468.603   -18497300.949 9 -14390046.84947  21696468.447    21696472.4954
  21266488.055   -22141762.710 9 -17235929.29947  21266487.547    21266491.6614
  20849306.286   -23631742.798 9 -18134659.89147  20849306.435    20849309.5944
 00  1 21  0 40 30.0000000  0  7 24 30 07 16 09 05 04
  20326554.596   -26298850.323 9 -20449729.34548  20326554.449    20326558.5974
  24349499.703    -5765197.420 7  -4476121.13645  24349499.973    24349507.3384
  23671334.895   -10087296.811 8  -7575565.95045  23671334.376    23671339.7964
  24356874.807    -5379733.246 7  -4176137.93745  24356874.507    24356880.7524
  21706743.959   -18443303.649 9 -14347971.03547  21706743.814    21706747.8454
  21254231.537   -22206170.875 9 -17286117.37847  21254231.022    21254235.1024
  20859760.983   -23576803.049 9 -18091849.67547  20859761.138    20859764.2844
 00  1 21  0 41  0.0000000  0  7 24 30 07 16 09 05 04
  20321507.825   -26325371.130 9 -20470394.85448  20321507.673    20321511.8004
  24330460.957    -5865245.011 7  -4554080.10745  24330461.273    24330468.7984
  23684125.013   -10020084.717 8  -7523192.85345  23684124.412    23684129.7954
  24360745.917    -5359390.392 7  -4160286.29245  24360745.507    24360751.6024
  21717099.784   -18388883.080 9 -14305565.40247  21717099.655    21717103.6924
  21242018.600   -22270350.003 9 -17336126.99247  21242018.077    21242022.1174
  20870298.780   -23521426.400 9 -18048699.02147  20870298.923    20870302.1064
 00  1 21  0 41 30.0000000  0  7 24 30 07 16 09 05 04
  20316558.721   -26351378.798 9 -20490660.51248  20316558.569    20316562.6774
  24311427.294    -5965266.913 7  -4632019.05345  24311427.669    24311435.2334
  23696917.086    -9952862.158 8  -7470811.58845  23696916.396    23696921.7684
  24364715.997    -5338527.186 7  -4144029.18845  24364715.478    24364721.7204
  21727533.302   -18334054.716 9 -14262842.00747  21727533.162    21727537.1704
  21229850.633   -22334292.750 9 -17385952.40747  21229850.111    21229854.1444
  20880923.559   -23465592.841 9 -18005192.33047  20880923.717    20880926.8714
 00  1 21  0 42  0.0000000  0  7 24 30 07 16 09 05 04
  20311710.228   -26376857.550 9 -20510514.02648  20311710.066    20311714.1874
  24292403.764    -6065236.008 7  -4709916.83445  24292404.168    24292411.6514
  23709712.962    -9885619.221 8  -7418414.45745  23709712.258    23709717.5724
  24368785.657    -5317140.667 7  -4127364.30845  24368785.340    24368791.4984
  21738045.654   -18278811.911 9 -14219795.67247  21738045.494    21738049.5274
  21217728.194   -22397995.843 9 -17435591.08247  21217727.693    21217731.7314
  20891636.904   -23409293.878 9 -17961322.98947  20891637.041    20891640.1864
 00  1 21  0 42 30.0000000  0  7 24 30 07 16 09 05 04
  20306964.222   -26401797.847 9 -20529947.96848  20306964.051    20306968.1674
  24273390.384    -6165152.126 8  -4787773.33245  24273390.692    24273398.0554
  23722512.348    -9818357.493 8  -7366002.68445  23722511.687    23722517.0844
  24372957.777    -5295215.644 7  -4110279.80245  24372957.463    24372963.5644
  21748636.836   -18223154.935 8 -14176426.60647  21748636.672    21748640.7004
  21205654.555   -22461442.835 9 -17485030.20147  21205654.051    21205658.0664
  20902441.248   -23352516.710 9 -17917081.02047  20902441.381    20902444.5404
 00  1 21  0 43  0.0000000  0  7 24 30 07 16 09 05 04
  20302325.227   -26426175.530 9 -20548943.50548  20302325.053    20302329.1624
  24254384.648    -6265027.656 8  -4865598.16945  24254384.959    24254392.1984
  23735314.546    -9751081.270 8  -7313579.61345  23735313.854    23735319.2394
  24377232.849    -5272750.437 7  -4092774.35945  24377232.414    24377238.3604
  21759309.805   -18167068.027 9 -14132722.51947  21759309.633    21759313.7004
  21193636.024   -22524600.242 9 -17534243.67147  21193635.512    21193639.5164
  20913338.656   -23295250.219 9 -17872457.76247  20913338.807    20913341.9904
 00  1 21  0 43 30.0000000  0  7 24 30 07 16 09 05 04
  20297796.401   -26449974.334 9 -20567487.97048  20297796.228    20297800.3324
  24235384.824    -6364872.099 8  -4943398.78745  24235385.162    24235392.2334
  23748122.753    -9683773.774 8  -7261132.16145  23748122.117    23748127.4684
  24381612.177    -5249735.873 7  -4074840.85145  24381611.681    24381617.7364
  21770070.215   -18110521.821 8 -14088660.54547  21770070.054    21770074.1134
  21181677.996   -22587439.681 9 -17583209.37847  21181677.480    21181681.4994
  20924329.436   -23237493.354 9 -17827452.39247  20924329.588    20924332.7534
 00  1 21  0 44  0.0000000  0  7 24 30 07 16 09 05 04
  20293375.500   -26473206.190 9 -20585590.65648  20293375.329    20293379.4084
  24216389.604    -6464692.285 8  -5021180.48945  24216389.912    24216396.8484
  23760939.487    -9616421.292 8  -7208649.69145  23760938.845    23760944.0874
  24386100.684    -5226148.044 8  -4056460.63145  24386100.273    24386106.2734
  21780920.522   -18053502.820 8 -14044230.15847  21780920.363    21780924.4534
  21169784.309   -22649941.126 9 -17631911.71947  21169783.794    21169787.7894
  20935412.305   -23179252.424 9 -17782069.82647  20935412.456    20935415.6414
 00  1 21  0 44 30.0000000  0  7 24 30 07 16 09 05 04
  20289061.097   -26495878.339 9 -20603257.20948  20289060.926    20289064.9894
  24197395.634    -6564505.872 8  -5098957.05245  24197395.912    24197402.7104
  23773766.385    -9549016.029 8  -7156126.06545  23773765.565    23773770.8804
  24390698.468    -5201987.575 8  -4037634.18145  24390697.951    24390703.6984
  21791859.640   -17996017.607 8 -13999436.48747  21791859.470    21791863.5164
  21157954.944   -22712104.673 9 -17680350.76447  21157954.423    21157958.3974
  20946583.969   -23120544.739 9 -17736323.55647  20946584.112    20946587.2984
 00  1 21  0 45  0.0000000  0  7 24 30 07 16 09 05 04
  20284852.266   -26517995.718 9 -20620491.47048  20284852.099    20284856.1394
  24178403.145    -6664311.270 8  -5176727.23045  24178403.500    24178410.0034
  23786604.298    -9481551.874 8  -7103556.55945  23786603.587    23786608.8504
  24395403.572    -5177263.321 7  -4018368.45045  24395402.994    24395408.3424
  21802886.682   -17938070.212 8 -13954282.67347  21802886.506    21802890.5214
  21146187.947   -22773940.369 9 -17728534.34847  21146187.419    21146191.3484
  20957836.974   -23061409.593 9 -17690244.19847  20957837.131    20957840.2944
 00  1 21  0 45 30.0000000  0  7 24 30 07 16 09 05 04
  20280745.215   -26539578.272 9 -20637308.99048  20280745.062    20280749.0814
  24159413.464    -6764101.919 8  -5254485.92945  24159413.706    24159420.1664
  23799452.626    -9414033.049 8  -7050944.46745  23799451.982    23799457.2394
  24400213.856    -5151983.226 7  -3998669.59845  24400213.414    24400219.0564
  21813997.190   -17879684.137 9 -13908787.03447  21813997.014    21814001.0314
  21134474.938   -22835492.363 9 -17776496.86747  21134474.408    21134478.3004
  20969166.666   -23001871.383 9 -17643850.76747  20969166.838    20969169.9864
 00  1 21  0 46  0.0000000  0  7 24 30 07 16 09 05 04
  20276737.159   -26560640.462 9 -20653721.03248  20276736.997    20276740.9994
  24140424.965    -6863886.524 8  -5332239.91845  24140425.161    24140431.4604
  23812305.987    -9346487.492 7  -6998311.52345  23812305.424    23812310.6914
  24405125.073    -5126174.947 7  -3978559.14345  24405124.574    24405130.2804
  21825187.248   -17820879.944 9 -13862965.58447  21825187.067    21825191.1124
  21122809.249   -22896795.637 9 -17824265.58447  21122808.704    21122812.5504
  20980569.384   -22941949.747 9 -17597158.56347  20980569.554    20980572.6844
 00  1 21  0 46 30.0000000  0  7 24 30 07 16 09 05 04
  20272828.985   -26581177.813 9 -20669724.11348  20272828.813    20272832.8104
  24121437.369    -6963665.841 7  -5409989.78145  24121437.427    24121443.8574
  23825161.204    -9278932.627 7  -6945671.33745  23825160.694    23825165.9594
  24410132.418    -5099861.318 8  -3958054.91945  24410131.897    24410137.8014
  21836454.744   -17761668.740 8 -13816826.98447  21836454.577    21836458.6474
  21111188.932   -22957860.528 9 -17871848.54947  21111188.398    21111192.2114
  20992044.735   -22881646.221 9 -17550168.78147  20992044.910    20992048.0234
 00  1 21  0 47  0.0000000  0  7 24 30 07 16 09 05 04
  20269020.507   -26601191.233 9 -20685318.93348  20269020.349    20269024.3374
  24102452.463    -7063430.704 7  -5487728.36545  24102452.620    24102458.8814
  23838016.359    -9211378.057 7  -6893031.39045  23838015.865    23838021.1384
  24415235.946    -5073043.770 7  -3937158.00745  24415235.195    24415241.0364
  21847798.899   -17702054.635 8 -13770374.43847  21847798.744    21847802.8094
  21099616.610   -23018673.172 9 -17919234.96247  21099616.080    21099619.8544
  21003595.404   -22820946.905 9 -17502870.59347  21003595.573    21003598.6594
 00  1 21  0 47 30.0000000  0  7 24 30 07 16 09 05 04
  20265312.091   -26620678.848 9 -20700504.03848  20265311.917    20265315.8994
  24083472.766    -7163168.346 7  -5565445.76245  24083473.178    24083479.3674
  23850871.800    -9143822.112 7  -6840390.37545  23850871.345    23850876.6244
  24420434.754    -5045723.189 7  -3915869.17245  24420434.034    24420439.6974
  21859220.628   -17642033.255 8 -13723604.53147  21859220.466    21859224.4924
  21088095.710   -23079215.710 9 -17966410.90047  21088095.156    21088098.9174
  21015227.957   -22759817.653 9 -17455237.39147  21015228.130    21015231.1654
 00  1 21  0 48  0.0000000  0  7 24 30 07 16 09 05 04
  20261704.452   -26639636.939 9 -20715276.52948  20261704.284    20261708.2454
  24064500.055    -7262869.167 7  -5643134.45345  24064500.404    24064506.6134
  23863730.135    -9076250.607 7  -6787737.23345  23863729.603    23863735.0254
  24425731.795    -5017887.125 8  -3894178.61545  24425731.088    24425736.4754
  21870721.745   -17581594.464 8 -13676509.36647  21870721.595    21870725.6334
  21076635.067   -23139441.696 9 -18013340.18247  21076634.510    21076638.2534
  21026944.632   -22698246.108 9 -17407259.54347  21026944.759    21026947.7994
 00  1 21  0 48 30.0000000  0  7 24 30 07 16 09 05 04
  20258196.565   -26658070.808 9 -20729640.53748  20258196.393    20258200.3474
  24045538.572    -7362511.043 7  -5720777.22345  24045538.871    24045545.1614
  23876594.780    -9008646.049 7  -6735058.33345  23876594.218    23876599.6944
  24431130.700    -4989514.378 8  -3872069.91645  24431130.150    24431135.7854
  21882303.694   -17520730.942 8 -13629083.25247  21882303.537    21882307.5914
  21065238.012   -23199333.187 9 -18060008.82347  21065237.470    21065241.1904
  21038747.725   -22636220.215 9 -17358927.66547  21038747.858    21038750.8764
 00  1 21  0 49  0.0000000  0  7 24 30 07 16 09 05 04
  20254786.105   -26675992.780 9 -20743605.66848  20254785.924    20254789.8764
  24026588.692    -7462091.635 7  -5798372.24645  24026589.069    24026595.3614
  23889466.497    -8941004.249 8  -6682350.42345  23889465.957    23889471.4444
  24436630.949    -4960609.296 7  -3849546.40545  24436630.424    24436636.2484
  21893966.783   -17459441.006 8 -13581324.86547  21893966.612    21893970.6874
  21053904.518   -23258890.918 9 -18106417.39347  21053903.976    21053907.6924
  21050635.951   -22573747.402 9 -17310247.53647  21050636.098    21050639.0804
 00  1 21  0 49 30.0000000  0  7 24 30 07 16 09 05 04
  20251470.121   -26693418.221 9 -20757183.88848  20251469.939    20251473.8714
  24007649.893    -7561614.827 7  -5875922.55245  24007650.140    24007656.4814
  23902345.246    -8873326.087 7  -6629614.16445  23902344.671    23902350.1604
  24442229.871    -4931185.286 7  -3826618.50245  24442229.417    24442235.2354
  21905710.491   -17397727.188 8 -13533236.17947  21905710.322    21905714.3794
  21042631.064   -23318133.263 9 -18152580.20547  21042630.520    21042634.2034
  21062605.100   -22510849.185 9 -17261235.91847  21062605.222    21062608.2164
 00  1 21  0 50  0.0000000  0  8 24 10 30 07 16 09 05 04
  20248250.404   -26710337.711 9 -20770367.86248  20248250.228    20248254.1614
  24583103.582    -2619614.799 7  -2028134.62145  24583102.763    24583111.0844
  23988721.892    -7661081.418 8  -5953428.76345  23988722.124    23988728.4344
  23915231.308    -8805609.356 7  -6576847.85945  23915230.701    23915236.3494
  24447928.887    -4901235.964 7  -3803281.31945  24447928.531    24447934.3244
  21917533.552   -17335596.769 8 -13484822.86847  21917533.397    21917537.4414
  21031416.596   -23377065.491 9 -18198501.37347  21031416.054    21031419.7184
  21074653.862   -22447532.306 9 -17211898.08247  21074653.991    21074657.0214
 00  1 21  0 50 30.0000000  0  8 24 10 30 07 16 09 05 04
  20245127.316   -26726749.411 9 -20783156.15348  20245127.140    20245131.0714
  24564193.750    -2718985.918 7  -2105566.41245  24564192.874    24564201.2354
  23969801.515    -7760507.641 8  -6030903.52445  23969801.752    23969808.0044
  23928121.566    -8737870.486 7  -6524064.31045  23928120.937    23928126.5744
  24453724.304    -4870780.528 7  -3779549.72045  24453723.880    24453729.7724
  21929432.189   -17273069.148 8 -13436100.05047  21929432.020    21929436.0344
  21020254.778   -23435721.047 9 -18244206.95247  21020254.251    21020257.8944
  21086779.555   -22383811.199 9 -17162245.25547  21086779.696    21086782.7014
 00  1 21  0 51  0.0000000  0  8 24 10 30 07 16 09 05 04
  20242103.661   -26742638.593 9 -20795537.29348  20242103.493    20242107.4164
  24545263.989    -2818461.549 7  -2183079.64745  24545262.989    24545271.3614
  23950886.756    -7859904.519 8  -6108355.43645  23950887.096    23950893.2484
  23941015.054    -8670115.099 8  -6471267.89345  23941014.431    23941019.9874
  24459614.799    -4839826.027 7  -3755429.25345  24459614.422    24459619.8394
  21941404.511   -17210154.128 8 -13387075.37447  21941404.342    21941408.3544
  21009147.148   -23494091.847 9 -18289690.65647  21009146.620    21009150.2384
  21098980.200   -22319696.211 9 -17112285.52147  21098980.330    21098983.3514
 00  1 21  0 51 30.0000000  0  8 24 10 30 07 16 09 05 04
  20239182.690   -26757988.137 9 -20807497.93348  20239182.516    20239186.4284
  24526322.011    -2918001.889 7  -2260643.30045  24526320.942    24526329.2944
  23931978.565    -7959267.043 8  -6185780.58745  23931978.866    23931984.9194
  23953910.962    -8602346.635 8  -6418461.27045  23953910.353    23953915.8384
  24465604.104    -4808351.673 8  -3730903.72745  24465603.625    24465609.2524
  21953448.505   -17146862.440 8 -13337757.17947  21953448.354    21953452.3754
  20998094.933   -23552171.409 9 -18334947.41347  20998094.402    20998098.0224
  21111257.236   -22255179.786 9 -17062012.97047  21111257.381    21111260.4114
 00  1 21  0 52  0.0000000  0  8 24 10 30 07 16 09 05 04
  20236367.661   -26772781.153 9 -20819024.91648  20236367.484    20236371.3954
  24507373.031    -3017578.647 7  -2338235.35545  24507372.080    24507380.3264
  23913075.606    -8058601.997 8  -6263184.26845  23913075.903    23913081.9244
  23966809.675    -8534562.930 8  -6365642.76645  23966809.063    23966814.6754
  24471695.248    -4776341.866 7  -3705960.91445  24471694.698    24471700.5474
  21965564.492   -17083192.514 8 -13288144.26147  21965564.336    21965568.3414
  20987100.624   -23609946.859 9 -18379967.19947  20987100.093    20987103.6814
  21123613.043   -22190249.567 9 -17011417.98447  21123613.177    21123616.2284
 00  1 21  0 52 30.0000000  0  8 24 10 30 07 16 09 05 04
  20233657.930   -26787020.730 9 -20830120.64448  20233657.760    20233661.6484
  24488420.769    -3117172.720 7  -2415840.91645  24488419.810    24488428.0324
  23894178.926    -8157903.813 8  -6340562.13545  23894179.204    23894185.2094
  23979712.350    -8466759.091 8  -6312808.58645  23979711.661    23979717.2574
  24477891.023    -4743782.024 8  -3680589.54845  24477890.539    24477896.3394
  21977754.251   -17019135.181 8 -13238229.46447  21977754.097    21977758.1014
  20976166.020   -23667408.513 9 -18424742.47247  20976165.473    20976169.0504
  21136046.754   -22124909.852 9 -16960503.91347  21136046.889    21136049.9624
 00  1 21  0 53  0.0000000  0  8 24 10 30 07 16 09 05 04
  20231052.004   -26800714.915 9 -20840791.39148  20231051.824    20231055.6964
  24469463.759    -3216791.821 8  -2493466.01345  24469462.744    24469470.9324
  23875290.279    -8257163.887 8  -6417907.48845  23875290.601    23875296.4354
  23992616.827    -8398945.445 8  -6259966.75845  23992616.217    23992621.7314
  24484192.668    -4710666.901 7  -3654785.47345  24484192.136    24484197.8604
  21990018.016   -16954688.708 8 -13188011.44347  21990017.818    21990021.8694
  20965291.996   -23724551.489 9 -18469269.42747  20965291.471    20965295.0494
  21148557.000   -22059168.086 9 -16909276.55647  21148557.149    21148560.1964
 00  1 21  0 53 30.0000000  0  8 24 10 30 07 16 09 05 04
  20228548.108   -26813872.709 9 -20851044.16548  20228547.928    20228551.8044
  24450498.674    -3316453.055 7  -2571123.96345  24450497.743    24450505.8444
  23856410.230    -8356378.544 8  -6495217.46945  23856410.511    23856416.2564
  24005523.499    -8331120.620 8  -6207116.21545  24005522.822    24005528.2624
  24490598.432    -4677004.423 7  -3628554.91345  24490597.852    24490603.4214
  22002356.716   -16889848.408 8 -13137486.53747  22002356.516    22002360.5844
  20954476.921   -23781384.718 9 -18513555.01947  20954476.408    20954479.9734
  21161142.508   -21993030.768 9 -16857740.97347  21161142.646    21161145.6764
 00  1 21  0 54  0.0000000  0  8 24 10 30 07 16 09 05 04
  20226146.195   -26826494.624 9 -20860879.37248  20226146.021    20226149.8944
  24431520.031    -3416186.232 7  -2648838.00145  24431519.032    24431527.0974
  23837537.656    -8455553.770 8  -6572496.70445  23837537.896    23837543.6974
  24018433.584    -8263277.190 7  -6154251.17945  24018432.905    24018438.3674
  24497105.624    -4642808.059 8  -3601908.31645  24497105.017    24497110.6974
  22014772.006   -16824605.295 8 -13086647.75547  22014771.831    22014775.8714
  20943721.637   -23837903.948 9 -18557595.93447  20943721.114    20943724.6824
  21173803.190   -21926498.367 9 -16805897.53147  21173803.351    21173806.4004
 00  1 21  0 54 30.0000000  0  8 24 10 30 07 16 09 05 04
  20223847.231   -26838575.628 9 -20870293.09548  20223847.052    20223850.9004
  24412523.874    -3516011.096 7  -2726623.48245  24412522.882    24412530.8524
  23818677.353    -8554664.924 8  -6649726.03845  23818677.543    23818683.3054
  24031346.705    -8195417.834 8  -6101373.74145  24031346.095    24031351.5114
  24503713.752    -4608082.069 7  -3574849.01345  24503713.232    24503718.9664
  22027264.721   -16758955.519 8 -13035492.08647  22027264.542    22027268.5654
  20933026.453   -23894107.389 9 -18601390.78147  20933025.918    20933029.5174
  21186538.100   -21859575.707 9 -16753749.99547  21186538.255    21186541.3534
 00  1 21  0 55  0.0000000  0  8 24 10 30 07 16 09 05 04
  20221651.656   -26850113.286 9 -20879283.42948  20221651.482    20221655.3114
  24393506.516    -3615947.799 7  -2804496.12945  24393505.547    24393513.3084
  23799829.912    -8653708.078 8  -6726902.37745  23799830.120    23799835.7734
  24044264.997    -8127531.997 8  -6048475.64545  24044264.323    24044269.6404
  24510421.295    -4572833.509 7  -3547382.51145  24510420.759    24510426.3764
  22039834.786   -16692899.231 8 -12984019.65947  22039834.620    22039838.6454
  20922393.732   -23949982.339 9 -18644929.66847  20922393.219    20922396.7944
  21199348.811   -21792254.973 9 -16701292.27247  21199348.976    21199352.0714
 00  1 21  0 55 30.0000000  0  8 24 10 30 07 16 09 05 04
  20219560.201   -26861103.727 9 -20887847.35748  20219560.050    20219563.8554
  24374469.201    -3715988.905 7  -2882450.12145  24374468.347    24374475.9294
  23780993.949    -8752691.065 8  -6804031.82545  23780994.161    23780999.7124
  24057191.867    -8059600.831 8  -5995542.22545  24057191.333    24057196.4834
  24517227.868    -4537064.036 7  -3519510.12645  24517227.396    24517233.1544
  22052481.192   -16626442.021 8 -12932234.81947  22052481.015    22052485.0264
  20911827.181   -24005509.639 9 -18688197.65547  20911826.674    20911830.2334
  21212236.823   -21724528.004 9 -16648517.99447  21212237.004    21212240.0644
 00  1 21  0 56  0.0000000  0  8 24 10 30 07 16 09 05 04
  20217572.970   -26871546.600 9 -20895984.61348  20217572.806    20217576.5944
  24355415.710    -3816114.165 7  -2960469.67545  24355414.898    24355422.5414
  23762172.146    -8851599.510 8  -6881103.16145  23762172.331    23762177.9534
  24070128.663    -7991617.774 7  -5942568.37345  24070128.107    24070133.2794
  24524136.619    -4500757.709 7  -3491219.38545  24524136.094    24524141.9414
  22065201.482   -16559596.716 8 -12880147.56547  22065201.289    22065205.3114
  20901329.606   -24060674.766 9 -18731183.42447  20901329.091    20901332.6184
  21225204.048   -21656384.774 9 -16595419.35947  21225204.187    21225207.2304
 00  1 21  0 56 30.0000000  0  8 24 10 30 07 16 09 05 04
  20215687.634   -26881453.720 9 -20903704.39848  20215687.471    20215691.2534
  24336350.258    -3916302.936 7  -3038538.71645  24336349.406    24336356.9594
  23743368.096    -8950415.049 7  -6958102.11745  23743368.229    23743373.8724
  24083076.447    -7923576.274 8  -5889549.00745  24083075.834    24083080.9914
  24531149.044    -4463906.444 7  -3462504.05245  24531148.561    24531154.4774
  22077993.268   -16492375.361 8 -12827767.28147  22077993.073    22077997.1424
  20890903.421   -24115464.845 9 -18773876.95147  20890902.889    20890906.4044
  21238246.480   -21587846.124 9 -16542012.60447  21238246.638    21238249.6794
 00  1 21  0 57  0.0000000  0  8 24 10 30 07 16 09 05 04
  20213900.794   -26890843.205 9 -20911020.83248  20213900.628    20213904.4124
  24317274.980    -4016543.294 7  -3116647.94245  24317274.032    24317281.7594
  23724579.430    -9049149.152 7  -7035037.61345  23724579.595    23724585.1054
  24096034.415    -7855481.480 7  -5836488.06545  24096033.794    24096038.9314
  24538264.801    -4426512.606 7  -3433365.91945  24538264.313    24538270.0704
  22090852.012   -16424802.252 8 -12775112.90447  22090851.851    22090855.8914
  20880549.234   -24169876.238 9 -18816275.39148  20880548.697    20880552.2194
  21251362.356   -21518921.891 9 -16488305.40047  21251362.478    21251365.5254
 00  1 21  0 57 30.0000000  0  8 24 10 30 07 16 09 05 04
  20212211.428   -26899720.714 9 -20917938.32448  20212211.267    20212215.0374
  24298194.786    -4116809.851 7  -3194777.57845  24298193.881    24298201.5014
  23705807.277    -9147796.935 7  -7111905.83645  23705807.421    23705812.7874
  24108998.571    -7787353.980 7  -5783401.68745  24108997.998    24109002.9634
  24545481.928    -4388585.544 7  -3403812.33145  24545481.377    24545487.1474
  22103776.101   -16356886.000 8 -12722191.13847  22103775.915    22103779.9584
  20870265.036   -24223919.738 9 -18858387.16448  20870264.517    20870268.0524
  21264548.886   -21449626.249 9 -16434308.78047  21264549.019    21264552.0324
 00  1 21  0 58  0.0000000  0  8 24 10 30 07 16 09 05 04
  20210617.071   -26908099.092 9 -20924466.88748  20210616.891    20210620.6294
  24279111.416    -4217093.259 7  -3272920.31445  24279110.571    24279117.9384
  23687054.000    -9246345.509 8  -7188696.73545  23687054.164    23687059.3344
  24121966.131    -7719209.405 7  -5730301.97445  24121965.541    24121970.4474
  24552799.320    -4350131.103 7  -3373847.77545  24552798.820    24552804.8114
  22116765.590   -16288625.811 8 -12669001.36747  22116765.412    22116769.4234
  20860046.634   -24277617.545 9 -18900229.56248  20860046.121    20860049.6414
  21277802.665   -21379977.029 9 -16380036.64147  21277802.804    21277805.8084
 00  1 21  0 58 30.0000000  0  8 24 10 30 07 16 09 05 04
  20209116.820   -26915982.979 9 -20930610.13048  20209116.640    20209120.3504
  24260023.500    -4317400.833 7  -3351081.85845  24260022.695    24260030.0494
  23668316.104    -9344812.496 8  -7265424.07045  23668316.366    23668321.4854
  24134932.997    -7651067.836 7  -5677204.61445  24134932.384    24134937.2764
  24560211.613    -4311179.130 7  -3343495.55245  24560211.050    24560217.0514
  22129820.251   -16220023.008 8 -12615544.62047  22129820.074    22129824.0874
  20849890.071   -24330990.488 9 -18941818.81948  20849889.552    20849893.0534
  21291119.905   -21309994.442 9 -16325504.74147  21291120.044    21291123.0344
 00  1 21  0 59  0.0000000  0  8 24 10 30 07 16 09 05 04
  20207712.653   -26923361.835 9 -20936359.85048  20207712.462    20207716.1604
  24240928.757    -4417743.895 7  -3429271.05845  24240927.995    24240935.1244
  23649592.992    -9443202.447 8  -7342091.38245  23649593.258    23649598.2924
  24147897.905    -7582937.285 7  -5624115.85645  24147897.149    24147902.1164
  24567715.602    -4271745.888 7  -3312768.27745  24567715.045    24567720.9004
  22142942.549   -16151064.852 8 -12561810.97047  22142942.350    22142946.3944
  20839791.809   -24384056.948 9 -18983169.25348  20839791.283    20839794.7834
  21304503.536   -21239663.010 9 -16270701.01647  21304503.679    21304506.6594
 00  1 21  0 59 30.0000000  0  7 24 10 30 07 09 05 04
  20206404.160   -26930237.789 9 -20941717.70148  20206403.978    20206407.6494
  24221826.926    -4518124.049 7  -3507489.14245  24221826.239    24221833.1544
  23630882.777    -9541524.965 8  -7418706.15745  23630882.911    23630887.9234
  24160861.383    -7514813.151 7  -5571032.08345  24160860.674    24160865.8194
  22156132.952   -16081748.372 8 -12507798.10947  22156132.789    22156136.8514
  20829748.999   -24436832.108 9 -19024292.70348  20829748.465    20829751.9574
  21317951.920   -21168991.166 9 -16215632.03647  21317952.059    21317955.0604
 00  1 21  1  0  0.0000000  0  7 24 10 30 07 09 05 04
  20205191.795   -26936608.728 9 -20946682.03248  20205191.607    20205195.2554
  24202716.319    -4618550.122 8  -3585742.98245  24202715.589    24202722.5154
  23612183.590    -9639789.333 8  -7495275.60445  23612183.745    23612188.8434
  24173826.493    -7446680.421 8  -5517941.61245  24173825.918    24173830.9504
  22169392.607   -16012068.396 8 -12453502.00247  22169392.449    22169396.4994
  20819763.040   -24489308.611 9 -19065183.42648  20819762.508    20819765.9964
  21331465.678   -21097975.782 9 -16160295.35947  21331465.833    21331468.8414
 00  1 21  1  0 30.0000000  0  7 24 10 30 07 09 05 04
  20204078.740   -26942457.615 9 -20951239.57348  20204078.577    20204082.2124
  24183596.478    -4719024.867 7  -3664034.74845  24183595.555    24183602.6454
  23593493.613    -9738004.788 8  -7571806.94045  23593493.785    23593498.8864
  24186794.414    -7378533.610 8  -5464840.16245  24186793.861    24186798.9264
  22182720.957   -15942027.170 8 -12398924.39747  22182720.812    22182724.8284
  20809837.726   -24541466.178 9 -19105825.63048  20809837.180    20809840.6684
  21345047.989   -21026600.160 9 -16104677.97947  21345048.141    21345051.1464
 00  1 21  1  1  0.0000000  0  8 24 10 30 07 06 09 05 04
  20203063.011   -26947795.340 9 -20955398.80948  20203062.811    20203066.4294
  24164469.206    -4819538.549 8  -3742356.84345  24164468.257    24164475.4844
  23574812.740    -9836172.958 8  -7648301.43945  23574812.947    23574817.9184
  24199765.891    -7310368.111 8  -5411724.14945  24199765.331    24199770.4284
  24857242.474    -4244657.845 7  -3291039.46845  24857242.169    24857250.2154
  22196115.829   -15871636.664 8 -12344074.62547  22196115.649    22196119.6934
  20799973.353   -24593303.514 9 -19146218.30248  20799972.829    20799976.3014
  21358698.953   -20954863.872 9 -16048779.56247  21358699.110    21358702.1134
 00  1 21  1  1 30.0000000  0  8 24 10 30 07 06 09 05 04
  20202148.677   -26952600.116 9 -20959142.76448  20202148.484    20202152.1094
  24145341.946    -4920052.438 8  -3820679.11545  24145340.869    24145348.1094
  23556145.391    -9934270.171 8  -7724740.63445  23556145.610    23556150.5664
  24212745.367    -7242160.470 8  -5358575.28745  24212744.815    24212749.9504
  24843638.436    -4316146.828 7  -3346744.95545  24843637.988    24843646.2274
  22209577.790   -15800893.511 8 -12288950.06547  22209577.610    22209581.7144
  20790176.686   -24644785.214 9 -19186333.84748  20790176.141    20790179.6054
  21372421.592   -20882751.081 9 -15992587.76847  21372421.690    21372424.6884
 00  1 21  1  2  0.0000000  0  8 24 10 30 07 06 09 05 04
  20201336.461   -26956868.074 9 -20962468.42248  20201336.276    20201339.8924
  24126211.543    -5020582.098 8  -3899013.66045  24126210.592    24126217.6804
  23537492.453   -10032291.288 8  -7801120.55445  23537492.693    23537497.6094
  24225731.276    -7173918.870 8  -5305399.97245  24225730.665    24225735.8894
  24830040.155    -4387605.451 7  -3402426.80345  24830039.902    24830047.8284
  22223104.164   -15729811.838 8 -12233561.72147  22223103.995    22223108.0844
  20780449.540   -24695901.309 9 -19226164.50548  20780449.015    20780452.4584
  21386215.444   -20810263.901 9 -15936104.23547  21386215.561    21386218.5514
 00  1 21  1  2 30.0000000  0  8 24 10 30 07 06 09 05 04
  20200627.821   -26960591.641 9 -20965369.87848  20200627.637    20200631.2474
  24107079.721    -5121119.312 8  -3977354.09645  24107078.868    24107085.9274
  23518858.828   -10130211.109 8  -7877421.54946  23518859.073    23518863.9264
  24238723.317    -7105645.586 8  -5252199.97445  24238722.721    24238727.8544
  24816447.512    -4459034.361 7  -3458085.47245  24816447.291    24816455.1154
  22236693.995   -15658396.909 8 -12177913.69647  22236693.807    22236697.8644
  20770793.398   -24746644.422 9 -19265704.52448  20770792.879    20770796.2804
  21400080.592   -20737401.959 9 -15879328.67947  21400080.712    21400083.6984
 00  1 21  1  3  0.0000000  0  8 24 10 30 07 06 09 05 04
  20200021.362   -26963778.353 9 -20967853.00948  20200021.186    20200024.7954
  24087946.619    -5221663.079 8  -4055699.64045  24087945.733    24087952.8084
  23500247.947   -10228011.158 8  -7953629.22546  23500248.267    23500253.0264
  24251723.595    -7037328.738 8  -5198966.01745  24251722.962    24251728.1154
  24802862.618    -4530422.241 7  -3513712.16945  24802862.486    24802870.2874
  22250347.501   -15586647.257 8 -12122004.84247  22250347.305    22250351.3464
  20761207.901   -24797016.479 9 -19304955.40948  20761207.375    20761210.7614
  21414014.099   -20664180.494 9 -15822272.98247  21414014.246    21414017.2134
 00  1 21  1  3 30.0000000  0  8 24 10 30 07 06 09 05 04
  20199516.357   -26966432.150 9 -20969920.88348  20199516.176    20199519.7764
  24068809.306    -5322229.479 8  -4134062.81145  24068808.321    24068815.4154
  23481658.351   -10325699.232 8  -8029749.63846  23481658.726    23481663.4994
  24264731.051    -6968973.698 8  -5145702.30545  24264730.457    24264735.5954
  24789288.906    -4601751.478 7  -3569293.17745  24789288.892    24789296.5124
  22264064.818   -15514561.963 8 -12065834.45447  22264064.629    22264068.7034
  20751694.796   -24847007.850 9 -19343909.65748  20751694.271    20751697.6464
  21428013.261   -20590614.481 9 -15764948.80047  21428013.405    21428016.3384
 00  1 21  1  4  0.0000000  0  8 24 10 30 07 06 09 05 04
  20199111.299   -26968560.651 9 -20971579.43348  20199111.116    20199114.7254
  24049668.420    -5422814.307 8  -4212440.35345  24049667.522    24049674.5514
  23463088.984   -10423281.162 8  -8105787.34946  23463089.391    23463094.0314
  24277745.899    -6900580.311 7  -5092408.71145  24277745.346    24277750.4234
  24775727.621    -4673016.173 7  -3624823.85945  24775727.561    24775735.1354
  22277848.533   -15442127.910 8 -12009392.30347  22277848.366    22277852.4164
  20742254.479   -24896616.766 9 -19382565.89048  20742253.946    20742257.3164
  21442076.290   -20516712.973 9 -15707363.19447  21442076.419    21442079.3294
 00  1 21  1  4 30.0000000  0  8 24 10 30 07 06 09 05 04
  20198805.011   -26970170.096 9 -20972833.53048  20198804.818    20198808.4304
  24030527.039    -5523401.514 8  -4290819.75345  24030526.223    24030533.2494
  23444537.946   -10520767.250 8  -8181750.38246  23444538.304    23444542.9334
  24290768.175    -6832147.728 7  -5039084.58645  24290767.532    24290772.7414
  24762178.991    -4744213.768 7  -3680302.24645  24762178.880    24762186.4484
  22291700.823   -15369333.596 8 -11952669.43047  22291700.637    22291704.7164
  20732884.748   -24945854.688 9 -19420933.03748  20732884.213    20732887.5874
  21456200.606   -20442489.030 9 -15649526.34147  21456200.751    21456203.6674
 00  1 21  1  5  0.0000000  0  8 24 10 30 07 06 09 05 04
  20198597.313   -26971261.536 9 -20973683.97748  20198597.132    20198600.7224
  24011385.227    -5623991.472 7  -4369201.29845  24011384.465    24011391.3664
  23426000.525   -10618181.186 8  -8257657.18145  23426000.868    23426005.5534
  24303798.785    -6763671.174 7  -4985726.18645  24303798.150    24303803.2704
  24748643.910    -4815339.846 7  -3735724.91745  24748643.821    24748651.4244
  22305620.311   -15296186.000 8 -11895671.26547  22305620.121    22305624.1874
  20723586.105   -24994719.272 9 -19459009.26948  20723585.570    20723588.8964
  21470383.806   -20367955.705 9 -15591448.41047  21470383.972    21470386.9024
 00  1 21  1  5 30.0000000  0  8 24 10 30 07 06 09 05 04
  20198489.239   -26971829.293 9 -20974126.36748  20198489.047    20198492.6504
  23992245.951    -5724568.027 7  -4447572.39745  23992245.135    23992252.0954
  23407476.468   -10715525.214 8  -8333509.51945  23407476.821    23407481.4264
  24316834.884    -6695165.657 7  -4932345.23045  24316834.266    24316839.3654
  24735121.245    -4886400.959 7  -3791096.98345  24735121.272    24735128.7814
  22319606.491   -15222688.074 8 -11838400.12347  22319606.298    22319610.3974
  20714360.866   -25043198.144 9 -19496784.95348  20714360.317    20714363.6074
  21484626.362   -20293110.470 9 -15533127.43547  21484626.513    21484629.4654
 00  1 21  1  6  0.0000000  0  8 24 10 30 07 06 09 05 04
  20198483.091   -26971861.555 9 -20974151.48148  20198482.891    20198486.4844
  23973110.926    -5825122.677 7  -4525926.44245  23973110.102    23973116.9134
  23388968.955   -10812782.343 8  -8409294.15245  23388969.244    23388973.8554
  24329876.382    -6626632.242 7  -4878942.53145  24329875.808    24329880.8484
  24721608.546    -4957410.396 7  -3846428.76145  24721608.517    24721615.9254
  22333657.256   -15148850.424 8 -11780864.25747  22333657.081    22333661.1994
  20705208.857   -25091292.006 9 -19534260.63048  20705208.303    20705211.5714
  21498930.453   -20217942.045 9 -15474554.61947  21498930.580    21498933.5224
 00  1 21  1  6 30.0000000  0  8 24 10 30 07 06 09 05 04
  20198579.099   -26971357.008 9 -20973758.30248  20198578.915    20198582.4954
  23953980.716    -5925652.253 7  -4604260.97145  23953979.915    23953986.5664
  23370482.441   -10909929.541 8  -8484993.12645  23370482.682    23370487.1654
  24342923.315    -6558070.130 7  -4825517.48745  24342922.645    24342927.7594
  24708106.100    -5028365.417 7  -3901718.14345  24708105.984    24708113.3404
  22347770.536   -15074684.474 8 -11723072.57047  22347770.351    22347774.4454
  20696130.776   -25138997.260 9 -19571433.49948  20696130.227    20696133.5064
  21513298.157   -20142439.144 9 -15415721.17147  21513298.264    21513301.2434
 00  1 21  1  7  0.0000000  0  8 24 10 30 07 06 09 05 04
  20198775.715   -26970323.827 9 -20972953.19848  20198775.519    20198779.1154
  23934855.619    -6026154.492 7  -4682574.19345  23934854.745    23934861.4034
  23352019.957   -11006949.921 8  -8560593.27745  23352020.113    23352024.6484
  24355973.181    -6489492.372 7  -4772080.24045  24355972.511    24355977.5504
  24694616.073    -5099255.747 7  -3956957.14345  24694615.904    24694623.1384
  22361944.140   -15000201.525 8 -11665033.88047  22361943.968    22361948.0384
  20687126.965   -25186312.236 9 -19608302.25848  20687126.441    20687129.7164
  21527730.691   -20066595.325 9 -15356622.07347  21527730.822    21527733.8174
 00  1 21  1  7 30.0000000  0  8 24 10 30 07 06 09 05 04
  20199070.774   -26968772.894 9 -20971744.65348  20199070.584    20199074.1794
  23915735.667    -6126629.129 7  -4760865.91845  23915734.862    23915741.5374
  23333584.673   -11103827.072 8  -8636081.82845  23333584.856    23333589.3904
  24369023.942    -6420909.688 7  -4718639.14945  24369023.226    24369028.3854
  24681134.876    -5170097.540 7  -4012158.28145  24681134.736    24681142.1224
  22376176.642   -14925409.241 8 -11606754.14547  22376176.486    22376180.4964
  20678194.435   -25233252.566 9 -19644879.08748  20678193.904    20678197.1734
  21542229.901   -19990401.361 9 -15297250.13647  21542230.035    21542233.0314
 00  1 21  1  8  0.0000000  0  8 24 10 30 07 06 09 05 04
  20199461.696   -26966718.690 9 -20970143.94748  20199461.504    20199465.0754
  23896618.563    -6227088.840 7  -4839146.02045  23896617.706    23896624.4144
  23315176.761   -11200561.017 8  -8711458.79145  23315176.939    23315181.4484
  24382079.083    -6352303.737 7  -4665179.93545  24382078.369    24382083.4744
  24667662.205    -5240895.094 7  -4067324.98245  24667662.303    24667669.5124
  22390465.796   -14850319.050 8 -11548242.27747  22390465.623    22390469.6004
  20669330.013   -25279835.370 9 -19681177.33148  20669329.481    20669332.7104
  21556795.062   -19913860.899 9 -15237608.20147  21556795.201    21556798.1994
 00  1 21  1  8 30.0000000  0  8 24 10 30 07 06 09 05 04
  20199945.023   -26964178.593 9 -20968164.62048  20199944.829    20199948.3794
  23877502.004    -6327545.947 8  -4917424.11045  23877501.200    23877507.8354
  23296793.002   -11297168.300 8  -8786737.08545  23296793.126    23296797.5404
  24395140.372    -6283665.928 7  -4611695.91045  24395139.736    24395144.8174
  24654196.470    -5311656.652 7  -4122463.67145  24654196.556    24654203.7834
  22404811.407   -14774932.242 8 -11489499.28047  22404811.212    22404815.1964
  20660531.982   -25326069.030 9 -19717203.51148  20660531.442    20660534.6624
  21571422.147   -19836995.142 9 -15177712.78747  21571422.285    21571425.2484
 00  1 21  1  9  0.0000000  0  8 24 10 30 07 06 09 05 04
  20200520.564   -26961154.012 9 -20965807.77048  20200520.391    20200523.9274
  23858385.296    -6428004.162 8  -4995703.08145  23858384.504    23858390.9874
  23278428.767   -11393672.231 8  -8861934.84445  23278428.939    23278433.2204
  24408209.684    -6214985.660 7  -4558178.77645  24408209.179    24408214.0864
  24640735.508    -5382393.630 7  -4177583.22345  24640735.534    24640742.8904
  22419210.374   -14699265.009 8 -11430537.77047  22419210.164    22419214.2084
  20651800.655   -25371952.337 9 -19752956.69248  20651800.126    20651803.3394
  21586108.907   -19759815.462 9 -15117572.75547  21586109.048    21586112.0134
 00  1 21  1  9 30.0000000  0  8 24 10 30 07 06 09 05 04
  20201188.523   -26957643.716 9 -20963072.44348  20201188.339    20201191.8834
  23839268.640    -6528462.367 8  -5073982.05545  23839267.879    23839274.2204
  23260081.873   -11490085.008 8  -8937061.56845  23260082.090    23260086.2884
  24421291.152    -6146242.138 7  -4504612.36645  24421290.642    24421295.6554
  24627276.327    -5453121.405 7  -4232695.63345  24627276.371    24627283.6724
  22433661.408   -14623323.915 8 -11371362.86547  22433661.229    22433665.2714
  20643139.294   -25417468.055 9 -19788423.44248  20643138.782    20643141.9704
  21600854.808   -19682325.161 9 -15057190.68347  21600854.939    21600857.8964
 00  1 21  1 10  0.0000000  0  8 24 10 30 07 06 09 05 04
  20201948.527   -26953649.519 9 -20959960.04748  20201948.342    20201951.8834
  23820154.475    -6628907.713 8  -5152251.01645  23820153.651    23820159.7984
  23241749.794   -11586420.731 8  -9012128.27646  23241749.962    23241754.0744
  24434385.604    -6077430.134 7  -4450992.61745  24434385.067    24434390.0304
  24613819.824    -5523836.303 8  -4287798.00745  24613819.777    24613826.9394
  22448166.254   -14547100.445 8 -11311967.93147  22448166.078    22448170.0814
  20634552.366   -25462592.532 9 -19823585.32648  20634551.837    20634555.0114
  21615657.640   -19604535.694 9 -14996575.49347  21615657.781    21615660.7494
 00  1 21  1 10 30.0000000  0  8 24 10 30 07 06 09 05 04
  20202802.797   -26949159.959 9 -20956461.65348  20202802.611    20202806.1594
  23801047.649    -6729314.482 8  -5230489.91745  23801046.779    23801052.8274
  23223432.031   -11682680.596 8  -9087135.85346  23223432.223    23223436.2534
  24447489.631    -6008567.740 7  -4397333.59645  24447488.936    24447494.0204
  24600367.086    -5594530.679 8  -4342884.41145  24600367.020    24600374.0224
  22462726.456   -14470585.952 8 -11252346.22347  22462726.288    22462730.2674
  20626042.386   -25507312.778 9 -19858432.23248  20626041.859    20626045.0044
  21630517.518   -19526446.595 8 -14935726.82147  21630517.654    21630520.6144
 00  1 21  1 11  0.0000000  0  8 24 10 30 07 06 09 05 04
  20203751.234   -26944175.786 9 -20952577.84748  20203751.064    20203754.5984
  23781952.906    -6829657.802 8  -5308679.37845  23781951.967    23781957.9974
  23205132.496   -11778844.988 8  -9162069.05646  23205132.611    23205136.7394
  24460599.291    -5939675.923 7  -4343651.62245  24460598.720    24460603.5374
  24586920.441    -5665192.695 8  -4397945.60445  24586920.439    24586927.2944
  22477342.404   -14393778.794 8 -11192496.46347  22477342.210    22477346.1464
  20617610.348   -25551622.939 9 -19892959.59148  20617609.846    20617612.9754
  21645435.558   -19448051.729 8 -14874639.89347  21645435.677    21645438.6324
 00  1 21  1 11 30.0000000  0  8 24 10 30 07 06 09 05 04
  20204792.647   -26938703.078 9 -20948313.36448  20204792.463    20204795.9914
  23762870.630    -6929935.848 8  -5386817.99045  23762869.698    23762875.5604
  23186854.889   -11874893.736 8  -9236912.12846  23186855.015    23186859.2244
  24473709.680    -5870779.890 7  -4289966.38045  24473709.173    24473714.1184
  24573479.617    -5735824.468 8  -4452983.21645  24573479.554    24573486.2814
  22492017.486   -14316660.405 8 -11132404.18946  22492017.300    22492021.2254
  20609254.331   -25595534.120 9 -19927176.06048  20609253.811    20609256.9244
  21660410.746   -19369356.348 8 -14813318.79947  21660410.899    21660413.8294
 00  1 21  1 12  0.0000000  0  8 24 10 30 07 06 09 05 04
  20205927.407   -26932739.905 9 -20943666.69848  20205927.208    20205930.7224
  23743801.070    -7030146.076 8  -5464903.75645  23743800.170    23743805.9904
  23168603.224   -11970806.445 8  -9311649.19846  23168603.360    23168607.5884
  24486817.995    -5801895.317 7  -4236290.08245  24486817.449    24486822.2514
  24560044.376    -5806426.724 7  -4507997.82745  24560044.315    24560050.9154
  22506750.511   -14239237.530 8 -11072074.65246  22506750.361    22506754.2314
  20600971.173   -25639062.192 9 -19961094.00048  20600970.655    20600973.7474
  21675442.012   -19290366.357 8 -14751768.13447  21675442.174    21675445.0934
 00  1 21  1 12 30.0000000  0  8 24 10 30 07 06 09 05 04
  20207156.360   -26926281.584 9 -20938634.20748  20207156.167    20207159.6704
  23724741.055    -7130306.195 8  -5542950.47945  23724740.155    23724746.0024
  23150382.476   -12066556.600 8  -9386259.60646  23150382.624    23150386.8404
  24499921.686    -5733034.801 7  -4182632.52345  24499921.178    24499926.0454
  24546616.270    -5876991.179 7  -4562982.96945  24546616.142    24546622.7934
  22521538.029   -14161528.592 8 -11011522.21746  22521537.834    22521541.6984
  20592757.841   -25682223.389 9 -19994726.06748  20592757.321    20592760.3864
  21690529.865   -19211079.013 8 -14689985.76547  21690530.048    21690533.0094
 00  1 21  1 13  0.0000000  0  8 24 10 30 07 06 09 05 04
  20208479.407   -26919328.867 9 -20933216.47248  20208479.221    20208482.7374
  23705686.753    -7230436.184 8  -5620973.72045  23705685.896    23705691.8254
  23132193.155   -12162141.549 8  -9460741.29146  23132193.376    23132197.5344
  24513021.229    -5664196.416 7  -4128992.19745  24513020.489    24513025.3824
  24533197.385    -5947506.675 7  -4617929.92945  24533197.351    24533203.9354
  22536377.413   -14083546.938 8 -10950757.28046  22536377.221    22536381.1034
  20584614.785   -25725015.361 9 -20028070.42948  20584614.238    20584617.2924
  21705674.143   -19131495.211 8 -14627972.40147  21705674.314    21705677.3054
 00  1 21  1 13 30.0000000  0  8 24 10 30 07 06 09 05 04
  20209898.876   -26911869.431 9 -20927403.89348  20209898.678    20209902.1914
  23686637.762    -7330538.403 8  -5698975.34145  23686636.923    23686642.8954
  23114034.102   -12257567.466 8  -9535099.04146  23114034.297    23114038.5224
  24526119.350    -5595365.220 7  -4075357.46045  24526118.791    24526123.3564
  24519785.731    -6017984.303 7  -4672847.37145  24519785.676    24519792.3444
  22551264.746   -14005313.443 8 -10889796.10546  22551264.554    22551268.4064
  20576543.017   -25767432.688 9 -20061122.85948  20576542.476    20576545.5224
  21720874.388   -19051617.407 8 -14565729.94047  21720874.561    21720877.5484
 00  1 21  1 14  0.0000000  0  8 24 10 30 07 06 09 05 04
  20211416.554   -26903893.638 9 -20921188.95548  20211416.368    20211419.8604
  23667594.822    -7430608.739 8  -5776952.09545  23667594.066    23667600.0554
  23095905.308   -12352834.428 8  -9609332.91346  23095905.528    23095909.7674
  24539220.341    -5526519.060 7  -4021711.07045  24539219.762    24539224.3544
  24506385.452    -6088402.533 7  -4727718.52645  24506385.392    24506391.9734
  22566199.150   -13926832.557 8 -10828642.15046  22566198.966    22566202.7904
  20568546.881   -25809452.495 9 -20093865.52848  20568546.352    20568549.4024
  21736130.437   -18971446.108 8 -14503258.77647  21736130.600    21736133.6224
 00  1 21  1 14 30.0000000  0  8 24 10 30 07 06 09 05 04
  20213032.586   -26895401.231 9 -20914571.46448  20213032.399    20213035.8734
  23648559.251    -7530640.755 8  -5854898.99945  23648558.404    23648564.5224
  23077804.301   -12447955.338 8  -9683452.98646  23077804.509    23077808.7754
  24552326.164    -5457647.913 7  -3968045.21745  24552325.358    24552330.0414
  24493000.023    -6158743.060 7  -4782529.13945  24492999.890    24493006.3934
  22581183.194   -13848090.998 8 -10767285.07646  22581183.022    22581186.8504
  20560628.626   -25851063.112 9 -20126289.35148  20560628.084    20560631.1434
  21751442.225   -18890981.928 8 -14440559.39747  21751442.410    21751445.4044
 00  1 21  1 15  0.0000000  0  8 24 10 30 07 06 09 05 04
  20214745.467   -26886399.834 9 -20907557.35648  20214745.283    20214748.7464
  23629532.845    -7630624.592 8  -5932808.35545  23629532.055    23629538.1174
  23059728.743   -12542942.432 8  -9757468.79246  23059728.972    23059733.1914
  24565441.591    -5388725.633 7  -3914339.51745  24565440.829    24565445.4894
  24479626.444    -6229021.241 7  -4837291.14045  24479626.267    24479632.5964
  22596219.857   -13769072.420 8 -10705712.15046  22596219.683    22596223.5654
  20552790.650   -25892251.715 9 -20158384.33348  20552790.119    20552793.1904
  21766808.548   -18810231.332 8 -14377636.83047  21766808.702    21766811.6834
 00  1 21  1 15 30.0000000  0  8 24 10 30 07 06 09 05 04
  20216554.359   -26876893.825 9 -20900150.05148  20216554.181    20216557.6404
  23610516.302    -7730556.747 8  -6010677.45545  23610515.540    23610521.5534
  23041681.425   -12637780.812 8  -9831368.69846  23041681.726    23041685.9424
  24578568.584    -5319743.657 7  -3860587.30345  24578567.800    24578572.3564
  24466260.473    -6299259.018 7  -4892021.63945  24466260.211    24466266.7754
  22611312.664   -13689759.042 8 -10643909.51846  22611312.494    22611316.3874
  20545034.206   -25933011.887 9 -20190145.47348  20545033.679    20545036.7594
  21782227.356   -18729204.690 8 -14314499.16747  21782227.538    21782230.5074
 00  1 21  1 16  0.0000000  0  8 24 10 30 07 06 09 05 04
  20218457.977   -26866890.247 9 -20892355.02348  20218457.783    20218461.2364
  23591507.953    -7830446.275 8  -6088513.32345  23591507.170    23591513.1004
  23023661.132   -12732477.512 8  -9905158.20746  23023661.491    23023665.6974
  24591705.911    -5250706.424 7  -3806792.02945  24591705.257    24591709.7804
  24452902.633    -6369454.098 7  -4946718.85645  24452902.477    24452908.8494
  22626463.636   -13610140.277 8 -10581868.91046  22626463.475    22626467.3204
  20537359.754   -25973341.304 9 -20221570.95948  20537359.222    20537362.2854
  21797698.108   -18647905.389 8 -14251149.03647  21797698.257    21797701.2264
 00  1 21  1 16 30.0000000  0  7 24 10 30 06 09 05 04
  20220451.317   -26856415.224 9 -20884192.63748  20220451.133    20220454.5594
  23572503.798    -7930313.329 8  -6166331.67445  23572503.006    23572508.8914
  23005662.675   -12827059.704 8  -9978858.50146  23005662.941    23005667.1924
  24439544.392    -6439651.457 7  -5001417.82145  24439544.306    24439550.5394
  22641666.470   -13530248.725 8 -10519615.74746  22641666.271    22641670.1424
  20529762.023   -26013267.528 9 -20252682.26648  20529761.502    20529764.5614
  21813217.024   -18566352.871 8 -14187601.60247  21813217.134    21813220.1104
 00  1 21  1 17  0.0000000  0  7 24 10 30 06 09 05 04
  20222543.911   -26845418.586 9 -20875623.80448  20222543.724    20222547.1574
  23553514.573    -8030101.667 8  -6244088.68245  23553513.852    23553519.6664
  22987695.643   -12921476.840 8 -10052430.17846  22987695.919    22987700.0914
  24426190.849    -6509823.786 7  -5056097.28745  24426190.780    24426196.9544
  22656926.575   -13450056.106 8 -10457127.99846  22656926.406    22656930.2824
  20522251.582   -26052735.089 9 -20283436.17548  20522251.051    20522254.1064
  21828792.086   -18484505.170 8 -14123824.14847  21828792.222    21828795.1914
 00  1 21  1 17 30.0000000  0  7 24 10 30 06 09 05 04
  20224738.106   -26833887.841 9 -20866638.78048  20224737.905    20224741.3284
  23534547.579    -8129772.884 8  -6321754.42045  23534546.903    23534552.7384
  22969761.812   -13015719.235 8 -10125865.69146  22969762.095    22969766.1874
  24412844.963    -6579955.692 7  -5110745.24945  24412844.940    24412851.0204
  22672243.930   -13369562.820 8 -10394405.96246  22672243.772    22672247.6714
  20514829.530   -26091737.920 9 -20313827.95348  20514829.000    20514832.0614
  21844425.943   -18402348.773 8 -14059806.15647  21844426.078    21844429.0464
 00  1 21  1 18  0.0000000  0  7 24 10 30 06 09 05 04
  20227031.234   -26821837.111 9 -20857248.57148  20227031.038    20227034.4414
  23515606.494    -8229308.547 8  -6399314.51445  23515605.765    23515611.5264
  22951857.922   -13109804.775 8 -10199178.97646  22951858.160    22951862.1674
  24399508.030    -6650040.882 7  -5165356.81145  24399507.932    24399513.9884
  22687612.383   -13288801.091 8 -10331474.73846  22687612.223    22687616.1044
  20507493.345   -26130289.782 9 -20343868.32648  20507492.818    20507495.8754
  21860117.752   -18319887.562 8 -13995550.64147  21860117.885    21860120.8764
 00  1 21  1 18 30.0000000  0  7 24 10 30 06 09 05 04
  20229418.812   -26809290.218 9 -20847471.74248  20229418.615    20229422.0254
  23496691.180    -8328709.202 8  -6476769.41945  23496690.380    23496696.0404
  22933984.747   -13203728.982 8 -10272366.55346  22933984.982    22933988.8754
  24386177.011    -6720094.449 7  -5219943.74145  24386176.952    24386182.8554
  22703029.099   -13207785.990 8 -10268346.09046  22703028.900    22703032.7634
  20500238.579   -26168413.566 9 -20373575.13648  20500238.051    20500241.0854
  21875862.996   -18237145.775 8 -13931076.49747  21875863.145    21875866.0974
 00  1 21  1 19  0.0000000  0  7 24 10 30 06 09 05 04
  20231897.419   -26796265.032 9 -20837322.22048  20231897.229    20231900.6374
  23477799.028    -8427987.782 8  -6554129.17545  23477798.159    23477803.7764
  22916142.124   -13297492.148 8 -10345428.61246  22916142.335    22916146.1854
  24372851.719    -6790118.162 7  -5274507.43445  24372851.686    24372857.6674
  22718492.214   -13126527.134 8 -10205027.49846  22718492.015    22718495.8354
  20493062.178   -26206125.725 9 -20402961.19448  20493061.639    20493064.6894
  21891658.549   -18154139.422 8 -13866396.20347  21891658.700    21891661.6564
 00  1 21  1 19 30.0000000  0  7 24 10 30 06 09 05 04
  20234463.260   -26782781.424 9 -20826815.48648  20234463.063    20234466.4724
  23458924.586    -8527173.253 8  -6631416.36845  23458923.706    23458929.2924
  22898331.342   -13391087.783 8 -10418360.14446  22898331.525    22898335.3464
  24359531.024    -6860118.618 7  -5329053.01145  24359530.928    24359536.8874
  22734000.190   -13045032.323 8 -10141525.05446  22733999.970    22734003.8234
  20485960.268   -26243446.128 9 -20432041.99148  20485959.745    20485962.7934
  21907502.488   -18070879.270 8 -13801518.13447  21907502.592    21907505.5414
 00  1 21  1 20  0.0000000  0  7 24 10 30 06 09 05 04
  20237117.749   -26768831.883 9 -20815945.68348  20237117.565    20237120.9674
  23440061.062    -8626301.010 8  -6708658.58845  23440060.204    23440065.8234
  22880553.830   -13484508.167 8 -10491155.12146  22880554.052    22880557.8584
  24346215.245    -6930092.834 7  -5383578.16745  24346215.096    24346221.1664
  22749550.444   -12963315.257 8 -10077849.42046  22749550.214    22749554.0614
  20478932.544   -26280376.800 9 -20460819.09848  20478932.020    20478935.0684
  21923391.535   -17987381.393 8 -13736454.82547  21923391.632    21923394.6074
 00  1 21  1 20 30.0000000  0  7 24 10 30 06 09 05 04
  20239862.761   -26754406.543 9 -20804705.12948  20239862.565    20239865.9914
  23421206.066    -8725383.655 8  -6785865.64445  23421205.277    23421210.8584
  22862811.368   -13577744.983 8 -10563807.06446  22862811.555    22862815.3364
  24332906.338    -7000030.851 8  -5438075.13845  24332906.190    24332912.1814
  22765145.282   -12881363.665 8 -10013991.05246  22765145.068    22765148.9264
  20471981.384   -26316905.266 9 -20489282.79848  20471980.863    20471983.8964
  21939326.616   -17903641.789 8 -13671203.15847  21939326.730    21939329.6934
 00  1 21  1 21  0.0000000  0  7 24 10 30 06 09 05 04
  20242699.561   -26739498.813 9 -20793088.68948  20242699.371    20242702.7944
  23402362.795    -8824405.212 8  -6863025.09446  23402361.942    23402367.5194
  22845102.489   -13670805.281 8 -10636321.45546  22845102.705    22845106.3574
  24319607.303    -7069917.298 8  -5492531.95645  24319607.056    24319613.0554
  22780782.789   -12799187.651 8  -9949957.80046  22780782.632    22780786.4634
  20465109.891   -26353015.225 9 -20517420.39148  20465109.350    20465112.3514
  21955309.379   -17819651.422 8 -13605756.09447  21955309.496    21955312.4614
 00  1 21  1 21 30.0000000  0  7 24 10 30 06 09 05 04
  20245629.376   -26724102.363 9 -20781091.42348  20245629.193    20245632.6164
  23383535.631    -8923342.083 8  -6940118.56546  23383534.755    23383540.2494
  22827426.042   -13763695.450 8 -10708703.27346  22827426.212    22827429.8024
  24306320.010    -7139741.457 8  -5546940.23745  24306319.805    24306325.7644
  22796461.283   -12716796.686 8  -9885757.05046  22796461.118    22796464.9474
  20458321.304   -26388689.481 9 -20545218.46648  20458320.749    20458323.7144
  21971339.873   -17735410.324 8 -13540113.65647  21971340.008    21971343.0254
 00  1 21  1 22  0.0000000  0  7 24 10 30 06 09 05 04
  20248651.035   -26708223.299 9 -20768718.10048  20248650.841    20248654.2594
  23364729.904    -9022165.537 8  -7017123.65346  23364729.145    23364734.5874
  22809780.232   -13856424.525 8 -10780959.56246  22809780.368    22809783.8784
  24293047.977    -7209485.622 8  -5601286.19745  24293047.773    24293053.7344
  22812180.881   -12634189.437 8  -9821387.77546  22812180.696    22812184.5954
  20451618.339   -26423913.580 9 -20572665.77748  20451617.770    20451620.7344
  21987418.825   -17650914.948 8 -13474273.08347  21987418.947    21987421.9534
 00  1 21  1 22 30.0000000  0  7 24 10 30 06 09 05 04
  20251759.317   -26691889.007 9 -20755990.04948  20251759.119    20251762.5514
  23345949.589    -9120856.060 8  -7094025.16246  23345948.806    23345954.2764
  22792163.424   -13949000.772 8 -10853096.77946  22792163.584    22792167.0944
  24279788.743    -7279162.521 8  -5655579.74845  24279788.503    24279794.4554
  22827940.629   -12551371.339 8  -9756854.21146  22827940.456    22827944.3754
  20445001.678   -26458684.370 9 -20599759.85648  20445001.130    20445004.0804
  22003545.161   -17566170.457 8 -13408238.39147  22003545.302    22003548.2564
 00  1 21  1 23  0.0000000  0  7 24 10 30 06 09 05 04
  20254954.598   -26675097.516 9 -20742905.74548  20254954.417    20254957.8254
  23327194.585    -9219413.456 8  -7170822.93646  23327193.760    23327199.2064
  22774576.393   -14041420.568 8 -10925112.07146  22774576.569    22774580.0994
  24266538.161    -7348794.410 8  -5709838.23745  24266537.975    24266543.7774
  22843739.145   -12468349.591 8  -9692161.95046  22843738.968    22843742.8644
  20438471.534   -26493000.284 9 -20626499.49348  20438470.991    20438473.9254
  22019717.259   -17481185.503 8 -13342016.32547  22019717.387    22019720.3064
 00  1 21  1 23 30.0000000  0  7 24 10 30 06 09 05 04
  20258237.005   -26657848.481 9 -20729464.90848  20258236.805    20258240.1904
  23308463.349    -9317846.103 8  -7247523.51246  23308462.557    23308467.9284
  22757022.131   -14133668.121 8 -10996993.15546  22757022.331    22757025.8284
  24253292.943    -7418397.855 8  -5764074.54845  24253292.695    24253298.5334
  22859580.397   -12385103.673 8  -9627295.01146  22859580.172    22859584.0804
  20432025.897   -26526872.026 9 -20652893.01748  20432025.363    20432028.2934
  22035934.650   -17395962.229 8 -13275608.55347  22035934.810    22035937.7424
 00  1 21  1 24  0.0000000  0  7 24 10 30 06 09 05 04
  20261606.936   -26640139.347 9 -20715665.55848  20261606.732    20261610.0804
  23289755.408    -9416156.343 8  -7324128.71246  23289754.579    23289759.9044
  22739502.860   -14225731.848 8 -11068730.99546  22739503.050    22739506.5624
  24240050.211    -7487987.934 8  -5818300.45345  24240050.043    24240055.8824
  22875466.865   -12301619.662 8  -9562242.54446  22875466.654    22875470.5494
  20425661.828   -26560315.305 9 -20678952.68148  20425661.309    20425664.2094
  22052196.330   -17310506.633 8 -13209019.75447  22052196.482    22052199.3684
 00  1 21  1 24 30.0000000  0  7 24 10 30 06 09 05 04
  20265067.027   -26621956.429 9 -20701497.02448  20265066.816    20265070.1584
  23271070.198    -9514347.004 8  -7400640.75046  23271069.364    23271074.5974
  22722018.892   -14317610.616 8 -11140324.72546  22722019.064    22722022.5124
  24226807.215    -7557579.623 8  -5872527.62245  24226807.101    24226812.9254
  22891398.739   -12217896.999 8  -9497004.11346  22891398.545    22891402.4204
  20419376.469   -26593344.986 9 -20704690.05848  20419375.930    20419378.8364
  22068500.403   -17224828.253 8 -13142257.35647  22068500.515    22068503.3614
 00  1 21  1 25  0.0000000  0  7 24 10 30 06 09 05 04
  20268617.832   -26603296.459 9 -20686956.75848  20268617.628    20268620.9964
  23252407.587    -9612418.856 8  -7477060.21846  23252406.844    23252411.9574
  22704571.791   -14409295.368 8 -11211767.27046  22704571.942    22704575.3584
  24213566.014    -7627162.181 8  -5926747.65045  24213565.847    24213571.6284
  22907377.000   -12133930.856 8  -9431575.96146  22907376.773    22907380.6364
  20413168.189   -26625969.560 9 -20730111.76748  20413167.638    20413170.5494
  22084847.542   -17138923.844 8 -13075318.83346  22084847.618    22084850.4234
 00  1 21  1 25 30.0000000  0  7 24 10 30 06 09 05 04
  20272256.271   -26584176.265 9 -20672057.87848  20272256.079    20272259.4144
  23233767.857    -9710370.555 8  -7553386.06646  23233767.108    23233772.1834
  22687160.614   -14500790.904 8 -11283062.37946  22687160.815    22687164.2014
  24200327.272    -7696732.059 8  -5980957.79845  24200327.063    24200332.8124
  22923398.874   -12049735.146 8  -9365968.93246  22923398.661    22923402.5094
  20407035.937   -26658194.560 9 -20755222.12248  20407035.423    20407038.2934
  22101237.613   -17052793.543 8 -13008204.28946  22101237.702    22101240.4764
 00  1 21  1 26  0.0000000  0  7 24 10 30 06 09 05 04
  20275982.235   -26564595.979 9 -20656800.48348  20275982.030    20275985.3634
  23215148.974    -9808212.907 8  -7629626.72146  23215148.198    23215153.1434
  22669783.392   -14592108.562 8 -11354218.89746  22669783.555    22669786.9414
  24187092.116    -7766282.893 8  -6035153.10045  24187091.805    24187097.4444
  22939457.211   -11965348.459 8  -9300213.07746  22939456.974    22939460.7284
  20400983.673   -26689999.446 9 -20780005.11148  20400983.143    20400986.0134
  22117668.716   -16966447.326 8 -12940921.50446  22117668.837    22117671.5524
 00  1 21  1 26 30.0000000  0  7 24 10 30 06 09 05 04
  20279795.877   -26544555.106 9 -20641184.19048  20279795.670    20279798.9964
  23196550.215    -9905949.524 8  -7705784.99746  23196549.413    23196554.3464
  22652443.260   -14683231.275 8 -11425223.51646  22652443.410    22652446.7774
  24173863.275    -7835799.838 8  -6089321.98545  24173863.063    24173868.6134
  22955551.179   -11880774.681 8  -9234311.44246  22955550.913    22955554.6264
  20395016.952   -26721354.466 9 -20804437.56248  20395016.414    20395019.2864
  22134143.169   -16879873.437 8 -12873461.30346  22134143.311    22134145.9614
 00  1 21  1 27  0.0000000  0  7 24 10 30 06 09 05 04
  20283696.012   -26524059.554 9 -20625213.60448  20283695.810    20283699.1294
  23177972.221   -10003577.264 8  -7781858.44346  23177971.354    23177976.2554
  22635141.893   -14774150.104 8 -11496069.26546  22635142.047    22635145.3694
  24160641.838    -7905278.198 7  -6143460.77745  24160641.586    24160647.1374
  22971679.114   -11796021.830 8  -9168270.26646  22971678.877    22971682.5794
  20389139.456   -26752240.854 9 -20828504.84748  20389138.923    20389141.7714
  22150664.049   -16793055.562 8 -12805810.98946  22150664.174    22150666.8104
 00  1 21  1 27 30.0000000  0  7 24 10 30 06 09 05 04
  20287685.049   -26503096.803 9 -20608878.96948  20287684.848    20287688.1754
  23159417.733   -10101081.057 8  -7857835.31446  23159416.869    23159421.7884
  22617879.255   -14864865.469 8 -11566756.46846  22617879.408    22617882.7454
  24147428.179    -7974715.240 7  -6197567.38945  24147428.023    24147433.4514
  22987838.690   -11711102.585 8  -9102099.43946  22987838.441    22987842.2014
  20383352.404   -26782651.900 9 -20852201.73648  20383351.859    20383354.6984
  22167229.624   -16706002.804 8 -12737977.64646  22167229.766    22167232.3624
 00  1 21  1 28  0.0000000  0  7 24 10 30 06 09 05 04
  20291763.242   -26481665.598 9 -20592179.29948  20291763.035    20291766.3674
  23140891.577   -10198435.650 8  -7933695.91646  23140890.745    23140895.7464
  22600658.372   -14955361.557 8 -11637272.80946  22600658.490    22600661.8484
  24134226.912    -8044088.145 7  -6251624.00745  24134226.743    24134232.1864
  23004032.573   -11626002.782 8  -9035787.91846  23004032.370    23004036.1594
  20377657.207   -26812580.225 9 -20875522.47448  20377656.682    20377659.5024
  22183838.364   -16618723.549 8 -12669967.81346  22183838.478    22183841.0764
 00  1 21  1 28 30.0000000  0  7 24 10 30 06 09 05 04
  20295927.667   -26459781.240 9 -20575126.52248  20295927.472    20295930.7924
  23122397.930   -10295619.830 8  -8009423.75546  23122397.028    23122402.0874
  22583477.589   -15045646.812 8 -11707624.87846  22583477.704    22583481.0344
  24121036.521    -8113403.015 7  -6305635.40645  24121036.315    24121041.8044
  23020264.922   -11540701.034 8  -8969319.04246  23020264.732    23020268.5714
  20372048.687   -26842053.148 9 -20898488.35548  20372048.155    20372050.9484
  22200488.687   -16531225.411 8 -12601787.42246  22200488.811    22200491.4014
 00  1 21  1 29  0.0000000  0  7 24 10 30 06 09 05 04
  20300176.040   -26437455.658 9 -20557729.93748  20300175.841    20300179.1694
  23103937.472   -10392629.915 8  -8085015.94646  23103936.608    23103941.4894
  22566333.963   -15135736.670 8 -11777824.67746  22566334.123    22566337.3864
  24107854.586    -8182673.924 7  -6359612.57645  24107854.380    24107859.8114
  23036533.350   -11455210.035 8  -8902702.69746  23036533.140    23036536.9784
  20366523.800   -26871086.462 9 -20921111.68548  20366523.249    20366526.0514
  22217176.425   -16443530.500 8 -12533453.70046  22217176.519    22217179.1514
 00  1 21  1 29 30.0000000  0  7 24 10 30 06 09 05 04
  20304508.496   -26414688.343 9 -20539989.14148  20304508.291    20304511.6234
  23085507.759   -10489478.866 8  -8160482.57846  23085506.926    23085511.6604
  22549227.052   -15225633.710 8 -11847874.24146  22549227.245    22549230.4264
  24094679.225    -8251909.770 7  -6413562.42845  24094679.121    24094684.3284
  23052838.391   -11369526.234 8  -8835936.12446  23052838.222    23052842.0184
  20361082.932   -26899678.278 9 -20943390.99248  20361082.386    20361085.1674
  22233898.239   -16355656.310 8 -12464980.27546  22233898.373    22233900.9944
 00  1 21  1 30  0.0000000  0  7 24 10 30 06 09 05 04
  20308924.055   -26391484.394 9 -20521908.11348  20308923.855    20308927.1774
  23067106.569   -10586177.434 8  -8235832.01946  23067105.746    23067110.4504
  22532157.933   -15315332.026 8 -11917768.93746  22532158.091    22532161.2764
  24081509.076    -8321118.485 7  -6467491.15545  24081508.969    24081514.1754
  23069183.064   -11283634.309 8  -8769007.37646  23069182.907    23069186.7304
  20355728.581   -26927815.481 9 -20965316.05448  20355728.043    20355730.8114
  22250658.144   -16267582.244 8 -12396351.10646  22250658.280    22250660.8694
 00  1 21  1 30 30.0000000  0  7 24 10 30 06 09 05 04
  20313424.697   -26367833.212 9 -20503478.59148  20313424.499    20313427.8264
  23048731.543   -10682738.629 8  -8311074.41346  23048730.696    23048735.3504
  22515125.827   -15404835.498 8 -11987511.80746  22515126.002    22515129.2014
  24068341.242    -8390315.346 7  -6521410.66945  24068341.134    24068346.2554
  23085564.572   -11197549.072 8  -8701927.98346  23085564.386    23085568.2084
  20350459.520   -26955504.484 9 -20986891.87348  20350458.980    20350461.7354
  22267459.098   -16179292.570 8 -12327553.93246  22267459.219    22267461.7864
 00  1 21  1 31  0.0000000  0  7 24 10 30 06 09 05 04
  20318012.424   -26343724.659 9 -20484692.67548  20318012.203    20318015.5324
  23030381.197   -10779170.511 8  -8386216.05446  23030380.240    23030384.8884
  22498132.957   -15494133.401 8 -12057094.50346  22498133.146    22498136.2284
  24055176.881    -8459494.288 8  -6575316.20245  24055176.738    24055181.7874
  23101979.559   -11111288.039 8  -8634711.61346  23101979.372    23101983.2054
  20345279.869   -26982723.641 9 -21008101.57148  20345279.336    20345282.0574
  22284302.400   -16090780.299 8 -12258583.29646  22284302.538    22284305.0894
 00  1 21  1 31 30.0000000  0  7 24 10 30 06 09 05 04
  20322689.132   -26319148.251 9 -20465542.20048  20322688.925    20322692.2484
  23012058.615   -10875456.119 8  -8461243.70846  23012057.674    23012062.3084
  22481180.888   -15583216.926 8 -12126510.13846  22481181.062    22481184.0924
  24042018.851    -8528639.448 8  -6629195.44245  24042018.747    24042023.7484
  23118429.272   -11024844.338 8  -8567352.90946  23118429.105    23118432.9564
  20340190.291   -27009469.543 9 -21028942.50448  20340189.760    20340192.4714
  22301188.586   -16002042.782 8 -12189437.15746  22301188.718    22301191.2754
 00  1 21  1 32  0.0000000  0  7 24 10 30 06 09 05 04
  20327454.409   -26294106.549 9 -20446029.15948  20327454.206    20327457.5154
  22993768.982   -10971568.092 8  -8536136.08046  22993768.066    22993772.7024
  22464270.663   -15672080.461 8 -12195754.36746  22464270.839    22464273.8224
  24028870.025    -8597736.579 8  -6683037.25345  24028869.999    24028874.9404
  23134913.569   -10938218.945 8  -8499852.62646  23134913.383    23134917.2694
  20335188.927   -27035751.773 9 -21049422.13548  20335188.382    20335191.0934
  22318115.266   -15913092.423 8 -12120125.15746  22318115.400    22318117.9454
 00  1 21  1 32 30.0000000  0  7 24 10 30 06 09 05 04
  20332306.960   -26268606.263 9 -20426158.77748  20332306.737    20332310.0464
  22975515.076   -11067492.580 8  -8610882.36046  22975514.182    22975518.7574
  22447402.892   -15760720.851 8 -12264824.69246  22447403.057    22447406.0754
  24015730.558    -8666785.162 8  -6736841.24145  24015730.456    24015735.3814
  23151430.159   -10851424.000 8  -8432220.22646  23151429.969    23151433.8514
  20330275.117   -27061573.977 9 -21069543.30448  20330274.564    20330277.2534
  22335075.822   -15823964.155 8 -12050674.52646  22335075.959    22335078.4834
 00  1 21  1 33  0.0000000  0  7 24 10 30 06 09 05 04
  20337246.640   -26242647.756 9 -20405931.34248  20337246.447    20337249.7484
  22957299.356   -11163216.151 8  -8685472.07946  22957298.503    22957303.0294
  22430579.121   -15849129.566 8 -12333714.50146  22430579.323    22430582.3724
  24002601.140    -8735780.657 8  -6790603.86545  24002600.995    24002605.9034
  23167981.502   -10764446.160 8  -8364445.31946  23167981.350    23167985.2154
  20325453.378   -27086912.364 9 -21089287.47348  20325452.822    20325455.5024
  22352067.243   -15734673.471 8 -11981097.34146  22352067.386    22352069.8934
 00  1 21  1 33 30.0000000  0  7 24 10 30 06 09 05 04
  20342272.906   -26216234.339 9 -20385349.43148  20342272.708    20342276.0144
  22939124.920   -11258723.077 8  -8759892.97746  22939124.065    22939128.6514
  22413801.894   -15937294.222 8 -12402414.14846  22413802.107    22413805.1444
  23989481.336    -8804725.445 8  -6844326.98045  23989481.148    23989486.1264
  23184568.590   -10677280.204 8  -8296523.82046  23184568.427    23184572.3214
  20320722.847   -27111771.233 9 -21108657.98848  20320722.287    20320724.9674
  22369090.123   -15645217.636 8 -11911391.47746  22369090.241    22369092.7384
 00  1 21  1 34  0.0000000  0  7 24 10 30 06 09 05 04
  20347382.897   -26189381.001 9 -20364424.72748  20347382.690    20347385.9874
  22920990.627   -11354018.986 8  -8834149.45046  22920989.799    22920994.3754
  22397069.593   -16025223.009 8 -12470929.98446  22397069.761    22397072.7494
  23976369.929    -8873626.130 8  -6898015.72945  23976369.755    23976374.6544
  23201188.236   -10589943.768 8  -8228469.48846  23201188.052    23201191.9544
  20316083.406   -27136151.582 9 -21127655.63248  20316082.849    20316085.5414
  22386147.168   -15555581.994 8 -11841545.48946  22386147.293    22386149.7944
 00  1 21  1 34 30.0000000  0  7 24 10 30 06 09 05 04
  20352575.962   -26162091.089 9 -20343159.83448  20352575.765    20352579.0594
  22902892.476   -11449124.953 8  -8908257.92246  22902891.658    22902896.2354
  22380381.219   -16112920.868 8 -12539265.89146  22380381.384    22380384.3114
  23963263.883    -8942498.120 8  -6951682.10645  23963263.678    23963268.5664
  23217836.441   -10502457.035 8  -8160298.02446  23217836.277    23217840.0804
  20311536.194   -27160047.102 9 -21146275.49048  20311535.657    20311538.3294
  22403240.494   -15465755.698 8 -11771550.94946  22403240.609    22403243.1294
 00  1 21  1 35  0.0000000  0  7 24 10 30 06 09 05 04
  20357852.272   -26134363.861 9 -20321554.17448  20357852.062    20357855.3384
  22884828.808   -11544049.940 8  -8982225.37746  22884827.954    22884832.4714
  22363737.421   -16200384.385 8 -12607419.18646  22363737.587    22363740.4984
  23950163.193    -9011342.093 8  -7005326.65245  23950163.068    23950167.8894
  23234512.457   -10414824.121 8  -8092012.65646  23234512.302    23234516.1684
  20307080.363   -27183462.473 9 -21164521.20748  20307079.831    20307082.4854
  22420375.454   -15375710.579 8 -11701385.89846  22420375.587    22420378.1554
 00  1 21  1 35 30.0000000  0  7 24 10 30 06 09 05 04
  20363209.248   -26106212.655 9 -20299618.14748  20363209.044    20363212.3024
  22866798.427   -11638799.624 8  -9056056.22846  22866797.576    22866802.1114
  22347137.685   -16287616.179 8 -12675391.92146  22347137.859    22347140.7594
  23937067.424    -9080160.153 8  -7058950.99545  23937067.304    23937072.2004
  23251213.090   -10327061.912 8  -8023626.55446  23251212.901    23251216.8174
  20302711.457   -27206421.245 9 -21182411.13548  20302710.906    20302713.5624
  22437550.926   -15285452.703 8 -11631055.05946  22437551.087    22437553.6584
 00  1 21  1 36  0.0000000  0  7 24 10 30 06 09 05 04
  20368644.641   -26077649.356 9 -20277360.99948  20368644.441    20368647.7064
  22848798.589   -11733388.786 8  -9129762.00546  22848797.747    22848802.3234
  22330582.176   -16374615.475 8 -12743183.49746  22330582.360    22330585.2744
  23923975.226    -9148959.226 8  -7112560.54046  23923975.107    23923980.0704
  23267937.000   -10239177.458 8  -7955145.19246  23267936.783    23267940.6744
  20298430.156   -27228919.560 9 -21199942.25648  20298429.600    20298432.2494
  22454762.955   -15195002.808 8 -11560574.59546  22454763.081    22454765.6824
 00  1 21  1 36 30.0000000  0  7 24 10 30 06 09 05 04
  20374158.715   -26048672.639 9 -20254781.71648  20374158.524    20374161.7664
  22830830.325   -11827812.275 8  -9203338.68346  22830829.536    22830834.0844
  22314076.313   -16461354.093 8 -12810771.95346  22314076.507    22314079.3894
  23910886.169    -9217742.502 8  -7166157.78346  23910886.078    23910890.9254
  23284685.537   -10151163.049 8  -7886562.56646  23284685.329    23284689.2564
  20294239.273   -27250942.555 9 -21217103.00848  20294238.731    20294241.3884
  22472007.589   -15104381.694 8 -11489960.72746  22472007.673    22472010.3634
 00  1 21  1 37  0.0000000  0  7 24 10 30 06 09 05 04
  20379749.735   -26019291.617 9 -20231887.38848  20379749.533    20379752.7774
  22812898.485   -11922044.643 8  -9276766.44146  22812897.660    22812902.1894
  22297622.581   -16547818.377 8 -12878146.64746  22297622.797    22297625.6834
  23897801.618    -9286501.989 8  -7219736.48946  23897801.516    23897806.3154
  23301459.577   -10063014.563 8  -7817875.47446  23301459.385    23301463.3364
  20290138.452   -27272492.462 9 -21233895.11548  20290137.900    20290140.5654
  22489283.260   -15013597.229 8 -11419219.57446  22489283.344    22489286.0764
 00  1 21  1 37 30.0000000  0  7 24 10 30 06 09 05 04
  20385416.890   -25989510.190 9 -20208681.05248  20385416.700    20385419.9454
  22795004.599   -12016077.389 8  -9350038.66246  22795003.797    22795008.2924
  22281219.771   -16634015.505 8 -12945313.16646  22281219.953    22281222.8374
  23884721.847    -9355235.819 8  -7273295.19045  23884721.722    23884726.5794
  23318257.502    -9974740.890 8  -7749090.80346  23318257.317    23318261.2104
  20286128.529   -27293564.648 9 -21250314.97248  20286127.986    20286130.6624
  22506585.958   -14922670.833 8 -11348367.81946  22506586.045    22506588.8024
 00  1 21  1 38  0.0000000  0  7 24 10 30 06 09 05 04
  20391162.064   -25959319.041 9 -20185155.45348  20391161.872    20391165.1064
  22777149.834   -12109904.770 8  -9423150.85546  22777149.028    22777153.5144
  22264869.036   -16719938.887 8 -13012266.37346  22264869.232    22264872.0614
  23871646.515    -9423946.475 8  -7326835.84045  23871646.353    23871651.2874
  23335080.313    -9886336.409 8  -7680204.23046  23335080.150    23335084.0404
  20282213.038   -27314140.585 9 -21266348.14448  20282212.487    20282215.1524
  22523917.006   -14831595.514 8 -11277400.01946  22523917.067    22523919.8264
 00  1 21  1 38 30.0000000  0  7 24 10 30 06 09 05 04
  20396987.778   -25928704.646 9 -20161300.04848  20396987.579    20396990.7964
  22759338.088   -12203506.182 8  -9496086.96646  22759337.238    22759341.6704
  22248568.562   -16805598.069 8 -13079013.71946  22248568.777    22248571.6324
  23858576.158    -9492631.379 8  -7380356.41845  23858575.962    23858580.8134
  23351928.318    -9797800.001 8  -7611214.83146  23351928.147    23351931.9774
  20278390.453   -27334228.106 9 -21282000.73048  20278389.903    20278392.5804
  22541278.811   -14740358.660 8 -11206306.34146  22541278.887    22541281.5944
 00  1 21  1 39  0.0000000  0  7 24 10 30 06 09 05 04
  20402895.662   -25897658.400 9 -20137108.14148  20402895.459    20402898.6764
  22741570.426   -12296875.766 8  -9568842.44546  22741569.579    22741573.9354
  22232313.895   -16891016.135 8 -13145573.18646  22232314.139    22232317.0094
  23845511.907    -9561283.890 8  -7433851.76545  23845511.726    23845516.5674
  23368800.509    -9709136.319 8  -7542126.26946  23368800.306    23368804.1784
  20274658.180   -27353841.113 9 -21297283.56748  20274657.637    20274660.3234
  22558672.179   -14648955.834 8 -11135083.34046  22558672.236    22558674.9104
 00  1 21  1 39 30.0000000  0  7 24 10 30 06 09 05 04
  20408887.037   -25866173.442 9 -20112574.37648  20408886.842    20408890.0164
  22723844.333   -12390026.894 8  -9641427.68146  22723843.461    22723847.8384
  22216104.939   -16976194.552 8 -13211945.91246  22216105.191    22216108.0324
  23832452.663    -9629910.561 7  -7487326.96545  23832452.387    23832457.2344
  23385697.343    -9620342.984 8  -7472936.68146  23385697.128    23385701.0064
  20271017.208   -27372974.573 9 -21312192.73048  20271016.657    20271019.3274
  22576096.563   -14557390.078 8 -11063733.37946  22576096.613    22576099.3174
 00  1 21  1 40  0.0000000  0  7 24 10 30 06 09 05 04
  20414963.353   -25834242.135 9 -20087692.81048  20414963.145    20414966.3424
  22706160.790   -12482954.024 8  -9713838.39846  22706159.962    22706164.3074
  22199943.530   -17061123.203 8 -13278124.01446  22199943.739    22199946.5564
  23819398.605    -9698509.152 7  -7540780.29745  23819398.314    23819403.1834
  23402621.357    -9531406.932 8  -7403635.89446  23402621.113    23402624.9174
  20267469.095   -27391619.888 9 -21326721.51948  20267468.554    20267471.2204
  22593552.282   -14465659.546 8 -10992255.02346  22593552.319    22593555.0014
 00  1 21  1 40 30.0000000  0  7 24 10 30 06 09 05 04
  20421122.539   -25801874.970 9 -20062471.61348  20421122.351    20421125.5544
  22688521.677   -12575647.658 8  -9786067.14846  22688520.834    22688525.2744
  22183829.966   -17145800.688 8 -13344106.40646  22183830.134    22183832.9234
  23806351.070    -9767073.814 7  -7594207.18445  23806350.797    23806355.6824
  23419572.132    -9442329.791 8  -7334225.16146  23419571.937    23419575.7504
  20264014.428   -27409774.233 9 -21340867.73348  20264013.895    20264016.5454
  22611039.358   -14373764.234 8 -10920648.26446  22611039.403    22611042.0564
 00  1 21  1 41  0.0000000  0  7 24 10 30 06 09 05 04
  20427361.999   -25769086.449 9 -20036922.08948  20427361.812    20427365.0024
  22670925.213   -12668117.468 8  -9858121.51146  22670924.366    22670928.7964
  22167766.626   -17230213.841 8 -13409882.83346  22167766.775    22167769.5254
  23793311.334    -9835597.618 8  -7647602.24445  23793311.133    23793315.8724
  23436549.144    -9353114.876 8  -7264707.07246  23436548.955    23436552.8284
  20260655.625   -27427424.755 9 -21354621.36248  20260655.080    20260657.7324
  22628555.621   -14281715.489 8 -10848921.94546  22628555.677    22628558.2954
 00  1 21  1 41 30.0000000  0  7 24 10 30 06 09 05 04
  20433682.493   -25735872.040 9 -20011040.70348  20433682.276    20433685.4504
  22653370.113   -12760370.065 8  -9930006.61346  22653369.289    22653373.6764
  22151756.930   -17314345.064 8 -13475439.56846  22151757.128    22151759.8464
  23780280.128    -9904077.108 8  -7700962.77745  23780279.875    23780284.5804
  23453553.863    -9263754.912 8  -7195075.96346  23453553.643    23453557.5484
  20257395.218   -27444558.245 9 -21367972.10648  20257394.688    20257397.3194
  22646101.078   -14189513.561 8 -10777076.25746  22646101.111    22646103.7394
 00  1 21  1 42  0.0000000  0  7 24 10 30 06 09 05 04
  20440082.564   -25702239.270 9 -19984833.32648  20440082.345    20440085.5274
  22635860.456   -12852383.845 8 -10001705.62846  22635859.640    22635863.9964
  22135799.774   -17398200.087 8 -13540781.08446  22135799.975    22135802.6784
  23767259.328    -9972501.839 8  -7754280.65745  23767259.119    23767263.6634
  23470585.345    -9174254.308 8  -7125335.26946  23470585.142    23470589.0274
  20254234.367   -27461168.497 9 -21380915.13548  20254233.816    20254236.4474
  22663676.299   -14097154.929 8 -10705108.46946  22663676.373    22663679.0194
 00  1 21  1 42 30.0000000  0  7 24 10 30 06 09 05 04
  20446560.412   -25668197.977 9 -19958307.61948  20446560.201    20446563.3534
  22618398.100   -12944149.027 8 -10073210.92146  22618397.289    22618401.6214
  22119895.363   -17481778.004 8 -13605906.67046  22119895.605    22119898.2874
  23754249.714   -10040867.331 8  -7807552.35745  23754249.505    23754254.0684
  23487640.390    -9084629.557 8  -7055497.82146  23487640.145    23487644.0984
  20251171.945   -27477261.597 9 -21393455.18848  20251171.396    20251174.0234
  22681280.709   -14004643.053 8 -10633021.27446  22681280.776    22681283.4474
 00  1 21  1 43  0.0000000  0  7 24 10 30 06 09 05 04
  20453116.880   -25633743.394 9 -19931459.86648  20453116.652    20453119.8104
  22600982.739   -13035667.275 8 -10144523.79246  22600981.906    22600986.1984
  22104044.361   -17565075.442 8 -13670813.69746  22104044.578    22104047.2764
  23741250.956   -10109175.646 8  -7860779.51845  23741250.784    23741255.3164
  23504718.246    -8994884.427 8  -6985566.56846  23504718.062    23504722.0274
  20248205.271   -27492851.367 9 -21405603.03448  20248204.730    20248207.3424
  22698912.464   -13911987.228 8 -10560821.91146  22698912.570    22698915.2564
 00  1 21  1 43 30.0000000  0  7 24 10 30 06 09 05 04
  20459750.271   -25598884.519 9 -19904297.08648  20459750.070    20459753.2294
  22583616.932   -13126925.166 8 -10215633.78846  22583616.078    22583620.3764
  22088245.812   -17648097.516 8 -13735506.16946  22088245.996    22088248.6034
  23728261.239   -10177437.117 8  -7913970.17345  23728261.027    23728265.4284
  23521816.879    -8905030.505 8  -6915550.55146  23521816.745    23521820.7854
  20245332.381   -27507948.514 9 -21417367.02348  20245331.848    20245334.4574
  22716571.145   -13819189.732 8 -10488512.15646  22716571.265    22716573.9534
 00  1 21  1 44  0.0000000  0  7 24 10 30 06 09 05 04
  20466454.725   -25563652.329 9 -19876843.40948  20466454.508    20466457.6334
  22566301.914   -13217915.851 8 -10286535.57246  22566301.085    22566305.3924
  22072498.585   -17730849.468 8 -13799988.14146  22072498.737    22072501.3404
  23715276.910   -10245669.621 8  -7967138.26145  23715276.736    23715281.0624
  23538932.081    -8815089.228 8  -6845466.45546  23538931.947    23538936.0014
  20242550.085   -27522569.321 9 -21428759.83448  20242549.535    20242552.1484
  22734257.548   -13726246.609 8 -10416088.91246  22734257.711    22734260.3574
 00  1 21  1 44 30.0000000  0  7 24 10 30 06 09 05 04
  20473229.044   -25528052.941 9 -19849103.60448  20473228.829    20473231.9504
  22549032.106   -13308669.113 8 -10357252.34446  22549031.310    22549035.5674
  22056803.002   -17813329.979 8 -13864258.60646  22056803.133    22056805.6994
  23702296.156   -10313883.729 8  -8020292.02045  23702295.943    23702300.1914
  23556061.122    -8725075.529 8  -6775325.92246  23556060.978    23556065.0414
  20239854.720   -27536733.648 9 -21439796.94848  20239854.161    20239856.7654
  22751969.429   -13633169.659 8 -10343561.40246  22751969.629    22751972.3284
 00  1 21  1 45  0.0000000  0  7 24 10 30 06 09 05 04
  20480072.643   -25492089.426 9 -19821080.06648  20480072.431    20480075.5464
  22531805.660   -13399194.553 8 -10427791.58846  22531804.856    22531809.0764
  22041157.767   -17895545.839 8 -13928322.85647  22041157.944    22041160.4254
  23689315.800   -10382095.788 8  -8073444.19645  23689315.508    23689319.7344
  23573201.730    -8635000.871 8  -6705137.89746  23573201.542    23573205.6934
  20237245.117   -27550447.043 9 -21450482.68648  20237244.567    20237247.1744
  22769706.080   -13539962.737 8 -10270932.61846  22769706.230    22769708.9584
 00  1 21  1 45 30.0000000  0  7 24 10 30 06 09 05 04
  20486985.390   -25455762.642 9 -19792773.45948  20486985.185    20486988.2704
  22514623.239   -13489488.835 8 -10498150.69546  22514622.411    22514626.6274
  22025562.310   -17977500.365 8 -13992183.46447  22025562.510    22025564.9674
  23676336.635   -10450300.966 8  -8126591.00345  23676336.334    23676340.5764
  23590351.864    -8544876.275 8  -6634910.95246  23590351.660    23590355.8504
  20234723.361   -27563698.717 9 -21460808.64048  20234722.823    20234725.4264
  22787467.554   -13446625.715 8 -10198202.44846  22787467.684    22787470.3674
 00  1 21  1 46  0.0000000  0  7 24 10 30 06 09 05 04
  20493970.035   -25419058.085 9 -19764172.48448  20493969.820    20493972.9054
  22497483.399   -13579559.048 8 -10568335.19646  22497482.577    22497486.7804
  22010016.730   -18059192.716 8 -14055839.77147  22010016.903    22010019.4004
  23663360.349   -10518491.432 8  -8179726.33045  23663360.037    23663364.2374
  23607511.313    -8454703.020 8  -6564646.08846  23607511.080    23607515.2404
  20232292.409   -27576473.418 9 -21470762.92948  20232291.856    20232294.4484
  22805252.068   -13353167.870 8 -10125378.14246  22805252.173    22805254.7664
 00  1 21  1 46 30.0000000  0  7 24 10 30 06 09 05 04
  20501031.263   -25381950.852 9 -19735257.73548  20501031.062    20501034.1404
  22480390.921   -13669380.534 8 -10638325.88346  22480390.090    22480394.2784
  21994524.173   -18140606.275 8 -14119278.83947  21994524.368    21994526.8974
  23650391.687   -10586641.795 8  -8232830.41245  23650391.385    23650395.5734
  23624683.093    -8364464.419 8  -6494330.29546  23624682.862    23624687.0074
  20229957.274   -27588744.568 9 -21480324.83948  20229956.722    20229959.3034
  22823056.937   -13259602.861 8 -10052470.32946  22823057.026    22823059.5794
 00  1 21  1 47  0.0000000  0  7 24 10 30 06 09 05 04
  20508171.629   -25344427.927 9 -19706019.07148  20508171.428    20508174.4894
  22463351.332   -13758923.646 8 -10708099.64246  22463350.536    22463354.7194
  21979087.367   -18221727.110 8 -14182489.82347  21979087.574    21979090.0654
  23637430.410   -10654753.406 8  -8285904.28745  23637430.167    23637434.3184
  23641868.365    -8274155.391 8  -6423959.62846  23641868.135    23641872.2074
  20227722.871   -27600486.379 9 -21489474.27848  20227722.339    20227724.8824
  22840883.158   -13165925.539 8  -9979475.00046  22840883.206    22840885.7944
 00  1 21  1 47 30.0000000  0  7 24 10 30 06 09 05 04
  20515393.256   -25306477.949 9 -19676447.63448  20515393.049    20515396.1124
  22446367.745   -13848172.519 8 -10777644.12446  22446366.934    22446371.1414
  21963710.942   -18302530.525 8 -14245453.45847  21963711.129    21963713.6074
  23624479.708   -10722809.433 8  -8338934.84745  23624479.443    23624483.5804
  23659070.999    -8183755.505 8  -6353518.15746  23659070.746    23659074.8484
  20225594.004   -27611673.749 9 -21498191.68348  20225593.463    20225595.9804
  22858731.525   -13072131.830 8  -9906388.98246  22858731.589    22858734.1774
 00  1 21  1 48  0.0000000  0  7 24 10 30 06 09 05 04
  20522697.015   -25268096.481 9 -19646539.97348  20522696.813    20522699.8694
  22429442.369   -13937115.547 8 -10846950.28246  22429441.551    22429445.7244
  21948397.950   -18383000.681 8 -14308157.41747  21948398.140    21948400.6384
  23611539.443   -10790810.557 8  -8391922.63546  23611539.182    23611543.3224
  23676294.298    -8093246.764 8  -6282991.86846  23676294.102    23676298.1644
  20223573.014   -27622294.145 9 -21506467.29748  20223572.462    20223574.9574
  22876604.323   -12978209.749 8  -9833202.94846  22876604.376    22876607.0004
 00  1 21  1 48 30.0000000  0  7 24 10 30 06 09 05 04
  20530081.626   -25229290.012 9 -19616301.14048  20530081.420    20530084.4464
  22412576.665   -14025745.268 8 -10916012.29746  22412575.807    22412579.9314
  21933150.552   -18463125.860 8 -14370592.55647  21933150.766    21933153.2674
  23598606.742   -10858771.865 8  -8444879.39546  23598606.544    23598610.6214
  23693539.222    -8002624.418 8  -6212377.04946  23693539.004    23693543.0454
  20221658.944   -27632352.567 9 -21514305.00248  20221658.387    20221660.8664
  22894503.877   -12884146.644 8  -9759907.01146  22894503.985    22894506.5764
 00  1 21  1 49  0.0000000  0  7 24 10 30 06 09 05 04
  20537546.236   -25190062.865 9 -19585734.50548  20537546.043    20537549.0864
  22395767.392   -14114078.298 8 -10984843.12646  22395766.554    22395770.6424
  21917968.531   -18542907.567 8 -14432760.05247  21917968.766    21917971.2614
  23585679.647   -10926703.690 8  -8497813.17446  23585679.454    23585683.5104
  23710806.099    -7911886.281 8  -6141672.01846  23710805.950    23710809.9404
  20219850.718   -27641854.685 9 -21521709.22648  20219850.159    20219852.6414
  22912432.737   -12789929.716 8  -9686491.21946  22912432.843    22912435.4484
 00  1 21  1 49 30.0000000  0  7 24 10 30 06 09 05 04
  20545085.425   -25150444.125 9 -19554862.73448  20545085.234    20545088.2654
  22379012.484   -14202125.503 8 -11053451.23046  22379011.663    22379015.7254
  21902852.014   -18622345.104 8 -14494659.37547  21902852.251    21902854.7434
  23572760.323   -10994594.662 8  -8550715.12346  23572760.158    23572764.2184
  23728095.040    -7821032.073 8  -6070876.52946  23728094.862    23728098.8964
  20218145.699   -27650814.438 9 -21528690.83148  20218145.149    20218147.6274
  22930391.010   -12695558.538 8  -9612955.23546  22930391.090    22930393.6904
 00  1 21  1 50  0.0000000  0  7 24 10 30 06 09 05 04
  20552692.738   -25110467.351 9 -19523711.97548  20552692.537    20552695.5494
  22362309.520   -14289899.570 8 -11121846.49846  22362308.746    22362312.7374
  21887798.980   -18701448.663 8 -14556298.45447  21887799.192    21887801.7124
  23559847.530   -11062451.564 8  -8603590.52046  23559847.367    23559851.4314
  23745402.897    -7730078.203 8  -6000003.38346  23745402.740    23745406.8454
  20216539.795   -27659253.429 9 -21535266.64548  20216539.251    20216541.7264
  22948377.620   -12601038.225 8  -9539303.04346  22948377.759    22948380.3074
 00  1 21  1 50 30.0000000  0  7 24 10 30 06 09 05 04
  20560364.222   -25070153.402 9 -19492298.48148  20560364.016    20560367.0134
  22345657.055   -14377408.728 8 -11190035.35746  22345656.264    22345660.2274
  21872806.015   -18780236.848 8 -14617691.78447  21872806.251    21872808.7274
  23546940.729   -11130276.956 8  -8656441.37046  23546940.552    23546944.6014
  23762724.270    -7639053.777 8  -5929075.25445  23762724.168    23762728.1924
  20215028.193   -27667196.902 9 -21541456.34248  20215027.658    20215030.1174
  22966389.436   -12506385.748 8  -9465547.84646  22966389.549    22966392.0574
 00  1 21  1 51  0.0000000  0  7 24 10 30 06 09 05 04
  20568097.730   -25029513.437 9 -19460630.94448  20568097.522    20568100.5224
  22329054.287   -14464656.315 8 -11258020.38846  22329053.498    22329057.4984
  21857870.151   -18858725.093 8 -14678851.39847  21857870.381    21857872.8324
  23534040.818   -11198066.172 8  -8709264.03146  23534040.653    23534044.6884
  23780055.545    -7547977.272 8  -5858106.55645  23780055.400    23780059.4754
  20213607.464   -27674662.714 9 -21547273.83648  20213606.921    20213609.3854
  22984422.078   -12411623.738 8  -9391707.32146  22984422.146    22984424.6714
 00  1 21  1 51 30.0000000  0  7 24 10 30 06 09 05 04
  20575891.079   -24988559.025 9 -19428718.39148  20575890.877    20575893.8664
  22312502.284   -14551636.995 8 -11325797.44446  22312501.487    22312505.5374
  21842990.161   -18936919.764 8 -14739782.25047  21842990.383    21842992.8164
  23521146.234   -11265827.347 8  -8762064.85246  23521146.049    23521150.0854
  23797392.649    -7456870.316 8  -5787114.11646  23797392.488    23797396.5334
  20212275.394   -27681662.696 9 -21552728.34548  20212274.863    20212277.3134
  23002472.110   -12316770.123 8  -9317795.40946  23002472.190    23002474.7154
 00  1 21  1 52  0.0000000  0  7 24 10 30 06 09 05 04
  20583748.602   -24947267.249 9 -19396542.95748  20583748.408    20583751.4034
  22296002.082   -14638345.819 8 -11393362.67346  22296001.269    22296005.3104
  21828163.323   -19014835.258 8 -14800495.56847  21828163.517    21828165.9264
  23508254.976   -11333570.787 8  -8814851.84846  23508254.774    23508258.8304
  23814734.110    -7365740.605 8  -5716103.95146  23814733.963    23814737.9544
  20211030.691   -27688203.692 9 -21557825.21048  20211030.165    20211032.5834
  23020536.610   -12221840.080 8  -9243823.95346  23020536.704    23020539.2784
 00  1 21  1 52 30.0000000  0  7 24 10 30 06 09 05 04
  20591676.871   -24905604.033 9 -19364078.08548  20591676.669    20591679.6534
  22279555.517   -14724772.860 8 -11460708.33746  22279554.685    22279558.6914
  21813391.160   -19092463.378 8 -14860984.95547  21813391.363    21813393.7684
  23495366.076   -11401302.275 8  -8867629.54846  23495365.897    23495369.8794
  23832079.051    -7274592.397 8  -5645079.36545  23832078.915    23832082.8824
  20209874.842   -27694277.653 9 -21562558.14448  20209874.305    20209876.7164
  23038612.487   -12126850.534 8  -9169806.11346  23038612.660    23038615.0764
 00  1 21  1 53  0.0000000  0  7 24 10 30 06 09 05 04
  20599678.625   -24863554.284 9 -19331312.02148  20599678.400    20599681.4134
  22263165.134   -14810904.457 8 -11527823.78446  22263164.322    22263168.2854
  21798679.613   -19169773.126 8 -14921226.25947  21798679.798    21798682.1494
  23482479.953   -11469018.973 8  -8920395.71546  23482479.728    23482483.6994
  23849430.039    -7183412.282 8  -5574029.91445  23849429.893    23849433.8854
  20208812.939   -27699857.799 9 -21566906.28748  20208812.410    20208814.8194
  23056699.687   -12031801.659 8  -9095742.03946  23056699.848    23056702.2214
 00  1 21  1 53 30.0000000  0  7 24 10 30 06 09 05 04
  20607754.911   -24821112.772 9 -19298240.68748  20607754.708    20607757.7154
  22246834.010   -14896724.828 8 -11594696.73046  22246833.198    22246837.1054
  21784032.429   -19246744.545 8 -14981203.93647  21784032.608    21784034.9344
  23469598.925   -11536708.917 8  -8973141.04146  23469598.745    23469602.6254
  23866788.466    -7092193.171 8  -5502950.10145  23866788.306    23866792.3034
  20207849.581   -27704920.198 9 -21570850.99348  20207849.047    20207851.4504
  23074801.811   -11936674.599 8  -9021617.04946  23074801.957    23074804.3294
 00  1 21  1 54  0.0000000  0  7 24 10 30 06 09 05 04
  20615907.774   -24778269.284 9 -19264856.12648  20615907.574    20615910.5594
  22230564.236   -14982222.784 8 -11661318.45146  22230563.411    22230567.2994
  21769451.104   -19323369.529 8 -15040911.66347  21769451.293    21769453.6274
  23456724.070   -11604365.800 8  -9025860.61046  23456723.918    23456727.8544
  23884154.718    -7000933.133 8  -5431838.37645  23884154.574    23884158.5194
  20206987.665   -27709449.644 9 -21574380.41348  20206987.134    20206989.5234
  23092920.515   -11841460.389 8  -8947424.16046  23092920.624    23092922.9964
 00  1 21  1 54 30.0000000  0  7 24 10 30 06 09 05 04
  20624134.770   -24735036.190 9 -19231167.97948  20624134.549    20624137.5444
  22214358.621   -15067383.565 8 -11727677.44046  22214357.790    22214361.6564
  21754939.639   -19399627.358 8 -15100333.29147  21754939.859    21754942.1764
  23443855.465   -11671990.016 8  -9078554.72446  23443855.327    23443859.3014
  23901528.883    -6909631.196 8  -5360694.00745  23901528.726    23901532.6464
  20206230.449   -27713428.887 9 -21577481.10048  20206229.898    20206232.2914
  23111058.138   -11746146.350 8  -8873153.47746  23111058.317    23111060.6434
 00  1 21  1 55  0.0000000  0  7 24 10 30 06 09 05 04
  20632431.601   -24691435.725 9 -19197193.56948  20632431.395    20632434.3944
  22198218.605   -15152199.875 8 -11793768.01246  22198217.764    22198221.5924
  21740495.924   -19475529.267 8 -15159477.58047  21740496.168    21740498.4504
  23430994.578   -11739573.914 8  -9131217.42446  23430994.470    23430998.4644
  23918912.298    -6818280.604 8  -5289511.71945  23918912.162    23918916.0374
  20205577.817   -27716858.421 9 -21580153.44248  20205577.260    20205579.6574
  23129219.382   -11650708.374 8  -8798786.20746  23129219.545    23129221.9074
 00  1 21  1 55 30.0000000  0  7 24 10 30 06 09 05 04
  20640796.381   -24647478.556 9 -19162941.21148  20640796.174    20640799.1604
  22182141.686   -15236684.267 8 -11859599.95646  22182140.864    22182144.6704
  21726115.987   -19551096.192 8 -15218360.84847  21726116.183    21726118.4794
  23418141.383   -11807117.465 8  -9183848.69046  23418141.228    23418145.2624
  23936304.706    -6726883.238 8  -5218292.98845  23936304.531    23936308.4164
  20205026.881   -27719753.540 9 -21582409.35948  20205026.341    20205028.7344
  23147403.448   -11555150.863 8  -8724325.79946  23147403.596    23147405.8884
 00  1 21  1 56  0.0000000  0  7 24 10 30 06 09 05 04
  20649227.500   -24603172.692 9 -19128417.14148  20649227.297    20649230.2724
  22166125.073   -15320851.908 8 -11925185.08046  22166124.232    22166128.0384
  21711798.137   -19626336.957 8 -15276989.96547  21711798.325    21711800.6134
  23405296.205   -11874619.232 8  -9236447.40546  23405296.050    23405300.0594
  23953706.864    -6635434.533 8  -5147034.25945  23953706.714    23953710.5454
  20204573.681   -27722134.993 9 -21584265.01448  20204573.135    20204575.5344
  23165606.632   -11459492.282 8  -8649786.63446  23165606.804    23165609.0674
 00  1 21  1 56 30.0000000  0  7 24 10 30 06 09 05 04
  20657721.352   -24558537.037 9 -19093636.09348  20657721.157    20657724.1264
  22150166.949   -15404711.952 8 -11990530.52546  22150166.119    22150169.9394
  21697542.431   -19701251.016 8 -15335364.50647  21697542.644    21697544.9044
  23392458.106   -11942084.021 8  -9289017.29146  23392457.879    23392461.9044
  23971118.344    -6543936.454 8  -5075737.06445  23971118.180    23971122.1254
  20204215.009   -27724019.670 9 -21585733.57648  20204214.443    20204216.8394
  23183826.821   -11363744.557 8  -8575178.00546  23183826.991    23183829.2864
 00  1 21  1 57  0.0000000  0  7 24 10 30 06 09 05 04
  20666277.333   -24513574.955 9 -19058600.68548  20666277.114    20666280.1114
  22134266.639   -15488268.557 8 -12055639.51846  22134265.787    22134269.5654
  21683346.924   -19775848.492 8 -15393492.36047  21683347.141    21683349.4204
  23379625.563   -12009519.132 8  -9341564.05746  23379625.332    23379629.3084
  23988536.048    -6452405.787 8  -5004414.45845  23988535.852    23988539.8504
  20203948.100   -27725422.029 9 -21586826.30348  20203947.538    20203949.9524
  23202058.452   -11267936.351 8  -8500522.26146  23202058.639    23202061.0014
 00  1 21  1 57 30.0000000  0  7 24 10 30 06 09 05 04
  20674896.446   -24468281.124 9 -19023306.77748  20674896.227    20674899.2234
  22118424.416   -15571519.810 8 -12120510.57146  22118423.554    22118427.3144
  21669214.011   -19850117.308 8 -15451364.11047  21669214.225    21669216.5154
  23366798.949   -12076922.990 8  -9394086.47846  23366798.742    23366802.6604
  24005957.757    -6360854.065 8  -4933075.47545  24005957.501    24005961.6054
  20203773.846   -27726337.577 9 -21587539.70148  20203773.299    20203775.7164
  23220297.712   -11172088.176 8  -8425835.36846  23220297.922    23220300.3224
 00  1 21  1 58  0.0000000  0  7 24 10 30 06 09 05 04
  20683578.099   -24422658.700 9 -18987756.81748  20683577.887    20683580.8784
  22102644.430   -15654443.785 8 -12185126.60646  22102643.618    22102647.3564
  21655146.423   -19924042.871 8 -15508968.38947  21655146.634    21655148.8694
  23353977.423   -12144299.916 8  -9446587.89746  23353977.218    23353981.2124
  24023381.645    -6269291.019 8  -4861727.65245  24023381.419    24023385.5344
  20203695.056   -27726751.583 9 -21587862.28448  20203694.494    20203696.9024
  23238545.030   -11076197.628 8  -8351115.46946  23238545.240    23238547.6654
 00  1 21  1 58 30.0000000  0  7 24 10 30 06 09 05 04
  20692323.800   -24376699.514 9 -18951944.44848  20692323.592    20692326.5734
  22086930.928   -15737018.705 8 -12249470.64847  22086930.126    22086933.8274
  21641144.789   -19997621.716 8 -15566302.50547  21641144.987    21641147.2184
  23341158.665   -12211662.629 8  -9499078.24446  23341158.502    23341162.4414
  24040803.873    -6177736.626 8  -4790386.56945  24040803.658    24040807.8024
  20203717.861   -27726631.736 9 -21587768.87748  20203717.318    20203719.7104
  23256800.870   -10980262.302 8  -8276360.67046  23256801.072    23256803.5144
 00  1 21  1 59  0.0000000  0  7 24 10 30 06 09 05 04
  20701137.780   -24330381.887 9 -18915852.77548  20701137.571    20701140.5224
  22071288.224   -15819221.549 8 -12313524.75847  22071287.416    22071291.1364
  21627210.551   -20070846.470 8 -15623360.70747  21627210.754    21627212.9604
  23328347.644   -12278984.921 8  -9551537.09846  23328347.431    23328351.3124
  24058227.728    -6086173.491 8  -4719038.65845  24058227.576    24058231.6364
  20203851.606   -27725928.815 9 -21587221.12648  20203851.045    20203853.4304
  23275067.944   -10884268.308 8  -8201560.15446  23275068.135    23275070.5284
 00  1 21  1 59 30.0000000  0  7 24 10 30 06 09 05 04
  20710020.141   -24283704.872 9 -18879481.06048  20710019.931    20710022.8764
  22055717.239   -15901047.398 8 -12377285.10447  22055716.406    22055720.1384
  21613347.713   -20143696.097 8 -15680126.59947  21613347.921    21613350.1184
  23315549.241   -12346240.650 8  -9603944.08346  23315549.051    23315552.9024
  24075657.696    -5994578.168 8  -4647665.66845  24075657.559    24075661.6794
  20204099.957   -27724623.646 9 -21586204.09348  20204099.413    20204101.7834
  23293353.678   -10788176.253 8  -8126683.23946  23293353.857    23293356.3174
 00  1 21  2  0  0.0000000  0  7 24 10 30 06 09 05 04
  20718970.181   -24236672.043 9 -18842832.08548  20718969.966    20718972.9194
  22040217.513   -15982498.383 8 -12440753.35047  22040216.706    22040220.4584
  21599557.186   -20216165.687 9 -15736596.36147  21599557.378    21599559.5504
  23302762.298   -12413436.037 8  -9656304.03846  23302762.093    23302765.9384
  24093095.316    -5902942.825 8  -4576261.50945  24093095.097    24093099.3054
  20204463.714   -27722711.940 9 -21584714.43548  20204463.171    20204465.5364
  23311660.595   -10691972.798 8  -8051719.52246  23311660.753    23311663.2074
 00  1 21  2  0 30.0000000  0  7 24 10 30 06 09 05 04
  20727988.005   -24189282.762 9 -18805905.35648  20727987.813    20727990.7734
  22024789.113   -16063574.933 8 -12503929.83347  22024788.306    22024792.0554
  21585840.492   -20288247.207 9 -15792763.73547  21585840.713    21585842.8664
  23289987.201   -12480569.140 8  -9708615.46646  23289987.048    23289990.8504
  24110540.559    -5811267.847 8  -4504826.46145  24110540.301    24110544.4404
  20204941.453   -27720201.279 9 -21582758.06248  20204940.901    20204943.2804
  23329989.749   -10595652.440 8  -7976664.69946  23329989.884    23329992.3864
 00  1 21  2  1  0.0000000  0  7 24 10 30 06 09 05 04
  20737071.285   -24141549.841 9 -18768710.85948  20737071.074    20737074.0254
  22009428.825   -16144293.829 8 -12566827.62147  22009428.000    22009431.6954
  21572200.553   -20359925.409 9 -15848616.83447  21572200.756    21572202.8794
  23277223.186   -12547644.732 8  -9760882.08646  23277223.004    23277226.6924
  24127994.514    -5719546.831 8  -4433355.52045  24127994.207    24127998.3404
  20205526.070   -27717129.026 9 -21580364.08248  20205525.526    20205527.9024
  23348342.396   -10499208.439 8  -7901513.53746  23348342.549    23348345.1344
 00  1 21  2  1 30.0000000  0  7 24 10 30 06 09 05 04
  20746216.025   -24093493.892 9 -18731264.64648  20746215.824    20746218.7584
  21994133.444   -16224671.518 8 -12629459.53247  21994132.609    21994136.3304
  21558636.251   -20431206.071 9 -15904160.16047  21558636.477    21558638.5724
  23264463.045   -12614699.606 8  -9813132.55046  23264462.818    23264466.5204
  24145450.192    -5627816.639 8  -4361877.43645  24145449.903    24145453.8504
  20206205.929   -27713556.271 9 -21577580.10148  20206205.375    20206207.7524
  23366715.909   -10402655.239 8  -7826277.28846  23366716.059    23366718.6314
 00  1 21  2  2  0.0000000  0  7 24 10 30 06 09 05 04
  20755422.760   -24045112.148 9 -18693564.57148  20755422.560    20755425.4714
  21978903.496   -16304705.353 8 -12691823.50947  21978902.652    21978906.3474
  21545144.230   -20502106.940 9 -15959407.54547  21545144.447    21545146.5394
  23251702.239   -12681757.444 8  -9865385.32146  23251702.052    23251705.7424
  24162901.546    -5536108.912 8  -4290416.86445  24162901.351    24162905.2784
  20206977.515   -27709501.485 9 -21574420.51448  20206976.971    20206979.3344
  23385102.670   -10306032.004 8  -7750986.48045  23385102.770    23385105.3764
 00  1 21  2  2 30.0000000  0  7 24 10 30 06 09 05 04
  20764691.289   -23996405.738 9 -18655611.50848  20764691.073    20764693.9594
  21963740.874   -16384385.238 8 -12753911.68347  21963740.019    21963743.6894
  21531724.230   -20572629.480 9 -16014360.12947  21531724.437    21531726.5034
  23238941.985   -12748812.447 8  -9917635.88346  23238941.795    23238945.5304
  24180345.157    -5444442.271 8  -4218988.30445  24180344.965    24180348.7754
  20207836.825   -27704985.797 9 -21570901.78248  20207836.276    20207838.6274
  23403499.484   -10209355.987 8  -7675654.51445  23403499.604    23403502.2054
 00  1 21  2  3  0.0000000  0  7 24 10 30 06 09 05 04
  20774019.800   -23947384.125 9 -18617412.83448  20774019.566    20774022.4524
  21948643.582   -16463721.773 8 -12815732.31747  21948642.761    21948646.4284
  21518372.922   -20642790.669 9 -16069031.14347  21518373.121    21518375.1904
  23226182.089   -12815865.758 8  -9969885.12046  23226181.919    23226185.6394
  24197780.328    -5352819.948 8  -4147594.28645  24197780.085    24197784.0164
  20208782.577   -27700015.760 9 -21567029.01648  20208782.021    20208784.3734
  23421903.442   -10112642.437 8  -7600293.32145  23421903.584    23421906.0924
 00  1 21  2  3 30.0000000  0  7 24 10 30 06 09 05 04
  20783406.841   -23898054.837 9 -18578974.40748  20783406.597    20783409.4624
  21933613.214   -16542706.545 8 -12877278.83847  21933612.406    21933616.0724
  21505088.644   -20712599.736 9 -16123427.76847  21505088.847    21505090.9104
  23213424.998   -12882904.190 8 -10022122.77846  23213424.850    23213428.4864
  24215206.567    -5261244.269 7  -4076236.60945  24215206.382    24215210.2894
  20209818.946   -27694569.527 9 -21562785.18048  20209818.394    20209820.7364
  23440310.171   -10015914.775 8  -7524921.11245  23440310.251    23440312.7454
 00  1 21  2  4  0.0000000  0  7 24 10 30 06 09 05 04
  20792852.052   -23848419.801 9 -18540297.74448  20792851.808    20792854.6694
  21918649.879   -16621339.230 8 -12938551.01447  21918649.055    21918652.7024
  21491871.849   -20782054.451 9 -16177548.28447  21491872.037    21491874.0854
  23200675.194   -12949904.859 8 -10074331.01146  23200674.997    23200678.5764
  24232628.165    -5169692.687 7  -4004897.72345  24232627.971    24232631.9944
  20210951.927   -27688615.698 9 -21558145.82448  20210951.370    20210953.7014
  23458719.197    -9919174.913 8  -7449539.40845  23458719.286    23458721.8154
 00  1 21  2  4 30.0000000  0  7 24 10 30 06 09 05 04
  20802353.378   -23798489.645 9 -18501391.11348  20802353.141    20802356.0094
  21903752.700   -16699624.216 8 -12999552.25547  21903751.878    21903755.5244
  21478724.902   -20851142.022 9 -16231382.71447  21478725.098    21478727.1164
  23187935.667   -13016851.397 8 -10126497.05746  23187935.446    23187938.9884
  24250048.664    -5078146.988 7  -3933563.41145  24250048.381    24250052.6124
  20212184.150   -27682140.303 9 -21553100.05048  20212183.597    20212185.9144
  23477134.093    -9822403.954 8  -7374133.47545  23477134.168    23477136.6974
 00  1 21  2  5  0.0000000  0  7 24 10 30 06 09 05 04
  20811910.456   -23748266.614 9 -18462256.26748  20811910.214    20811913.0914
  21888922.097   -16777559.154 8 -13060280.72747  21888921.295    21888924.9354
  21465646.534   -20919869.046 9 -16284936.19247  21465646.732    21465648.7374
  23175205.170   -13083750.207 8 -10178625.92046  23175204.970    23175208.5364
  24267469.919    -4986597.457 8  -3862226.13245  24267469.590    24267473.9014
  20213520.449   -27675117.843 9 -21547627.98848  20213519.891    20213522.2124
  23495554.042    -9725606.734 8  -7298707.07345  23495554.077    23495556.6254
 00  1 21  2  5 30.0000000  0  7 24 10 30 06 09 05 04
  20821526.650   -23697733.247 9 -18422879.59948  20821526.417    20821529.2624
  21874162.227   -16855122.835 8 -13120719.91847  21874161.413    21874165.0144
  21452639.340   -20988221.968 9 -16338198.17047  21452639.537    21452641.5124
  23162485.792   -13150590.912 8 -10230709.51346  23162485.565    23162489.1164
  24284892.941    -4895038.918 7  -3790881.81745  24284892.639    24284896.9384
  20214963.838   -27667532.731 9 -21541717.50248  20214963.292    20214965.6214
  23513979.015    -9628782.700 8  -7223259.76645  23513979.051    23513981.5704
 00  1 21  2  6  0.0000000  0  7 24 10 30 06 09 05 04
  20831204.534   -23646875.587 9 -18383250.24048  20831204.287    20831207.1354
  21859475.587   -16932301.549 8 -13180859.12747  21859474.770    21859478.3604
  21439704.387   -21056195.535 9 -16391164.54547  21439704.592    21439706.5344
  23149778.422   -13217368.073 8 -10282743.58546  23149778.212    23149781.7764
  24302316.229    -4803479.149 8  -3719536.56245  24302315.946    24302320.2224
  20216513.352   -27659390.209 9 -21535372.67248  20216512.779    20216515.0954
  23532412.661    -9531913.245 8  -7147777.07845  23532412.749    23532415.1854
 00  1 21  2  6 30.0000000  0  7 24 10 30 06 09 05 04
  20840943.111   -23595699.034 9 -18343372.38948  20840942.856    20840945.7064
  21844865.729   -17009076.736 8 -13240683.90247  21844864.925    21844868.4774
  21426843.566   -21123779.588 9 -16443827.40347  21426843.775    21426845.6764
  23137080.484   -13284095.751 8 -10334739.10946  23137080.263    23137083.8304
  24319736.073    -4711937.787 8  -3648205.62445  24319735.777    24319739.9694
  20218166.500   -27650702.624 9 -21528603.11648  20218165.945    20218168.2564
  23550854.445    -9435001.239 8  -7072261.20445  23550854.572    23550856.9134
 00  1 21  2  7  0.0000000  0  7 24 10 30 06 09 05 04
  20850742.328   -23544203.484 9 -18303245.97147  20850742.092    20850744.9424
  21830336.642   -17085427.041 8 -13300177.59247  21830335.853    21830339.4204
  21414056.926   -21190973.662 9 -16496186.38047  21414057.137    21414059.0374
  23124389.342   -13350787.626 8 -10386706.73446  23124389.169    23124392.6994
  24337150.094    -4620426.291 8  -3576897.96445  24337149.841    24337154.0004
  20219922.640   -27641474.153 9 -21521412.09248  20219922.079    20219924.3724
  23569303.202    -9338052.447 8  -6996716.67545  23569303.391    23569305.5524
 00  1 21  2  7 30.0000000  0  7 24 10 30 06 09 05 04
  20860600.252   -23492399.630 9 -18262879.31947  20860600.037    20860602.8824
  21815887.762   -17161356.209 8 -13359343.13647  21815886.966    21815890.5064
  21401347.599   -21257761.301 9 -16548228.65747  21401347.805    21401349.7194
  23111702.998   -13417454.364 8 -10438654.75846  23111702.821    23111706.4004
  24354555.689    -4528959.831 8  -3505625.39945  24354555.452    24354559.5064
  20221779.010   -27631718.924 9 -21513810.60648  20221778.454    20221780.7444
  23587761.999    -9241050.864 8  -6921131.03645  23587762.212    23587764.3294
 00  1 21  2  8  0.0000000  0  7 24 10 30 06 09 05 04
  20870513.843   -23440303.422 9 -18222284.85947  20870513.624    20870516.4714
  21801516.981   -17236875.076 8 -13418188.96147  21801516.185    21801519.6694
  21388716.432   -21324138.340 9 -16599950.98247  21388716.630    21388718.5534
  23099017.711   -13484115.702 8 -10490598.58046  23099017.513    23099021.1024
  24371950.133    -4437551.478 8  -3434398.11245  24371949.930    24371953.9534
  20223734.633   -27621441.986 9 -21505802.59448  20223734.070    20223736.3674
  23606232.335    -9143988.800 8  -6845498.24145  23606232.515    23606234.7194
 00  1 21  2  8 30.0000000  0  7 24 10 30 06 09 05 04
  20880482.591   -23387917.313 9 -18181464.50347  20880482.363    20880485.2004
  21787223.759   -17311986.560 8 -13476717.34247  21787222.929    21787226.3944
  21376164.986   -21390096.519 9 -16651346.92747  21376165.199    21376167.1084
  23086331.703   -13550780.973 8 -10542545.47946  23086331.505    23086335.0604
  24389335.075    -4346193.288 8  -3363209.89945  24389334.844    24389338.8284
  20225792.767   -27610626.213 9 -21497374.71448  20225792.205    20225794.5154
  23624711.546    -9046879.914 8  -6769828.96745  23624711.713    23624713.9704
 00  1 21  2  9  0.0000000  0  7 24 10 30 06 09 05 04
  20890509.953   -23335223.280 9 -18140404.20347  20890509.711    20890512.5414
  21773006.476   -17386698.726 8 -13534934.56647  21773005.652    21773009.0634
  21363694.009   -21455631.832 9 -16702413.36447  21363694.192    21363696.1434
  23073647.751   -13617435.184 8 -10594483.75146  23073647.506    23073651.0914
  24406712.086    -4254876.569 8  -3292054.00645  24406711.885    24406715.7834
  20227956.997   -27599252.955 9 -21488512.42448  20227956.447    20227958.7564
  23643200.666    -8949718.574 8  -6694118.85145  23643200.802    23643203.2264
 00  1 21  2  9 30.0000000  0  7 24 10 30 06 09 05 04
  20900599.212   -23282203.775 9 -18099090.29047  20900598.976    20900601.7944
  21758863.609   -17461019.707 8 -13592846.96847  21758862.783    21758866.1954
  21351306.277   -21520729.450 9 -16753138.74547  21351306.488    21351308.4334
  23060970.385   -13684054.998 8 -10646395.23246  23060970.162    23060973.7114
  24424082.698    -4163593.401 8  -3220924.24945  24424082.400    24424086.3204
  20230229.695   -27587309.834 9 -21479206.09148  20230229.144    20230231.4364
  23661700.852    -8852499.559 8  -6618363.78345  23661700.986    23661703.4274
 00  1 21  2 10  0.0000000  0  7 24 10 30 06 09 05 04
  20910751.813   -23228851.592 9 -18057517.15247  20910751.568    20910754.3964
  21744797.902   -17534935.284 8 -13650443.48047  21744797.090    21744800.4644
  21339002.743   -21585384.924 9 -16803519.59547  21339002.936    21339004.8674
  23048305.299   -13750610.357 8 -10698256.49146  23048305.070    23048308.5914
  24441449.053    -4072332.419 7  -3149811.78745  24441448.767    24441452.6384
  20232611.922   -27574791.133 9 -21469451.25548  20232611.385    20232613.6644
  23680209.508    -8755235.754 8  -6542573.81545  23680209.592    23680212.2154
 00  1 21  2 10 30.0000000  0  7 24 10 30 06 09 05 04
  20920966.202   -23175174.383 9 -18015690.74647  20920965.977    20920968.7954
  21730811.172   -17608435.875 8 -13707716.61747  21730810.363    21730813.7494
  21326782.371   -21649603.483 9 -16853559.99447  21326782.566    21326784.4734
  23035654.821   -13817088.333 8 -10750057.44346  23035654.659    23035658.1544
  24458810.326    -3981097.416 7  -3078719.56745  24458810.098    24458814.0874
  20235102.823   -27561701.455 9 -21459251.49748  20235102.280    20235104.5564
  23698725.392    -8657933.580 8  -6466753.93945  23698725.574    23698728.1314
 00  1 21  2 11  0.0000000  0  7 24 10 30 06 09 05 04
  20931239.362   -23121188.449 9 -17973623.77347  20931239.115    20931241.9614
  21716906.384   -17681505.927 8 -13764654.27247  21716905.579    21716908.9584
  21314643.748   -21713392.012 9 -16903265.30447  21314643.929    21314645.8724
  23023018.245   -13883493.390 8 -10801801.57746  23023018.116    23023021.5744
  24476165.418    -3889895.629 7  -3007653.24845  24476165.284    24476169.2464
  20237698.497   -27548061.017 9 -21448622.57848  20237697.943    20237700.2274
  23717249.874    -8560586.587 8  -6390899.14945  23717250.009    23717252.7314
 00  1 21  2 11 30.0000000  0  7 24 10 30 06 09 05 04
  20941565.730   -23066922.937 9 -17931338.94947  20941565.506    20941568.3534
  21703083.850   -17754143.683 8 -13821255.07047  21703083.048    21703086.4454
  21302584.736   -21776762.073 9 -16952644.53647  21302584.957    21302586.9114
  23010392.057   -13949844.111 8 -10853503.37646  23010391.897    23010395.3794
  24493511.931    -3798739.442 7  -2936622.44745  24493511.734    24493515.5544
  20240395.485   -27533888.222 9 -21437578.83248  20240394.936    20240397.2324
  23735780.531    -8463207.336 7  -6315019.22645  23735780.671    23735783.4454
 00  1 21  2 12  0.0000000  0  7 24 10 30 06 09 05 04
  20951940.789   -23012401.775 9 -17888854.91647  20951940.553    20951943.3734
  21689345.442   -17826339.306 8 -13877511.35347  21689344.619    21689348.0224
  21290603.208   -21839725.322 9 -17001706.77547  21290603.432    21290605.3764
  22997773.205   -14016156.494 8 -10905175.30646  22997773.103    22997776.5014
  24510848.628    -3707634.221 7  -2865631.37045  24510848.464    24510852.2714
  20243190.662   -27519199.611 9 -21426133.15348  20243190.101    20243192.3944
  23754313.965    -8365813.637 8  -6239128.03945  23754314.071    23754316.8244
 00  1 21  2 12 30.0000000  0  7 24 10 30 06 09 05 04
  20962362.481   -22957635.347 9 -17846179.76947  20962362.238    20962365.0474
  21675689.896   -17898099.804 8 -13933428.58047  21675689.043    21675692.4184
  21278695.447   -21902300.826 9 -17050466.88247  21278695.685    21278697.5844
  22985158.291   -14082448.436 8 -10956831.31446  22985158.146    22985161.5434
  24528173.837    -3616589.448 7  -2794687.37945  24528173.669    24528177.4864
  20246083.600   -27503997.005 9 -21414286.96448  20246083.028    20246085.3214
  23772849.010    -8268411.588 8  -6163230.34245  23772849.129    23772851.7854
 00  1 21  2 13  0.0000000  0  7 24 10 30 06 09 05 04
  20972832.288   -22902616.363 9 -17803307.82447  20972832.031    20972834.8264
  21662116.970   -17969425.666 8 -13989007.12347  21662116.149    21662119.5064
  21266863.871   -21964476.013 9 -17098915.04347  21266864.096    21266865.9774
  22972544.711   -14148732.797 8 -11008481.41146  22972544.588    22972547.9494
  24545485.437    -3525616.539 7  -2723799.39045  24545485.235    24545489.0444
  20249073.491   -27488284.951 9 -21402043.79748  20249072.929    20249075.2114
  23791384.820    -8171005.571 8  -6087329.53645  23791384.897    23791387.4654
 00  1 21  2 13 30.0000000  0  7 24 10 30 06 09 05 04
  20983352.369   -22847332.860 9 -17760229.76047  20983352.127    20983354.8914
  21648624.273   -18040330.073 8 -14044257.26147  21648623.420    21648626.7734
  21255109.311   -22026246.877 9 -17147048.15547  21255109.524    21255111.3654
  22959935.183   -14214996.326 8 -11060115.26246  22959935.028    22959938.3464
  24562781.065    -3434727.342 7  -2652976.64145  24562780.771    24562784.6644
  20252161.955   -27472054.953 9 -21389397.04048  20252161.410    20252163.6864
  23809922.051    -8073591.963 8  -6011422.82045  23809922.124    23809924.6454
 00  1 21  2 14  0.0000000  0  7 24 10 30 06 09 05 04
  20993925.023   -22791773.276 9 -17716936.56947  20993924.758    20993927.5284
  21635212.823   -18110807.335 8 -14099174.56247  21635211.984    21635215.3604
  21243434.111   -22087600.280 9 -17194855.96947  21243434.336    21243436.1734
  22947332.235   -14281225.359 8 -11111722.25546  22947332.013    22947335.3434
  24580059.785    -3343926.206 7  -2582222.53045  24580059.569    24580063.5804
  20255348.642   -27455308.687 9 -21376347.99548  20255348.074    20255350.3684
  23828461.075    -7976169.167 8  -5935508.93345  23828461.120    23828463.5264
 00  1 21  2 14 30.0000000  0  7 24 10 30 06 09 05 04
  21004552.003   -22735928.025 9 -17673420.78147  21004551.771    21004554.5324
  21621881.141   -18180865.650 8 -14153765.41347  21621880.284    21621883.6794
  21231840.736   -22148523.845 9 -17242328.85047  21231840.942    21231842.7744
  22934734.894   -14347424.489 8 -11163305.93246  22934734.713    22934738.0284
  24597321.063    -3253217.954 7  -2511540.76845  24597320.829    24597324.8104
  20258636.672   -27438029.933 9 -21362884.02748  20258636.108    20258638.3954
  23847002.736    -7878731.876 8  -5859583.77445  23847002.754    23847005.2494
 00  1 21  2 15  0.0000000  0  7 24 10 30 06 09 05 04
  21015235.406   -22679786.543 9 -17629674.16647  21015235.146    21015237.9234
  21608630.023   -18250500.373 8 -14208026.19347  21608629.188    21608632.5754
  21220334.865   -22208987.473 9 -17289443.33447  21220335.058    21220336.8834
  22922146.007   -14413579.683 8 -11214855.38646  22922145.809    22922149.0534
  24614565.841    -3162596.207 7  -2440926.42045  24614565.601    24614569.6054
  20262026.909   -27420214.136 9 -21349001.58448  20262026.341    20262028.6294
  23865548.150    -7781274.829 8  -5783643.21145  23865548.235    23865550.6584
 00  1 21  2 15 30.0000000  0  7 24 10 30 06 09 05 04
  21025972.928   -22623360.098 9 -17585705.50147  21025972.702    21025975.4704
  21595457.771   -18319720.939 8 -14261964.25247  21595456.926    21595460.2814
  21208915.192   -22268998.282 9 -17336204.97747  21208915.383    21208917.1814
  22909569.601   -14479669.611 8 -11266353.97946  22909569.345    22909572.5264
  24631799.738    -3072031.813 7  -2370356.76645  24631799.440    24631803.5204
  20265522.004   -27401847.187 9 -21334689.67448  20265521.441    20265523.7174
  23884094.849    -7683811.275 8  -5707697.58345  23884094.814    23884097.3274
 00  1 21  2 16  0.0000000  0  7 24 10 30 06 09 05 04
  21036763.816   -22566653.655 9 -17541518.65047  21036763.582    21036766.3504
  21582365.521   -18388521.115 8 -14315574.73247  21582364.660    21582367.9834
  21197583.212   -22328548.260 9 -17382607.52347  21197583.388    21197585.1824
  22897004.027   -14545701.755 8 -11317807.54546  22897003.765    22897006.9534
  24649026.148    -2981506.316 8  -2299817.42345  24649025.854    24649030.0494
  20269124.310   -27382916.927 9 -21319938.81748  20269123.748    20269126.0354
  23902641.259    -7586348.887 8  -5631752.85545  23902641.435    23902643.8174
 00  1 21  2 16 30.0000000  0  7 24 10 30 06 09 05 04
  21047607.572   -22509669.084 9 -17497115.08247  21047607.355    21047610.1144
  21569354.368   -18456895.084 8 -14368853.10947  21569353.528    21569356.8394
  21186339.179   -22387635.720 9 -17428649.67247  21186339.353    21186341.1614
  22884450.557   -14611670.169 8 -11369211.45146  22884450.345    22884453.5114
  24666245.808    -2891016.782 8  -2229306.11845  24666245.643    24666249.7114
  20272836.941   -27363406.799 9 -21304736.11748  20272836.397    20272838.6754
  23921190.398    -7488872.411 8  -5555797.13145  23921190.564    23921192.9794
 00  1 21  2 17  0.0000000  0  7 24 10 30 06 09 05 04
  21058503.271   -22452411.838 9 -17452499.03447  21058503.032    21058505.8034
  21556425.404   -18524836.839 8 -14421794.68347  21556424.568    21556427.9014
  21175181.285   -22446270.614 9 -17474339.16847  21175181.477    21175183.3024
  22871912.285   -14677559.260 8 -11420553.54346  22871912.025    22871915.1954
  24683456.448    -2800574.660 7  -2158831.73245  24683456.219    24683460.2034
  20276656.597   -27343334.431 9 -21289095.30448  20276656.043    20276658.3164
  23939742.852    -7391378.969 7  -5479828.20845  23939742.931    23939745.3864
 00  1 21  2 17 30.0000000  0  7 24 10 30 06 09 05 04
  21069449.933   -22394886.751 9 -17407674.28147  21069449.703    21069452.4424
  21543581.776   -18592330.398 8 -14474387.02447  21543580.939    21543584.2484
  21164105.816   -22504472.545 9 -17519691.29347  21164106.004    21164107.8044
  22859386.407   -14743383.357 8 -11471844.99946  22859386.146    22859389.2244
  24700654.111    -2710200.017 8  -2088409.95145  24700653.933    24700657.9624
  20280582.006   -27322706.252 9 -21273021.39448  20280581.456    20280583.7304
  23958297.577    -7293873.488 7  -5403849.88945  23958297.606    23958300.1684
 00  1 21  2 18  0.0000000  0  7 24 10 30 06 09 05 04
  21080448.333   -22337089.840 9 -17362637.71447  21080448.099    21080450.8324
  21530827.129   -18659356.343 8 -14526614.99847  21530826.319    21530829.5954
  21153113.555   -22562237.168 9 -17564702.66047  21153113.764    21153115.5534
  22846870.406   -14809155.192 8 -11523095.71746  22846870.141    22846873.1734
  24717832.717    -2619926.049 7  -2018066.59145  24717832.521    24717836.5184
  20284608.359   -27301547.602 9 -21256534.13348  20284607.798    20284610.0764
  23976856.377    -7196345.715 7  -5327854.22945  23976856.459    23976858.9124
 00  1 21  2 18 30.0000000  0  7 24 10 30 06 09 05 04
  21091495.895   -22279034.478 9 -17317399.75847  21091495.642    21091498.3894
  21518162.158   -18725911.080 8 -14578475.78747  21518161.337    21518164.5924
  21142203.498   -22619569.832 9 -17609377.43047  21142203.697    21142205.4364
  22834364.434   -14874874.487 8 -11574305.50146  22834364.149    22834367.1494
  24734987.857    -2529775.755 7  -1947819.62745  24734987.644    24734991.6024
  20288729.317   -27279891.915 9 -21239659.56548  20288728.745    20288731.0394
  23995417.464    -7098805.775 7  -5251849.07245  23995417.549    23995420.1424
 00  1 21  2 19  0.0000000  0  7 24 10 30 06 09 05 04
  21102588.437   -22220742.547 9 -17271977.46347  21102588.202    21102590.9644
  21505585.760   -18792000.290 9 -14629973.83247  21505584.943    21505588.1544
  21131374.329   -22676477.530 9 -17653721.06147  21131374.524    21131376.2284
  22821865.464   -14940556.713 8 -11625486.38746  22821865.212    22821868.1894
  24752119.015    -2439750.714 7  -1877670.24745  24752118.755    24752122.7604
  20292941.213   -27257758.105 9 -21222412.44048  20292940.660    20292942.9624
  24013975.749    -7001280.335 7  -5175855.23145  24013976.030    24013978.6914
 00  1 21  2 19 30.0000000  0  7 24 10 30 06 09 05 04
  21113723.054   -22162229.652 9 -17226382.98347  21113722.824    21113725.6064
  21493096.629   -18857631.173 9 -14681114.74447  21493095.799    21493098.9734
  21120627.571   -22732951.957 9 -17697727.07747  21120627.744    21120629.4924
  22809369.805   -15006221.679 8 -11676653.82946  22809369.582    22809372.4994
  24769227.023    -2349847.680 7  -1807615.95345  24769226.641    24769230.7714
  20297243.676   -27235148.374 9 -21204794.46648  20297243.131    20297245.4374
  24032529.341    -6903779.760 7  -5099880.76445  24032529.666    24032532.4774
 00  1 21  2 20  0.0000000  0  7 24 10 30 06 09 05 04
  21124897.575   -22103507.224 9 -17180625.23247  21124897.318    21124900.1004
  21480691.952   -18922818.135 9 -14731909.73947  21480691.127    21480694.2504
  21109965.651   -22788980.401 9 -17741385.57547  21109965.835    21109967.5664
  22796875.842   -15071877.746 8 -11727814.33846  22796875.612    22796878.4944
  24786313.768    -2260056.931 7  -1737649.15445  24786313.232    24786317.3784
  20301636.639   -27212063.065 9 -21186805.91048  20301636.100    20301638.4054
  24051078.297    -6806304.378 7  -5023925.91445  24051078.535    24051081.3364
 00  1 21  2 20 30.0000000  0  7 24 10 30 06 09 05 04
  21136111.007   -22044580.095 9 -17134707.97447  21136110.765    21136113.5604
  21468370.695   -18987566.741 9 -14782363.15947  21468369.857    21468372.9704
  21099389.280   -22844559.598 9 -17784694.00847  21099389.477    21099391.1834
  22784381.740   -15137534.614 8 -11778975.47546  22784381.491    22784384.3574
  24803380.872    -2170368.064 7  -1667761.76245  24803380.497    24803384.4474
  20306125.293   -27188475.133 9 -21168425.70148  20306124.742    20306127.0594
  24069620.507    -6708864.850 7  -4947999.03045  24069620.718    24069623.4704
 00  1 21  2 21  0.0000000  0  7 24 10 30 06 09 05 04
  21147367.505   -21985426.671 9 -17088614.38447  21147367.272    21147370.0684
  21456134.435   -19051868.504 9 -14832468.39247  21456133.568    21456136.7144
  21088901.138   -22899674.984 9 -17827641.03247  21088901.338    21088903.0544
  22771887.908   -15203189.710 8 -11830135.22146  22771887.670    22771890.5674
  24820430.726    -2080769.511 7  -1597944.71645  24820430.334    24820434.3924
  20310716.340   -27164348.958 9 -21149626.08248  20310715.784    20310718.1224
  24088156.924    -6611456.304 8  -4872096.25245  24088157.106    24088159.8104
 00  1 21  2 21 30.0000000  0  7 24 10 30 06 09 05 04
  21158672.838   -21926016.755 9 -17042320.92747  21158672.596    21158675.3834
  21443987.697   -19115699.613 9 -14882206.88247  21443986.857    21443990.0094
  21078504.302   -22954310.516 9 -17870214.14047  21078504.495    21078506.2264
  22759396.316   -15268832.770 8 -11881285.59446  22759396.128    22759399.0534
  24837463.952    -1991259.233 7  -1528196.45145  24837463.601    24837467.6764
  20315414.888   -27139657.900 9 -21130386.29348  20315414.351    20315416.6634
  24106691.155    -6514058.327 8  -4796201.72645  24106691.355    24106694.1314
 00  1 21  2 22  0.0000000  0  7 24 10 30 06 09 05 04
  21170030.750   -21866330.453 9 -16995812.10247  21170030.513    21170033.2894
  21431934.756   -19179038.021 9 -14931561.44647  21431933.931    21431937.1014
  21068199.962   -23008460.135 9 -17912408.61747  21068200.129    21068201.8654
  22746909.947   -15334448.918 8 -11932414.99946  22746909.732    22746912.6614
  24854482.404    -1901826.528 7  -1458508.65245  24854482.229    24854486.0774
  20320225.269   -27114379.321 9 -21110688.69748  20320224.711    20320227.0234
  24125225.367    -6416660.618 8  -4720307.40345  24125225.534    24125228.3384
 00  1 21  2 22 30.0000000  0  7 24 10 30 06 09 05 04
  21181441.868   -21806364.617 9 -16949085.46447  21181441.653    21181444.4074
  21419978.826   -19241866.876 9 -14980518.96147  21419978.008    21419981.1464
  21057987.354   -23062127.534 9 -17954227.34147  21057987.519    21057989.2524
  22734435.129   -15400003.942 8 -11983496.78346  22734434.949    22734437.8744
  24871485.887    -1812473.142 7  -1388882.64045  24871485.619    24871489.4874
  20325148.368   -27088508.331 9 -21090529.48448  20325147.823    20325150.1154
  24143760.537    -6319258.118 8  -4644409.35445  24143760.682    24143763.3394
 00  1 21  2 23  0.0000000  0  7 24 10 30 06 09 05 04
  21192906.101   -21746119.675 9 -16902141.33747  21192905.867    21192908.6224
  21408120.097   -19304184.831 9 -15029078.36847  21408119.247    21408122.4084
  21047864.848   -23115321.615 9 -17995677.24647  21047865.016    21047866.7414
  22721975.049   -15465481.786 8 -12034518.41246  22721974.864    22721977.7944
  24888472.593    -1723207.920 7  -1319325.35445  24888472.289    24888476.0694
  20330180.664   -27062063.406 9 -21069923.04548  20330180.089    20330182.4034
  24162298.468    -6221841.259 8  -4568500.11645  24162298.499    24162301.1144
 00  1 21  2 23 30.0000000  0  7 24 10 30 06 09 05 04
  21204419.975   -21685613.519 9 -16854993.67247  21204419.756    21204422.4994
  21396356.556   -19366002.544 9 -15077247.98247  21396355.701    21396358.8484
  21037829.857   -23168055.774 9 -18036768.77547  21037830.043    21037831.7464
  22709528.902   -15530886.658 8 -12085483.19446  22709528.740    22709531.6174
  24905440.039    -1634042.774 7  -1249846.04245  24905439.843    24905443.5524
  20335318.562   -27035063.506 9 -21048884.16548  20335317.992    20335320.2894
  24180838.225    -6124414.684 8  -4492583.30245  24180838.214    24180840.8134
 00  1 21  2 24  0.0000000  0  7 24 10 30 06 09 05 04
  21215980.236   -21624863.850 9 -16807656.25347  21215980.023    21215982.7794
  21384684.457   -19427339.659 9 -15125043.10547  21384683.602    21384686.7434
  21027882.244   -23220330.712 9 -18077502.46447  21027882.420    21027884.1214
  22697097.456   -15596214.251 8 -12136387.74746  22697097.267    22697100.1334
  24922386.256    -1544990.653 7  -1180454.80845  24922385.931    24922389.7464
  20340558.959   -27007525.050 9 -21027425.62548  20340558.384    20340560.6904
  24199377.519    -6026990.007 8  -4416667.97045  24199377.499    24199380.0874
 00  1 21  2 24 30.0000000  0  7 24 10 30 06 09 05 04
  21227584.710   -21563882.021 9 -16760137.92547  21227584.489    21227587.2244
  21373101.237   -19488209.735 9 -15172474.29747  21373100.361    21373103.4944
  21018023.251   -23272139.843 9 -18117873.18547  21018023.425    21018025.1404
  22684679.420   -15661470.733 8 -12187236.89046  22684679.244    22684682.1084
  24939306.383    -1456075.042 7  -1111169.92845  24939306.098    24939310.0464
  20345898.807   -26979464.008 9 -21005559.87748  20345898.248    20345900.5424
  24217915.147    -5929573.928 8  -4340759.33245  24217915.176    24217917.7674
 00  1 21  2 25  0.0000000  0  7 24 10 30 06 09 05 04
  21239233.347   -21502668.165 9 -16712438.80247  21239233.115    21239235.8544
  21361605.490   -19548619.935 9 -15219547.14847  21361604.639    21361607.7614
  21008256.908   -23323462.328 9 -18157864.70147  21008257.066    21008258.7774
  22672270.419   -15726680.116 8 -12238049.34146  22672270.274    22672273.1444
  24956200.768    -1367294.899 7  -1041990.60345  24956200.332    24956204.5164
  20351338.842   -26950876.428 9 -20983283.83848  20351338.262    20351340.5684
  24236451.015    -5832167.207 8  -4264857.98745  24236451.024    24236453.6654
 00  1 21  2 25 30.0000000  0  7 24 10 30 06 09 05 04
  21250926.189   -21441221.734 9 -16664558.45547  21250925.940    21250928.6794
  21350198.958   -19608561.720 9 -15266255.00147  21350198.095    21350201.1944
  20998586.704   -23374279.534 9 -18197462.49947  20998586.851    20998588.5654
  22659870.023   -15791844.248 8 -12288826.53446  22659869.859    22659872.7404
  24973070.560    -1278643.876 7   -972911.86845  24973070.084    24973074.2334
  20356880.918   -26921752.663 9 -20960589.99348  20356880.365    20356882.6674
  24254984.385    -5734773.418 7  -4188966.73245  24254984.424    24254987.1374
 00  1 21  2 26  0.0000000  0  6 24 10 30 06 05 04
  21262670.012   -21379507.593 9 -16616469.49547  21262669.770    21262672.5024
  21338891.650   -19667981.716 9 -15312556.26347  21338890.803    21338893.8914
  20989022.355   -23424540.416 9 -18236626.79447  20989022.522    20989024.2194
  22647488.444   -15856909.613 8 -12339526.76146  22647488.270    22647491.1244
  20362531.464   -26892058.848 9 -20937451.95348  20362530.903    20362533.1934
  24273522.755    -5637353.742 7  -4113055.29245  24273522.700    24273525.3434
 00  1 21  2 26 30.0000000  0  6 24 10 30 06 05 04
  21274460.077   -21317550.446 9 -16568191.18847  21274459.838    21274462.5444
  21327682.120   -19726888.083 9 -15358457.29647  21327681.293    21327684.3864
  20979558.075   -23474275.387 9 -18275381.29347  20979558.234    20979559.9354
  22635121.816   -15921896.690 8 -12390166.00146  22635121.652    22635124.4154
  20368285.886   -26861819.139 9 -20913888.54748  20368285.310    20368287.6044
  24292060.545    -5539936.354 7  -4037145.62445  24292060.577    24292063.3344
 00  1 21  2 27  0.0000000  0  6 24 10 30 06 05 04
  21286289.521   -21255386.138 9 -16519751.45147  21286289.279    21286292.0244
  21316566.738   -19785299.759 9 -15403972.85547  21316565.898    21316568.9904
  20970185.073   -23523530.551 9 -18313761.90747  20970185.253    20970186.9624
  22622764.856   -15986832.856 8 -12440765.55046  22622764.706    22622767.4534
  20374138.386   -26831064.078 9 -20889923.56148  20374137.828    20374140.1234
  24310590.903    -5442558.041 7  -3961266.40845  24310591.028    24310593.8344
 00  1 21  2 27 30.0000000  0  6 24 10 30 06 05 04
  21298157.106   -21193021.436 9 -16471155.56847  21298156.863    21298159.6164
  21305545.791   -19843214.941 9 -15449101.53947  21305544.948    21305548.0454
  20960899.718   -23572325.308 9 -18351783.77347  20960899.921    20960901.6064
  22610417.331   -16051719.491 8 -12491326.53146  22610417.114    22610419.8834
  20380086.647   -26799805.766 9 -20865566.43948  20380086.070    20380088.3634
  24329110.832    -5345234.991 7  -3885430.27745  24329110.938    24329113.8844
 00  1 21  2 28  0.0000000  0  6 24 10 30 06 05 04
  21310060.089   -21130470.613 9 -16422414.64947  21310059.843    21310062.6244
  21294618.040   -19900640.674 9 -15493848.82947  21294617.203    21294620.3124
  20951698.395   -23620678.509 9 -18389461.55747  20951698.581    20951700.2654
  22598076.627   -16116570.385 8 -12541859.63646  22598076.417    22598079.1294
  20386128.966   -26768053.137 9 -20840824.12848  20386128.387    20386130.6974
  24347618.895    -5247973.978 7  -3809642.48845  24347618.984    24347621.9344
 00  1 21  2 28 30.0000000  0  6 24 10 30 06 05 04
  21321998.685   -21067732.614 9 -16373527.88347  21321998.458    21322001.2354
  21283783.558   -19957576.226 9 -15538214.16247  21283782.724    21283785.8304
  20942581.589   -23668587.628 9 -18426793.31547  20942581.792    20942583.4384
  22585738.212   -16181408.875 8 -12592383.09646  22585737.989    22585740.7264
  20392267.301   -26735795.992 9 -20815688.69448  20392266.718    20392269.0244
  24366116.739    -5150767.481 7  -3733897.16145  24366116.838    24366119.6974
 00  1 21  2 29  0.0000000  0  6 24 10 30 06 05 04
  21333974.915   -21004797.016 9 -16324487.13947  21333974.677    21333977.4654
  21273044.875   -20014008.220 9 -15582187.11447  21273044.038    21273047.1214
  20933554.021   -23716027.761 9 -18463759.62547  20933554.222    20933555.8474
  22573403.030   -16246230.109 8 -12642893.10346  22573402.858    22573405.6194
  20398504.729   -26703018.084 9 -20790147.47248  20398504.149    20398506.4614
  24384605.103    -5053609.624 7  -3658189.73145  24384605.248    24384608.0694
 00  1 21  2 29 30.0000000  0  6 24 10 30 06 05 04
  21345990.815   -20941653.060 9 -16275284.05047  21345990.568    21345993.3744
  21262404.979   -20069921.082 9 -15625755.54747  21262404.144    21262407.2114
  20924619.594   -23762978.282 9 -18500344.42147  20924619.797    20924621.4174
  22561073.077   -16311024.391 8 -12693382.10946  22561072.874    22561075.6514
  20404844.214   -26669703.886 9 -20764188.35448  20404843.631    20404845.9364
  24403085.949    -4956492.266 7  -3582513.88045  24403086.144    24403088.9964
 00  1 21  2 30  0.0000000  0  6 24 10 30 06 05 04
  21358046.165   -20878301.662 9 -16225919.31247  21358045.932    21358048.7174
  21251864.672   -20125310.323 9 -15668915.96147  21251863.851    21251866.9314
  20915779.455   -23809433.498 9 -18536543.26747  20915779.667    20915781.2694
  22548750.780   -16375778.261 8 -12743839.62846  22548750.595    22548753.3604
  20411286.543   -26635849.109 9 -20737808.01248  20411285.961    20411288.2474
  24421560.722    -4859407.213 7  -3506863.17245  24421560.685    24421563.4604
 00  1 21  2 30 30.0000000  0  6 24 10 30 06 05 04
  21370142.986   -20814732.483 9 -16176384.87647  21370142.748    21370145.5214
  21241424.258   -20180175.084 9 -15711667.68947  21241423.419    21241426.5054
  20907037.106   -23855374.808 9 -18572341.66347  20907037.299    20907038.9134
  22536437.979   -16440482.144 8 -12794258.20246  22536437.829    22536440.5374
  20417831.970   -26601452.664 9 -20711005.58948  20417831.399    20417833.6964
  24440027.300    -4762365.573 7  -3431246.29045  24440027.181    24440029.7914
 00  1 21  2 31  0.0000000  0  6 24 10 30 06 05 04
  21382283.300   -20750934.715 9 -16126672.31847  21382283.063    21382285.8184
  21231085.022   -20234507.973 9 -15754004.97447  21231084.186    21231087.2554
  20898392.768   -23900801.261 9 -18607738.87647  20898392.944    20898394.5364
  22524139.168   -16505112.698 8 -12844619.62546  22524138.963    22524141.6854
  20424482.119   -26566505.818 9 -20683774.28448  20424481.546    20424483.8514
  24458485.238    -4665368.208 7  -3355663.90245  24458485.103    24458487.5684
 00  1 21  2 31 30.0000000  0  6 24 10 30 06 05 04
  21394468.404   -20686901.484 9 -16076776.28547  21394468.158    21394470.9274
  21220846.045   -20288313.990 9 -15795931.70547  21220845.215    21220848.2834
  20889846.165   -23945713.753 9 -18642735.60147  20889846.340    20889847.9384
  22511855.338   -16569664.508 8 -12894919.69746  22511855.107    22511857.8524
  20431236.636   -26531010.585 9 -20656115.66348  20431236.070    20431238.3724
  24476939.258    -4568391.496 7  -3280097.60945  24476939.267    24476941.7634
 00  1 21  2 32  0.0000000  0  6 24 10 30 06 05 04
  21406697.656   -20622636.209 9 -16026699.43447  21406697.402    21406700.1804
  21210705.254   -20341604.073 9 -15837456.40947  21210704.445    21210707.4924
  20881397.809   -23990109.995 9 -18677330.04947  20881397.999    20881399.6024
  22499588.292   -16634128.052 8 -12945150.98746  22499588.059    22499590.7964
  20438093.474   -26494977.745 9 -20628038.12648  20438092.913    20438095.2024
  24495388.264    -4471441.082 7  -3204551.82045  24495388.266    24495390.8874
 00  1 21  2 32 30.0000000  0  6 24 10 30 06 05 04
  21418972.148   -20558133.359 9 -15976437.46747  21418971.884    21418974.6324
  21200663.826   -20394372.209 9 -15878574.40847  21200663.016    21200666.0484
  20873049.463   -24033980.560 9 -18711514.88747  20873049.658    20873051.2624
  22487337.438   -16698506.387 8 -12995315.88746  22487337.230    22487339.9704
  20445051.942   -26458410.750 9 -20599544.37248  20445051.365    20445053.6544
  24513832.993    -4374513.543 7  -3129023.87245  24513832.977    24513835.5314
 00  1 21  2 33  0.0000000  0  6 24 10 30 06 05 04
  21431289.027   -20493407.701 9 -15926001.87847  21431288.777    21431291.4854
  21190723.078   -20446611.034 9 -15919279.95147  21190722.258    21190725.2804
  20864799.402   -24077334.815 9 -18745297.40247  20864799.610    20864801.1934
  22475101.735   -16762805.267 8 -13045418.86846  22475101.531    22475104.2614
  20452109.507   -26421323.079 9 -20570644.88848  20452108.930    20452111.2084
  24532275.080    -4277600.111 7  -3053506.90045  24532274.950    24532277.4994
 00  1 21  2 33 30.0000000  0  6 24 10 30 06 05 04
  21443643.622   -20428484.003 9 -15875411.97747  21443643.365    21443646.0444
  21180880.957   -20498331.584 9 -15959581.64947  21180880.122    21180883.1504
  20856646.459   -24120178.727 9 -18778682.24647  20856646.654    20856648.2374
  22462878.823   -16827036.847 8 -13095469.40246  22462878.613    22462881.3654
  20459262.225   -26383735.137 9 -20541355.58948  20459261.648    20459263.9404
  24550711.335    -4180716.285 7  -2978013.00545  24550711.336    24550713.9524
 00  1 21  2 34  0.0000000  0  6 24 10 30 06 05 04
  21456030.853   -20363388.793 9 -15824688.43247  21456030.559    21456033.2634
  21171138.399   -20549528.838 9 -15999475.58047  21171137.556    21171140.5834
  20848588.800   -24162522.122 9 -18811677.08047  20848589.002    20848590.5374
  22450664.805   -16891221.936 8 -13145483.71146  22450664.578    22450667.3224
  20466507.174   -26345662.613 9 -20511688.68948  20466506.602    20466508.9004
  24569135.920    -4083894.934 7  -2902567.77945  24569135.971    24569138.4994
 00  1 21  2 34 30.0000000  0  6 24 10 30 06 05 04
  21468446.276   -20298145.144 9 -15773849.21547  21468445.994    21468448.7154
  21161497.071   -20600194.372 9 -16038955.18547  21161496.231    21161499.2244
  20840625.323   -24204370.619 9 -18844286.27747  20840625.505    20840627.0124
  22438454.605   -16955386.982 8 -13195482.40646  22438454.361    22438457.0634
  20473844.104   -26307106.884 9 -20481645.27148  20473843.513    20473845.8174
  24587548.348    -3987136.609 7  -2827171.68245  24587548.544    24587551.0544
 00  1 21  2 35  0.0000000  0  7 24 10 17 30 06 05 04
  21480865.534   -20232881.403 9 -15722994.34447  21480865.266    21480867.9774
  21151934.684   -20650444.870 9 -16078111.38847  21151933.851    21151936.8204
  25063202.331    -1934790.751 7  -1012066.94345  25063201.506    25063206.8474
  20832732.699   -24245846.501 9 -18876605.12847  20832732.879    20832734.3784
  22426226.493   -17019646.094 8 -13245554.39846  22426226.267    22426228.9204
  20481253.058   -26268172.641 9 -20451306.90648  20481252.474    20481254.7484
  24605924.055    -3890571.787 7  -2751926.34845  24605924.313    24605926.7924
 00  1 21  2 35 30.0000000  0  7 24 10 17 30 06 05 04
  21493324.327   -20167410.005 9 -15671977.66147  21493324.051    21493326.7934
  21142486.706   -20700094.207 9 -16116799.15147  21142485.892    21142488.8674
  25045802.016    -2026229.517 7  -1083317.76945  25045801.273    25045806.5354
  20824948.704   -24286751.445 9 -18908479.08947  20824948.888    20824950.3974
  22414017.148   -17083806.341 8 -13295549.34646  22414016.949    22414019.6104
  20488772.303   -26228658.854 9 -20420516.94648  20488771.718    20488774.0034
  24624298.131    -3794016.125 7  -2676688.17845  24624298.272    24624300.6434
 00  1 21  2 36  0.0000000  0  6 24 10 17 30 06 05
  21505816.804   -20101761.465 9 -15620822.94347  21505816.543    21505819.2894
  21133146.756   -20749175.905 9 -16155044.59747  21133145.918    21133148.8844
  25028425.499    -2117543.717 7  -1154471.53145  25028424.762    25028429.9184
  20817269.031   -24327108.484 9 -18939926.11447  20817269.194    20817270.7094
  22401818.172   -17147912.133 8 -13345501.86346  22401817.964    22401820.5844
  20496393.464   -26188609.477 9 -20389309.64348  20496392.882    20496395.1724
 00  1 21  2 36 30.0000000  0  6 24 10 17 30 06 05
  21518346.113   -20035919.520 9 -15569517.52047  21518345.849    21518348.5924
  21123912.275   -20797703.262 9 -16192858.09147  21123911.451    21123914.4084
  25011077.045    -2208709.615 8  -1225509.73245  25011076.323    25011081.4204
  20809695.599   -24366907.080 9 -18970937.98647  20809695.767    20809697.2654
  22389631.186   -17211955.089 8 -13395405.41046  22389630.981    22389633.6014
  20504117.635   -26148018.670 9 -20357680.44948  20504117.065    20504119.3394
 00  1 21  2 37  0.0000000  0  6 24 10 17 30 06 05
  21530922.878   -19969828.005 9 -15518017.63047  21530922.632    21530925.4024
  21114787.575   -20845653.687 9 -16230222.02847  21114786.757    21114789.7074
  24993767.913    -2299669.079 7  -1296387.09345  24993767.225    24993772.4054
  20802235.924   -24406107.872 9 -19001484.04547  20802236.102    20802237.5604
  22377464.787   -17275889.946 8 -13445224.72146  22377464.584    22377467.1874
  20511950.913   -26106854.715 9 -20325604.64848  20511950.332    20511952.6084
 00  1 21  2 37 30.0000000  0  6 24 10 17 30 06 05
  21543544.658   -19903499.999 9 -15466333.45847  21543544.415    21543547.1794
  21105769.373   -20893044.595 9 -16267149.97047  21105768.521    21105771.4804
  24976493.875    -2390443.877 7  -1367120.55245  24976493.304    24976498.4514
  20794889.830   -24444711.902 9 -19031565.08647  20794890.007    20794891.4404
  22365315.919   -17339732.427 8 -13494972.06046  22365315.724    22365318.2854
  20519888.301   -26065143.454 9 -20293102.37148  20519887.717    20519889.9834
 00  1 21  2 38  0.0000000  0  6 24 10 17 30 06 05
  21556210.313   -19836941.452 9 -15414469.64747  21556210.056    21556212.8354
  21096856.037   -20939884.468 9 -16303648.54247  21096855.181    21096858.1084
  24959253.244    -2481043.411 7  -1437717.44845  24959252.649    24959257.6684
  20787654.298   -24482734.635 9 -19061193.17047  20787654.466    20787655.9154
  22353185.146   -17403479.773 8 -13544645.26446  22353184.972    22353187.5034
  20527930.131   -26022883.214 9 -20260172.32248  20527929.560    20527931.8374
 00  1 21  2 38 30.0000000  0  6 24 10 17 30 06 05
  21568916.976   -19770167.414 9 -15362437.91847  21568916.740    21568919.5004
  21088046.390   -20986179.349 9 -16339722.44047  21088045.540    21088048.4524
  24942046.970    -2571462.379 7  -1508173.66345  24942046.461    24942051.3174
  20780524.047   -24520204.343 9 -19090390.32347  20780524.222    20780525.6544
  22341073.308   -17467127.587 8 -13594240.90046  22341073.127    22341075.6464
  20536077.060   -25980070.829 9 -20226812.02748  20536076.500    20536078.7614
 00  1 21  2 39  0.0000000  0  6 24 10 17 30 06 05
  21581659.680   -19703204.135 9 -15310258.73447  21581659.438    21581662.1914
  21079340.763   -21031927.620 9 -16375370.41347  21079339.907    21079342.8224
  24924871.625    -2661718.993 7  -1578503.37645  24924870.961    24924875.7544
  20773493.489   -24557150.065 9 -19119179.18147  20773493.670    20773495.1014
  22328979.639   -17530680.103 8 -13643762.29547  22328979.449    22328981.9454
  20544324.367   -25936731.049 9 -20193040.77548  20544323.791    20544326.0564
 00  1 21  2 39 30.0000000  0  6 24 10 17 30 06 05
  21594433.166   -19636079.063 9 -15257953.46647  21594432.925    21594435.6524
  21070739.531   -21077127.172 9 -16410590.81047  21070738.701    21070741.6314
  24907721.914    -2751840.614 7  -1648727.90445  24907721.174    24907726.1444
  20766559.487   -24593588.433 9 -19147572.69047  20766559.650    20766561.0974
  22316901.000   -17594153.922 8 -13693222.34547  22316900.791    22316903.3084
  20552667.790   -25892886.150 9 -20158875.92048  20552667.214    20552669.4764
 00  1 21  2 40  0.0000000  0  6 24 10 17 30 06 05
  21607235.605   -19568801.845 9 -15205529.65347  21607235.342    21607238.0404
  21062241.395   -21121785.113 9 -16445389.17147  21062240.564    21062243.4714
  24890597.727    -2841828.678 7  -1718848.38145  24890596.759    24890601.8024
  20759717.453   -24629543.460 9 -19175589.57347  20759717.636    20759719.0724
  22304832.896   -17657572.001 8 -13742638.97347  22304832.656    22304835.1844
  20561104.471   -25848551.111 9 -20124329.14148  20561103.894    20561106.1514
 00  1 21  2 40 30.0000000  0  6 24 10 17 30 06 05
  21620064.851   -19501383.834 9 -15152996.12747  21620064.581    21620067.2374
  21053843.823   -21165914.747 9 -16479775.86447  21053842.968    21053845.8664
  24873497.401    -2931691.059 7  -1788870.92545  24873496.476    24873501.3244
  20752966.613   -24665019.304 9 -19203233.06447  20752966.780    20752968.2294
  22292770.791   -17720958.709 8 -13792031.16047  22292770.566    22292773.0604
  20569628.287   -25803758.335 9 -20089425.68448  20569627.713    20569629.9554
 00  1 21  2 41  0.0000000  0  6 24 10 17 30 06 05
  21632919.608   -19433831.545 9 -15100357.97447  21632919.332    21632921.9914
  21045544.856   -21209525.965 9 -16513758.59947  21045544.003    21045546.8944
  24856418.909    -3021438.266 7  -1858803.72045  24856418.060    24856422.8574
  20746310.514   -24699997.234 9 -19230488.57847  20746310.688    20746312.1474
  22280712.141   -17784326.951 8 -13841408.95547  22280711.954    22280714.4224
  20578237.387   -25758517.191 9 -20054172.85148  20578236.813    20578239.0524
 00  1 21  2 41 30.0000000  0  6 24 10 17 30 06 05
  21645802.505   -19366131.293 9 -15047604.52347  21645802.233    21645804.9074
  21037345.170   -21252615.497 9 -16547334.82547  21037344.330    21037347.2054
  24839364.874    -3111057.016 7  -1928636.40945  24839364.206    24839368.9054
  20739754.761   -24734447.909 9 -19257333.23647  20739754.946    20739756.4004
  22268656.713   -17847678.313 8 -13890773.59547  22268656.540    22268658.9974
  20586937.413   -25712798.309 9 -20018547.75148  20586936.840    20586939.0674
 00  1 21  2 42  0.0000000  0  6 24 10 17 30 06 05
  21658717.307   -19298263.620 9 -14994720.61647  21658717.042    21658719.6864
  21029246.846   -21295172.328 9 -16580495.95747  21029245.996    21029248.8774
  24822339.593    -3200524.623 7  -1998351.32145  24822338.832    24822343.7094
  20733303.191   -24768351.008 9 -19283751.21647  20733303.373    20733304.8214
  22256609.970   -17910983.886 8 -13940102.55847  22256609.790    22256612.2984
  20595732.441   -25666580.094 9 -19982533.56348  20595731.872    20595734.1024
 00  1 21  2 42 30.0000000  0  6 24 10 17 30 06 05
  21671664.604   -19230225.152 9 -14941703.62047  21671664.319    21671666.9594
  21021252.004   -21337185.236 9 -16613233.25547  21021251.171    21021254.0324
  24805341.846    -3289848.098 7  -2067953.91445  24805341.140    24805345.9664
  20726957.874   -24801695.645 9 -19309734.02747  20726958.076    20726959.5284
  22244575.168   -17974227.078 8 -13989382.91347  22244574.991    22244577.4714
  20604622.967   -25619860.203 9 -19946128.45948  20604622.397    20604624.6044
 00  1 21  2 43  0.0000000  0  6 24 10 17 30 06 05
  21684643.968   -19162017.819 8 -14888555.03747  21684643.704    21684646.3744
  21013365.895   -21378626.804 9 -16645525.35247  21013365.050    21013367.8724
  24788371.706    -3379026.404 7  -2137443.40245  24788370.938    24788375.8114
  20720720.292   -24834474.472 9 -19335275.94847  20720720.464    20720721.9234
  22232555.775   -18037389.297 8 -14038600.17847  22232555.582    22232558.0174
  20613612.298   -25572620.988 9 -19909318.68448  20613611.714    20613613.9494
 00  1 21  2 43 30.0000000  0  6 24 10 17 30 06 05
  21697655.303   -19093642.778 8 -14835275.78347  21697655.026    21697657.7364
  21005590.414   -21419487.159 9 -16677364.56047  21005589.573    21005592.3834
  24771428.768    -3468061.583 7  -2206821.36245  24771427.938    24771433.0264
  20714588.119   -24866699.050 9 -19360385.99247  20714588.309    20714589.7754
  22220555.235   -18100452.398 8 -14087740.20247  22220555.040    22220557.4054
  20622701.819   -25524855.293 9 -19872098.66748  20622701.261    20622703.4654
 00  1 21  2 44  0.0000000  0  6 24 10 17 30 06 05
  21710694.817   -19025119.646 8 -14781881.13647  21710694.529    21710697.2424
  20997926.876   -21459759.242 9 -16708745.36847  20997926.028    20997928.8404
  24754513.858    -3556949.651 7  -2276084.68945  24754513.058    24754518.0874
  20708559.943   -24898377.330 9 -19385070.34747  20708560.132    20708561.5974
  22208575.133   -18163408.073 8 -14136796.52747  22208574.924    22208577.3004
  20631889.133   -25476575.694 9 -19834478.20548  20631888.561    20631890.7984
 00  1 21  2 44 30.0000000  0  6 24 10 17 30 06 05
  21723759.042   -18956466.588 8 -14728385.23847  21723758.775    21723761.4864
  20990376.038   -21499439.157 9 -16739664.74847  20990375.176    20990377.9654
  24737626.559    -3645692.794 7  -2345235.07145  24737625.798    24737630.6694
  20702637.090   -24929501.999 9 -19409323.31347  20702637.263    20702638.7194
  22196613.019   -18226269.168 8 -14185779.15647  22196612.855    22196615.2084
  20641174.407   -25427781.177 9 -19796456.50748  20641173.833    20641176.0734
 00  1 21  2 45  0.0000000  0  6 24 10 17 30 06 05
  21736848.341   -18887681.731 8 -14674786.64147  21736848.083    21736850.7864
  20982939.480   -21538518.474 9 -16770116.13047  20982938.614    20982941.3974
  24720770.897    -3734269.921 7  -2414256.08945  24720770.107    24720774.8504
  20696820.779   -24960066.875 9 -19433140.08247  20696820.949    20696822.4224
  22184669.431   -18289033.155 8 -14234686.12347  22184669.233    22184671.5624
  20650559.578   -25378461.758 9 -19758025.79548  20650558.996    20650561.2534
 00  1 21  2 45 30.0000000  0  6 24 10 17 30 06 05
  21749965.051   -18818752.964 8 -14621075.90947  21749964.793    21749967.4994
  20975616.002   -21577003.560 9 -16800104.47947  20975615.144    20975617.9134
  24703948.088    -3822673.566 7  -2483141.92745  24703947.253    24703952.1494
  20691111.117   -24990071.130 9 -19456520.00547  20691111.292    20691112.7724
  22172740.394   -18351720.479 8 -14283533.34847  22172740.191    22172742.5164
  20660043.361   -25328624.164 9 -19719191.31248  20660042.780    20660045.0394
 00  1 21  2 46  0.0000000  0  6 24 10 17 30 06 05
  21763110.588   -18749672.885 8 -14567247.27147  21763110.302    21763112.9864
  20968406.146   -21614891.416 9 -16829627.45147  20968405.295    20968408.0794
  24687157.528    -3910907.916 7  -2551895.85045  24687156.727    24687161.4944
  20685507.748   -25019516.974 9 -19479464.80147  20685507.921    20685509.3874
  22160821.771   -18414352.850 8 -14332337.75047  22160821.583    22160823.9344
  20669622.701   -25278284.179 9 -19679965.35448  20669622.138    20669624.4094
 00  1 21  2 46 30.0000000  0  6 24 10 17 30 06 05
  21776288.143   -18680424.317 8 -14513287.34347  21776287.869    21776290.5434
  20961306.934   -21652197.663 9 -16858697.22647  20961306.110    20961308.8624
  24670395.117    -3998995.044 7  -2620535.04945  24670394.341    24670399.0084
  20680007.413   -25048421.333 9 -19501987.66847  20680007.609    20680009.0624
  22148911.861   -18476939.942 8 -14381106.87647  22148911.668    22148913.9964
  20679294.846   -25227456.749 9 -19640359.57148  20679294.272    20679296.5554
 00  1 21  2 47  0.0000000  0  6 24 10 17 30 06 05
  21789497.197   -18611010.269 8 -14459198.47047  21789496.925    21789499.6264
  20954315.566   -21688937.462 9 -16887325.60847  20954314.730    20954317.4914
  24653657.059    -4086953.743 7  -2689074.19345  24653656.389    24653660.9804
  20674605.801   -25076806.892 9 -19524106.26648  20674605.998    20674607.4274
  22137010.402   -18539482.411 8 -14429841.22547  22137010.197    22137012.5214
  20689056.041   -25176161.431 9 -19600389.19648  20689055.465    20689057.7354
 00  1 21  2 47 30.0000000  0  6 24 10 17 30 06 05
  21802734.963   -18541445.418 8 -14404992.08847  21802734.681    21802737.3674
  20947429.023   -21725126.249 9 -16915524.63547  20947428.177    20947430.9524
  24636940.766    -4174798.109 8  -2757524.24045  24636940.081    24636944.5604
  20669303.524   -25104670.442 9 -19545818.11148  20669303.709    20669305.1594
  22125118.655   -18601973.672 8 -14478535.67847  22125118.459    22125120.7834
  20698903.448   -25124412.977 9 -19560065.73348  20698902.868    20698905.1534
 00  1 21  2 48  0.0000000  0  6 24 10 17 30 06 05
  21815998.305   -18471746.206 8 -14350681.00947  21815998.029    21816000.7084
  20940647.725   -21760762.032 9 -16943292.74947  20940646.882    20940649.6534
  24620247.125    -4262523.336 8  -2825881.43745  24620246.508    24620250.9214
  20664103.564   -25131996.507 9 -19567111.13848  20664103.749    20664105.1794
  22113241.576   -18664388.176 8 -14527170.31847  22113241.391    22113243.7044
  20708836.264   -25072215.843 9 -19519392.64648  20708835.691    20708837.9644
 00  1 21  2 48 30.0000000  0  6 24 10 17 30 06 05
  21829284.022   -18401929.411 8 -14296278.30447  21829283.761    21829286.4344
  20933972.548   -21795840.297 9 -16970626.43547  20933971.713    20933974.4534
  24603578.781    -4350115.707 8  -2894135.13545  24603578.217    24603582.4974
  20659009.456   -25158766.189 9 -19587970.61548  20659009.635    20659011.0664
  22101383.673   -18726701.766 8 -14575726.32747  22101383.481    22101385.7414
  20718856.402   -25019559.642 9 -19478361.84748  20718855.835    20718858.1014
 00  1 21  2 49  0.0000000  0  6 24 10 17 30 06 05
  21842591.126   -18332000.081 8 -14241787.91247  21842590.839    21842593.5344
  20927406.788   -21830343.556 9 -16997512.06347  20927405.948    20927408.6634
  24586941.697    -4437544.149 8  -2962261.08645  24586941.035    24586945.4024
  20654027.945   -25184944.203 9 -19608369.05248  20654028.114    20654029.5554
  22089547.297   -18788902.055 8 -14624194.04747  22089547.115    22089549.3424
  20728967.406   -24966425.947 9 -19436958.97148  20728966.835    20728969.1094
 00  1 21  2 49 30.0000000  0  6 24 10 17 30 06 05
  21855923.711   -18261936.584 8 -14187192.97547  21855923.459    21855926.1434
  20920953.730   -21864254.593 9 -17023936.22247  20920952.866    20920955.5844
  24570340.184    -4524785.502 8  -3030241.26045  24570339.518    24570343.7854
  20649164.938   -25210499.479 9 -19628282.24548  20649165.120    20649166.5394
  22077732.979   -18850986.894 8 -14672571.81347  22077732.764    22077734.9594
  20739174.831   -24912785.631 9 -19395161.32948  20739174.258    20739176.5424
 00  1 21  2 50  0.0000000  0  6 24 10 17 30 06 05
  21869285.399   -18191720.372 8 -14132479.03747  21869285.169    21869287.8664
  20914617.497   -21897551.444 9 -17049881.79647  20914616.632    20914619.3524
  24553776.245    -4611829.148 8  -3098067.38445  24553775.585    24553779.8254
  20644419.902   -25235434.701 9 -19647712.27948  20644420.085    20644421.5054
  22065939.948   -18912959.499 8 -14720862.12547  22065939.728    22065941.8724
  20749483.988   -24858610.611 9 -19352947.03448  20749483.412    20749485.6964
 00  1 21  2 50 30.0000000  0  6 24 10 17 30 06 05
  21882678.814   -18121337.514 8 -14077635.24547  21882678.567    21882681.2454
  20908398.004   -21930235.016 9 -17075349.48647  20908397.148    20908399.8544
  24537249.318    -4698679.019 7  -3165742.51345  24537248.546    24537252.7684
  20639790.649   -25259761.341 9 -19666668.08948  20639790.830    20639792.2564
  22054167.490   -18974823.981 8 -14769068.18047  22054167.288    22054169.4134
  20759897.583   -24803886.724 9 -19310305.05048  20759897.002    20759899.3104
 00  1 21  2 51  0.0000000  0  6 24 10 17 30 06 05
  21896105.369   -18050780.330 8 -14022655.61547  21896105.142    21896107.8274
  20902295.289   -21962304.799 9 -17100338.90247  20902294.453    20902297.1484
  24520757.235    -4785344.417 7  -3233273.88545  24520756.504    24520760.7504
  20635275.051   -25283490.935 9 -19685158.67348  20635275.236    20635276.6554
  22042411.831   -19036600.521 8 -14817205.71747  22042411.616    22042413.7034
  20770414.662   -24748619.093 9 -19267239.37248  20770414.091    20770416.3774
 00  1 21  2 51 30.0000000  0  6 24 10 17 30 06 05
  21909564.097   -17980054.220 8 -13967544.35247  21909563.855    21909566.5244
  20896310.713   -21993754.053 9 -17124844.78247  20896309.876    20896312.5344
  24504296.513    -4871845.362 7  -3300677.11045  24504295.849    24504299.9974
  20630866.833   -25306656.069 9 -19703209.41348  20630867.018    20630868.4264
  22030671.163   -19098297.964 8 -14865281.61247  22030670.944    22030673.0414
  20781032.407   -24692822.595 9 -19223761.58748  20781031.831    20781034.1394
 00  1 21  2 52  0.0000000  0  6 24 10 17 30 06 05
  21923048.379   -17909193.575 8 -13912328.25247  21923048.150    21923050.8144
  20890444.164   -22024583.014 9 -17148867.32347  20890443.337    20890445.9664
  24487864.784    -4958193.690 7  -3367961.41945  24487864.115    24487868.4454
  20626560.224   -25329287.397 9 -19720844.20548  20626560.409    20626561.8254
  22018944.478   -19159921.979 8 -14913300.29447  22018944.262    22018946.3454
  20791742.939   -24636538.304 9 -19179903.70448  20791742.346    20791744.6554
 00  1 21  2 52 30.0000000  0  6 24 10 17 30 06 05
  21936555.163   -17838214.869 8 -13857020.16447  21936554.929    21936557.5744
  20884690.920   -22054816.326 9 -17172425.72347  20884690.070    20884692.7194
  24471460.538    -5044398.083 7  -3435133.61545  24471459.921    24471464.1024
  20622355.244   -25351384.729 9 -19738062.89548  20622355.440    20622356.8464
  22007230.351   -19221480.209 8 -14961267.72347  22007230.132    22007232.1824
  20802539.810   -24579800.258 9 -19135692.24848  20802539.212    20802541.5284
 00  1 21  2 53  0.0000000  0  6 24 10 17 30 06 05
  21950083.154   -17767124.844 8 -13801625.33347  21950082.894    21950085.5284
  20879049.271   -22084463.279 9 -17195527.21647  20879048.446    20879051.0844
  24455083.857    -5130457.910 7  -3502193.12945  24455083.268    24455087.3844
  20618251.387   -25372950.696 9 -19754867.53248  20618251.571    20618252.9684
  21995525.331   -19282990.312 8 -15009197.64047  21995525.135    21995527.1604
  20813420.228   -24522623.383 9 -19091138.84748  20813419.639    20813421.9804
 00  1 21  2 53 30.0000000  0  6 24 10 17 30 06 05
  21963630.460   -17695933.332 8 -13746151.42047  21963630.185    21963632.8304
  20873516.781   -22113536.593 9 -17218181.72247  20873515.936    20873518.5814
  24438734.767    -5216372.711 7  -3569139.63345  24438734.037    24438738.1844
  20614248.818   -25393984.209 9 -19771257.27348  20614248.992    20614250.3964
  21983829.363   -19344453.190 8 -15057090.76047  21983829.152    21983831.1764
  20824381.612   -24465020.918 9 -19046253.81948  20824381.041    20824383.3654
 00  1 21  2 54  0.0000000  0  6 24 10 17 30 06 05
  21977195.507   -17624648.630 8 -13690604.89347  21977195.234    21977197.8474
  20868089.901   -22142054.942 9 -17240403.78847  20868089.053    20868091.6854
  24422415.891    -5302128.953 8  -3635962.62145  24422415.175    24422419.0834
  20610353.426   -25414454.650 9 -19787208.25648  20610353.609    20610355.0194
  21972145.125   -19405854.290 8 -15104935.74047  21972144.871    21972146.8824
  20835425.256   -24406986.237 9 -19001032.00048  20835424.676    20835427.0264
 00  1 21  2 54 30.0000000  0  6 24 10 17 30 06 05
  21990782.641   -17553247.867 8 -13634967.92747  21990782.358    21990784.9994
  20862766.995   -22170026.742 9 -17262199.97147  20862766.158    20862768.7874
  24406128.688    -5387718.211 8  -3702655.48545  24406127.979    24406131.8454
  20606569.116   -25434341.432 9 -19802704.44048  20606569.309    20606570.6784
  21960475.762   -19467176.745 8 -15152719.43847  21960475.519    21960477.5244
  20846555.913   -24348494.192 9 -18955453.79348  20846555.330    20846557.6704
 00  1 21  2 55  0.0000000  0  6 24 10 17 30 06 05
  22004390.631   -17481737.401 8 -13579245.47847  22004390.358    22004393.0064
  20857553.848   -22197422.141 9 -17283547.00947  20857553.007    20857555.6344
  24389873.599    -5473139.230 8  -3769217.26345  24389872.932    24389876.6854
  20602897.083   -25453638.152 9 -19817740.83748  20602897.261    20602898.6314
  21948824.837   -19528402.405 8 -15200427.71147  21948824.635    21948826.6264
  20857776.172   -24289531.448 9 -18909508.80448  20857775.572    20857777.9354
 00  1 21  2 55 30.0000000  0  6 24 10 17 30 06 05
  22018018.026   -17410124.641 8 -13523443.31947  22018017.764    22018020.4654
  20852454.587   -22224218.777 9 -17304427.48147  20852453.747    20852456.3684
  24373651.371    -5558387.281 8  -3835644.22345  24373650.703    24373654.4334
  20599339.945   -25472331.085 9 -19832306.74748  20599340.134    20599341.4754
  21937198.524   -19589498.949 8 -15248035.37947  21937198.333    21937200.3194
  20869088.568   -24230084.633 9 -18863186.61848  20869087.981    20869090.3314
 00  1 21  2 56  0.0000000  0  6 24 10 17 30 06 05
  22031668.916   -17338388.983 8 -13467545.39947  22031668.653    22031671.3134
  20847471.967   -22250402.532 9 -17324830.38347  20847471.126    20847473.7444
  24357463.352    -5643455.908 8  -3901931.37245  24357462.649    24357466.4704
  20595900.750   -25490404.122 9 -19846389.62448  20595900.934    20595902.2774
  21925600.166   -19650448.560 8 -15295528.55147  21925599.953    21925601.9504
  20880496.486   -24170135.555 9 -18816473.06248  20880495.893    20880498.2614
 00  1 21  2 56 30.0000000  0  6 24 10 17 30 06 05
  22045346.413   -17266513.584 8 -13411538.58747  22045346.134    22045348.7224
  20842610.191   -22275951.290 9 -17344738.47747  20842609.352    20842611.9624
  24341308.697    -5728348.730 8  -3968081.53145  24341308.043    24341311.7554
  20592578.073   -25507864.799 9 -19859995.33848  20592578.265    20592579.6084
  21914027.043   -19711265.635 8 -15342918.45147  21914026.805    21914028.8234
  20892000.538   -24109681.482 9 -18769366.00248  20891999.959    20892002.2864
 00  1 21  2 57  0.0000000  0  6 24 10 17 30 06 05
  22059050.214   -17194499.502 8 -13355423.71547  22059049.927    22059052.5054
  20837870.912   -22300856.411 9 -17364145.04547  20837870.063    20837872.6434
  24325188.519    -5813060.584 8  -4034090.69245  24325187.853    24325191.5374
  20589371.060   -25524717.663 9 -19873127.43548  20589371.245    20589372.5874
  21902476.385   -19771964.976 8 -15390216.61147  21902476.141    21902478.1484
  20903599.713   -24048727.347 9 -18721869.28747  20903599.139    20903601.4854
 00  1 21  2 57 30.0000000  0  6 24 10 17 30 06 05
  22072780.715   -17122345.199 8 -13299199.58147  22072780.442    22072783.0304
  20833249.403   -22325142.568 9 -17383069.29547  20833248.542    20833251.1144
  24309103.468    -5897587.761 8  -4099955.93645  24309102.829    24309106.5434
  20586275.262   -25540986.111 9 -19885804.13748  20586275.448    20586276.8164
  21890943.281   -19832571.610 8 -15437442.52447  21890943.026    21890945.0484
  20915291.745   -23987285.402 9 -18673992.45447  20915291.155    20915293.5174
 00  1 21  2 58  0.0000000  0  6 24 10 17 30 06 05
  22086534.923   -17050066.376 8 -13242878.41347  22086534.650    22086537.2414
  20828740.257   -22348837.970 9 -17401533.22047  20828739.424    20828741.9914
  24293052.985    -5981933.610 8  -4165679.91045  24293052.300    24293056.0544
  20583286.207   -25556693.975 9 -19898044.02248  20583286.397    20583287.7374
  21879422.721   -19893112.141 8 -15484616.93647  21879422.531    21879424.5524
  20927070.115   -23925389.707 9 -18625762.05347  20927069.521    20927071.8914
 00  1 21  2 58 30.0000000  0  6 24 10 17 30 06 05
  22100304.832   -16977704.912 8 -13186492.85547  22100304.567    22100307.1904
  20824340.659   -22371958.008 9 -17419548.81247  20824339.830    20824342.3674
  24277034.634    -6066110.412 8  -4231272.15845  24277033.939    24277037.6854
  20580397.611   -25571873.696 9 -19909872.37348  20580397.777    20580399.1194
  21867910.916   -19953606.967 8 -15531755.73347  21867910.730    21867912.7544
  20938931.033   -23863060.096 9 -18577193.53447  20938930.460    20938932.8204
 00  1 21  2 59  0.0000000  0  6 24 10 17 30 06 05
  22114085.328   -16905287.793 8 -13130063.92747  22114085.077    22114087.7494
  20820045.725   -22394527.949 9 -17437135.75547  20820044.863    20820047.4274
  24261046.883    -6150126.323 8  -4296739.03645  24261046.178    24261049.9164
  20577607.985   -25586533.236 9 -19921295.38148  20577608.148    20577609.5004
  21856409.114   -20014049.358 8 -15578853.67347  21856408.913    21856410.9194
  20950870.506   -23800317.776 9 -18528303.42747  20950869.925    20950872.2904
 00  1 21  2 59 30.0000000  0  6 24 10 17 30 06 05
  22127874.049   -16832827.185 8 -13073601.11347  22127873.802    22127876.5084
  20815855.950   -22416545.054 9 -17454291.91947  20815855.103    20815857.6714
  24245088.675    -6233987.038 8  -4362084.99345  24245087.995    24245091.7014
  20574919.969   -25600658.698 9 -19932302.22748  20574920.129    20574921.4734
  21844919.526   -20074427.508 8 -15625901.55747  21844919.327    21844921.3074
  20962886.705   -23737172.473 9 -18479099.30647  20962886.116    20962888.4774
 00  1 21  3  0  0.0000000  0  6 24 10 17 30 06 05
  22141674.089   -16760307.609 8 -13017092.34647  22141673.848    22141676.5344
  20811776.127   -22437984.397 9 -17470997.87847  20811775.308    20811777.8654
  24229159.606    -6317694.688 8  -4427311.67745  24229158.862    24229162.5664
  20572341.172   -25614210.177 9 -19942861.81348  20572341.334    20572342.6694
  21833445.112   -20134725.718 8 -15672887.14347  21833444.901    21833446.8984
  20974980.931   -23673616.905 9 -18429575.49547  20974980.343    20974982.6914
 00  1 21  3  0 30.0000000  0  6 24 10 17 30 06 05
  22155491.684   -16687695.897 8 -12960511.79447  22155491.432    22155494.0814
  20807814.143   -22458804.896 9 -17487221.62647  20807813.311    20807815.8704
  24213259.379    -6401250.253 7  -4492419.85545  24213258.649    24213262.4784
  20569878.485   -25627151.692 9 -19952946.10948  20569878.669    20569879.9994
  21821990.717   -20194918.948 8 -15719790.94147  21821990.510    21821992.5284
  20987159.456   -23609618.372 9 -18379706.52547  20987158.872    20987161.2164
 00  1 21  3  1  0.0000000  0  6 24 10 17 30 06 05
  22169333.816   -16614955.133 8 -12903830.67547  22169333.550    22169336.1784
  20803976.057   -22478974.108 9 -17502937.87247  20803975.218    20803977.7544
  24197391.260    -6484637.266 7  -4557396.69045  24197390.515    24197394.4644
  20567538.919   -25639446.093 9 -19962526.15148  20567539.099    20567540.4174
  21810562.553   -20254974.124 8 -15766587.15347  21810562.372    21810564.3814
  20999423.731   -23545169.149 9 -18329486.35947  20999423.122    20999425.5074
 00  1 21  3  1 30.0000000  0  6 24 10 17 30 06 05
  22183204.912   -16542061.779 8 -12847030.65947  22183204.677    22183207.2994
  20800268.782   -22498455.885 9 -17518118.46347  20800267.944    20800270.4464
  24181557.656    -6567842.825 7  -4622232.12045  24181556.976    24181560.9634
  20565323.501   -25651088.183 9 -19971597.90948  20565323.663    20565324.9984
  21799161.929   -20314884.836 8 -15813270.80547  21799161.714    21799163.7204
  21011778.641   -23480243.699 9 -18278895.11247  21011778.059    21011780.4464
 00  1 21  3  2  0.0000000  0  6 24 10 17 30 06 05
  22197105.432   -16469013.942 8 -12790110.25947  22197105.194    22197107.7754
  20796692.170   -22517251.034 9 -17532764.00947  20796691.340    20796693.8174
  24165758.279    -6650868.576 7  -4686927.45845  24165757.624    24165761.6654
  20563230.165   -25662088.523 9 -19980169.59548  20563230.352    20563231.6944
  21787788.884   -20374650.656 8 -15859841.54947  21787788.648    21787790.6424
  21024226.034   -23414832.277 9 -18227925.18347  21024225.432    21024227.8214
 00  1 21  3  2 30.0000000  0  6 24 10 17 30 06 05
  22211031.840   -16395830.298 8 -12733084.03847  22211031.603    22211034.1764
  20793243.232   -22535375.309 9 -17546886.80247  20793242.398    20793244.8654
  24149996.182    -6733698.662 7  -4751470.33345  24149995.586    24149999.5404
  20561256.184   -25672462.040 9 -19988252.84848  20561256.368    20561257.7064
  21776445.611   -20434259.843 8 -15906290.24047  21776445.371    21776447.3414
  21036766.861   -23348929.997 9 -18176572.76947  21036766.250    21036768.6334
 00  1 21  3  3  0.0000000  0  6 24 10 17 30 06 05
  22224979.618   -16322534.178 8 -12675970.18047  22224979.377    22224981.9484
  20789916.791   -22552855.918 9 -17560508.03247  20789915.961    20789918.3914
  24134273.311    -6816322.557 8  -4815852.53645  24134272.691    24134276.6864
  20559398.028   -25682226.576 9 -19995861.57648  20559398.225    20559399.5634
  21765128.783   -20493730.111 8 -15952630.69347  21765128.565    21765130.5184
  21049398.338   -23282551.097 9 -18124848.96247  21049397.735    21049400.1234
 00  1 21  3  3 30.0000000  0  6 24 10 17 30 06 05
  22238945.024   -16249145.591 8 -12618784.26846  22238944.769    22238947.3094
  20786707.429   -22569721.093 9 -17573649.70547  20786706.593    20786709.0254
  24118588.947    -6898744.366 8  -4880077.29945  24118588.279    24118592.2714
  20557652.762   -25691398.047 9 -20003008.17548  20557652.933    20557654.2844
  21753833.629   -20553086.390 8 -15998882.31647  21753833.395    21753835.3304
  21062118.687   -23215705.332 9 -18072761.36747  21062118.099    21062120.4724
 00  1 21  3  4  0.0000000  0  6 24 10 17 30 06 05
  22252924.606   -16175682.150 8 -12561540.02146  22252924.361    22252926.9034
  20783609.992   -22585998.080 9 -17586333.05247  20783609.167    20783611.5884
  24102943.112    -6980963.505 8  -4944144.13245  24102942.420    24102946.3784
  20556023.035   -25699962.129 9 -20009681.48448  20556023.241    20556024.5744
  21742560.125   -20612328.876 9 -16045045.27147  21742559.909    21742561.8394
  21074924.728   -23148409.025 9 -18020322.70147  21074924.124    21074926.5064
 00  1 21  3  4 30.0000000  0  6 24 10 17 30 06 05
  22266920.136   -16102135.116 8 -12504230.64146  22266919.912    22266922.4534
  20780625.958   -22601679.168 9 -17598552.06047  20780625.152    20780627.5644
  24087336.581    -7062975.857 8  -5008049.83045  24087335.974    24087339.8114
  20554507.911   -25707924.367 9 -20015885.82348  20554508.110    20554509.4444
  21731306.184   -20671468.712 8 -16091128.24347  21731305.950    21731307.8844
  21087814.369   -23080673.394 9 -17967541.70147  21087813.780    21087816.1694
 00  1 21  3  5  0.0000000  0  6 24 10 17 30 06 05
  22280931.813   -16028503.594 8 -12446855.42746  22280931.552    22280934.0604
  20777755.527   -22616763.327 9 -17610305.92747  20777754.700    20777757.1394
  24071766.067    -7144799.374 8  -5071808.36845  24071765.443    24071769.2524
  20553104.076   -25715301.625 9 -20021634.33348  20553104.252    20553105.5814
  21720067.603   -20730527.804 8 -16137148.29747  21720067.380    21720069.2964
  21100784.380   -23012515.580 9 -17914431.72747  21100783.801    21100786.1814
 00  1 21  3  5 30.0000000  0  6 24 10 17 30 06 05
  22294957.910   -15954795.743 8 -12389420.74146  22294957.662    22294960.1724
  20774998.427   -22631252.038 9 -17621595.81447  20774997.598    20775000.0434
  24056228.888    -7226447.815 8  -5135430.50845  24056228.300    24056231.9514
  20551808.875   -25722107.827 9 -20026937.86848  20551809.059    20551810.4004
  21708844.739   -20789504.117 9 -16183103.85047  21708844.520    21708846.4284
  21113833.150   -22943943.819 9 -17860999.20047  21113832.588    21113834.9824
 00  1 21  3  6  0.0000000  0  6 24 10 17 30 06 05
  22308996.907   -15881020.479 8 -12331933.51946  22308996.653    22308999.1764
  20772354.712   -22645144.900 9 -17632421.39547  20772353.879    20772356.3054
  24040722.869    -7307932.908 8  -5198925.35145  24040722.204    24040725.7984
  20550618.341   -25728364.189 9 -20031812.95348  20550618.523    20550619.8634
  21697637.148   -20848400.297 9 -16228996.95447  21697636.939    21697638.8504
  21126960.636   -22874958.516 9 -17807244.43147  21126960.050    21126962.4584
 00  1 21  3  6 30.0000000  0  6 24 10 17 30 06 05
  22323047.101   -15807186.053 8 -12274400.19746  22323046.846    22323049.3704
  20769823.689   -22658445.177 9 -17642785.22847  20769822.851    20769825.2764
  24025244.871    -7389270.435 8  -5262305.21945  24025244.120    24025247.7194
  20549526.384   -25734102.438 9 -20036284.31648  20549526.569    20549527.9154
  21686444.241   -20907219.299 9 -16274829.92947  21686444.017    21686445.9404
  21140163.827   -22805575.279 9 -17753179.58747  21140163.249    21140165.6624
 00  1 21  3  7  0.0000000  0  6 24 10 17 30 06 05
  22337102.866   -15733322.417 8 -12216844.12246  22337102.616    22337105.1914
  20767400.629   -22671178.305 9 -17652707.12247  20767399.798    20767402.2604
  24009793.660    -7470466.796 8  -5325575.06945  24009792.926    24009796.4864
  20548534.969   -25739312.540 9 -20040344.13448  20548535.155    20548536.4844
  21675270.169   -20965939.418 9 -16320585.84847  21675269.943    21675271.8494
  21153443.941   -22735787.890 9 -17698799.81847  21153443.346    21153445.7704
 00  1 21  3  7 30.0000000  0  6 24 10 17 30 06 05
  22351165.667   -15659422.043 8 -12159259.41246  22351165.420    22351167.9864
  20765087.007   -22683336.488 9 -17662181.01247  20765086.180    20765088.6274
  23994370.745    -7551514.683 8  -5388729.21745  23994370.003    23994373.5174
  20547648.116   -25743972.782 9 -20043975.49148  20547648.289    20547649.6254
  21664117.672   -21024546.174 9 -16366253.42747  21664117.414    21664119.3574
  21166801.927   -22665591.249 9 -17644101.15047  21166801.328    21166803.7714
 00  1 21  3  8  0.0000000  0  6 24 10 17 30 06 05
  22365239.879   -15585461.499 8 -12101627.82846  22365239.637    22365242.2284
  20762884.625   -22694910.068 9 -17671199.36947  20762883.765    20762886.2034
  23978977.915    -7632404.849 8  -5451760.47345  23978977.140    23978980.5944
  20546870.523   -25748058.997 9 -20047159.55448  20546870.707    20546872.0294
  21652987.076   -21083037.878 9 -16411831.35847  21652986.819    21652988.7734
  21180237.554   -22594986.613 9 -17589084.56747  21180236.977    21180239.4014
 00  1 21  3  8 30.0000000  0  6 24 10 17 30 06 05
  22379327.759   -15511428.952 8 -12043940.12746  22379327.514    22379330.1384
  20760795.452   -22705888.610 9 -17679754.05447  20760794.601    20760797.0404
  23963616.694    -7713128.729 8  -5514662.14445  23963615.864    23963619.3144
  20546207.745   -25751542.111 9 -20049873.66648  20546207.916    20546209.2494
  21641879.482   -21141408.518 9 -16457314.96247  21641879.249    21641881.1844
  21193750.600   -22523975.088 9 -17533750.92447  21193750.002    21193752.4584
 00  1 21  3  9  0.0000000  0  6 24 10 17 30 06 05
  22393433.082   -15437305.194 8 -11986181.35746  22393432.819    22393435.4434
  20758824.146   -22716247.821 9 -17687826.14447  20758823.296    20758825.7254
  23948291.255    -7793664.077 8  -5577416.90345  23948290.454    23948294.0574
  20545665.557   -25754391.392 9 -20052093.88048  20545665.732    20545667.0424
  21630793.309   -21199666.747 9 -16502710.96147  21630793.074    21630794.9804
  21207343.100   -22452546.117 9 -17478091.99747  21207342.522    21207344.9494
 00  1 21  3  9 30.0000000  0  6 24 10 17 30 06 05
  22407559.819   -15363068.498 8 -11928334.58846  22407559.589    22407562.2094
  20756975.311   -22725963.275 9 -17695396.61147  20756974.496    20756976.9174
  23933003.193    -7874002.630 8  -5640018.32345  23933002.507    23933006.0944
  20545243.324   -25756610.287 9 -20053822.89148  20545243.484    20545244.8024
  21619725.849   -21257826.554 9 -16548030.27347  21619725.606    21619727.5394
  21221011.669   -22380717.453 9 -17422121.62847  21221011.080    21221013.5004
 00  1 21  3 10  0.0000000  0  6 24 10 17 30 06 05
  22421704.781   -15288736.120 8 -11870413.25446  22421704.517    22421707.1824
  20755247.548   -22735042.694 9 -17702471.46147  20755246.722    20755249.1484
  23917752.438    -7954145.464 8  -5702467.23245  23917751.804    23917755.3904
  20544938.255   -25758213.538 9 -20055072.17648  20544938.435    20544939.7384
  21608678.726   -21315879.367 9 -16593266.21647  21608678.493    21608680.4244
  21234756.358   -22308488.604 9 -17365839.42047  21234755.765    21234758.2034
 00  1 21  3 10 30.0000000  0  6 24 10 17 30 06 05
  22435863.342   -15214332.410 8 -11812436.34146  22435863.085    22435865.7834
  20753641.644   -22743481.633 9 -17709047.23947  20753640.803    20753643.2194
  23902539.471    -8034089.727 8  -5764761.40745  23902538.827    23902542.4094
  20544747.450   -25759216.160 9 -20055853.44048  20544747.637    20544748.9484
  21597652.896   -21373820.407 9 -16638415.06247  21597652.676    21597654.5814
  21248578.803   -22235851.183 9 -17309238.84847  21248578.225    21248580.6484
 00  1 21  3 11  0.0000000  0  6 24 10 17 30 06 05
  22450033.236   -15139869.221 8 -11754413.07546  22450032.995    22450035.6474
  20752157.024   -22751283.233 9 -17715126.38947  20752156.181    20752158.6064
  23887362.895    -8113842.918 8  -5826906.70045  23887362.243    23887365.8554
  20544667.095   -25759638.207 9 -20056182.30648  20544667.273    20544668.6084
  21586650.259   -21431639.679 9 -16683469.02347  21586650.033    21586651.9194
  21262478.349   -22162808.686 9 -17252322.63047  21262477.753    21262480.2144
 00  1 21  3 11 30.0000000  0  6 24 10 17 30 06 05
  22464212.955   -15065354.189 8 -11696349.41146  22464212.689    22464215.3604
  20750791.193   -22758460.772 9 -17720719.26047  20750790.357    20750792.7564
  23872219.370    -8193423.056 8  -5888917.13945  23872218.667    23872222.2044
  20544694.377   -25759494.955 9 -20056070.67948  20544694.554    20544695.9004
  21575673.486   -21489322.992 9 -16728417.03947  21575673.262    21575675.1384
  21276455.713   -22089357.139 9 -17195087.67247  21276455.137    21276457.5964
 00  1 21  3 12  0.0000000  0  6 24 10 17 30 06 05
  22478400.737   -14990796.996 8 -11638252.90646  22478400.477    22478403.1124
  20749543.536   -22765017.199 9 -17725828.14647  20749542.681    20749545.0934
  23857107.366    -8272837.123 8  -5950798.18545  23857106.649    23857110.2314
  20544829.440   -25758785.140 9 -20055517.57648  20544829.610    20544830.9544
  21564722.284   -21546871.948 9 -16773260.36647  21564722.034    21564723.9414
  21290514.026   -22015480.392 9 -17137521.38947  21290513.424    21290515.8764
 00  1 21  3 12 30.0000000  0  6 24 10 17 30 06 05
  22492598.710   -14916186.561 8 -11580114.90146  22492598.428    22492600.9934
  20748415.020   -22770947.552 9 -17730449.18047  20748414.172    20748416.5684
  23842027.238    -8352082.997 8  -6012548.14945  23842026.539    23842030.2564
  20545074.761   -25757495.979 9 -20054513.03548  20545074.911    20545076.2584
  21553794.389   -21604298.300 9 -16818008.15047  21553794.169    21553796.0604
  21304653.725   -21941175.893 9 -17079621.79347  21304653.136    21304655.5794
 00  1 21  3 13  0.0000000  0  6 24 10 17 30 06 05
  22506807.073   -14841520.721 8 -11521933.72646  22506806.822    22506809.3774
  20747404.525   -22776257.714 9 -17734586.95247  20747403.691    20747406.0664
  23826979.956    -8431156.198 8  -6074163.57845  23826979.296    23826983.1374
  20545433.984   -25755608.163 9 -20053042.00648  20545434.142    20545435.5084
  21542892.012   -21661590.592 9 -16862651.48147  21542891.776    21542893.6754
  21318873.996   -21866447.776 9 -17021392.10747  21318873.411    21318875.8884
 00  1 21  3 13 30.0000000  0  6 24 10 17 30 06 05
  22521027.083   -14766793.821 8 -11463704.97846  22521026.868    22521029.4844
  20746512.852   -22780943.337 9 -17738238.07247  20746512.019    20746514.3934
  23811969.533    -8510036.616 8  -6135628.78946  23811968.897    23811972.6764
  20545911.115   -25753100.821 9 -20051088.23448  20545911.292    20545912.6344
  21532014.368   -21718752.900 9 -16907193.52047  21532014.137    21532016.0274
  21333176.510   -21791287.628 9 -16962825.77447  21333175.910    21333178.3794
 00  1 21  3 14  0.0000000  0  6 24 10 17 30 06 05
  22535256.895   -14692015.756 8 -11405436.35246  22535256.646    22535259.2494
  20745738.853   -22785010.743 9 -17741407.46447  20745738.014    20745740.4174
  23796999.081    -8588706.889 8  -6196930.23246  23796998.381    23797002.1764
  20546507.777   -25749965.352 9 -20048645.01348  20546507.939    20546509.2904
  21521162.427   -21775780.095 9 -16951630.28147  21521162.180    21521164.0844
  21347560.727   -21715698.113 9 -16903924.87047  21347560.122    21347562.5894
 00  1 21  3 14 30.0000000  0  6 24 10 17 30 06 05
  22549496.876   -14617184.402 8 -11347126.21046  22549496.618    22549499.1854
  20745082.894   -22788457.854 9 -17744093.51047  20745082.039    20745084.4424
  23782070.850    -8667155.034 8  -6258058.60246  23782070.156    23782073.8734
  20547225.169   -25746195.394 9 -20045707.38248  20547225.352    20547226.6664
  21510337.513   -21832665.133 9 -16995956.27147  21510337.293    21510339.2214
  21362023.345   -21639696.527 9 -16844702.87047  21362022.759    21362025.2554
 00  1 21  3 15  0.0000000  0  6 24 10 17 30 06 05
  22563747.978   -14542294.468 8 -11288770.41646  22563747.722    22563750.3084
  20744546.289   -22791277.516 9 -17746290.63047  20744545.450    20744547.8214
  23767184.726    -8745382.104 8  -6319014.69646  23767184.101    23767187.6794
  20548062.924   -25741793.195 9 -20042277.09448  20548063.082    20548064.3814
  21499541.947   -21889395.953 9 -17040162.08447  21499541.727    21499543.6594
  21376561.809   -21563296.253 9 -16785170.20447  21376561.245    21376563.7454
 00  1 21  3 15 30.0000000  0  6 24 10 17 30 06 05
  22578012.943   -14467331.689 8 -11230357.85846  22578012.647    22578015.2714
  20744129.437   -22793468.022 9 -17747997.50147  20744128.599    20744130.9564
  23752338.236    -8823400.870 8  -6379808.48546  23752337.599    23752341.0814
  20549018.502   -25736771.575 9 -20038364.14148  20549018.660    20549019.9374
  21488773.310   -21945985.610 9 -17084257.90547  21488773.092    21488775.0084
  21391174.841   -21486504.189 9 -16725332.24447  21391174.268    21391176.7874
 00  1 21  3 16  0.0000000  0  6 24 10 17 30 06 05
  22592291.449   -14392297.887 8 -11171889.96646  22592291.162    22592293.7464
  20743832.095   -22795030.621 9 -17749215.09847  20743831.234    20743833.5804
  23737528.545    -8901226.263 8  -6440451.60046  23737527.881    23737531.3404
  20550090.318   -25731139.216 9 -20033975.29148  20550090.468    20550091.7264
  21478032.209   -22002430.372 9 -17128240.81947  21478031.968    21478033.8974
  21405859.562   -21409335.648 9 -16665200.92847  21405858.992    21405861.5104
 00  1 21  3 16 30.0000000  0  6 24 10 17 30 06 05
  22606585.340   -14317182.731 8 -11113358.67246  22606585.076    22606587.6674
  20743657.800   -22795946.418 9 -17749928.69247  20743656.945    20743659.2884
  23722753.163    -8978871.436 8  -6500954.25946  23722752.560    23722755.9394
  20551278.497   -25724895.264 9 -20029109.87248  20551278.656    20551279.9084
  21467319.050   -22058728.391 9 -17172109.38147  21467318.814    21467320.7234
  21420614.874   -21331795.922 9 -16604780.38047  21420614.277    21420616.8024
 00  1 21  3 17  0.0000000  0  6 24 10 17 30 06 05
  22620896.064   -14241979.299 8 -11054758.60746  22620895.860    22620898.4194
  20743605.018   -22796223.819 9 -17750144.83247  20743604.162    20743606.5034
  23708010.758    -9056343.290 8  -6561321.87746  23708010.136    23708013.4764
  20552583.235   -25718038.808 9 -20023767.18248  20552583.413    20552584.6524
  21456636.352   -22114866.382 9 -17215853.25347  21456636.110    21456638.0134
  21435443.990   -21253868.435 9 -16544057.68047  21435443.421    21435445.9314
 00  1 21  3 17 30.0000000  0  6 24 10 17 30 06 05
  22635222.292   -14166695.146 8 -10996095.62646  22635222.022    22635224.5314
  20743671.081   -22795876.450 9 -17749874.13747  20743670.226    20743672.5814
  23693302.216    -9133636.790 8  -6621550.51446  23693301.579    23693304.9404
  20554004.367   -25710570.775 9 -20017947.93148  20554004.519    20554005.7764
  21445983.065   -22170849.578 9 -17259476.50347  21445982.855    21445984.7574
  21450348.199   -21175546.641 9 -16483027.72247  21450347.603    21450350.1284
 00  1 21  3 18  0.0000000  0  6 24 10 17 30 06 05
  22649561.446   -14091342.601 8 -10937379.35746  22649561.125    22649563.5864
  20743853.316   -22794918.861 9 -17749127.95147  20743852.460    20743854.7954
  23678629.177    -9210743.634 8  -6681633.72246  23678628.577    23678631.8974
  20555542.688   -25702486.767 9 -20011648.70748  20555542.834    20555544.1294
  21435360.612   -22226670.850 9 -17302973.58247  21435360.399    21435362.3124
  21465326.095   -21096837.216 9 -16421695.72147  21465325.494    21465328.0464
 00  1 21  3 18 30.0000000  0  6 24 10 17 30 06 05
  22663912.445   -14015927.464 8 -10878614.31546  22663912.140    22663914.6094
  20744149.912   -22793360.315 9 -17747913.48547  20744149.054    20744151.3884
  23663992.587    -9287659.198 8  -6741567.87246  23663991.959    23663995.2474
  20557196.277   -25693797.004 9 -20004877.46448  20557196.439    20557197.7174
  21424767.938   -22282335.841 9 -17346348.88247  21424767.722    21424769.6024
  21480377.854   -21017739.790 9 -16360061.37747  21480377.254    21480379.7614
 00  1 21  3 19  0.0000000  0  6 24 10 17 30 06 05
  22678272.490   -13940465.043 8 -10819812.42246  22678272.169    22678274.6454
  20744556.430   -22791223.933 9 -17746248.75747  20744555.553    20744557.9154
  23649393.574    -9364377.416 8  -6801348.24746  23649392.926    23649396.1564
  20558961.801   -25684519.117 9 -19997647.94148  20558961.957    20558963.2314
  21414202.649   -22337856.731 9 -17389611.89147  21414202.426    21414204.2674
  21495500.152   -20938271.681 9 -16298138.19047  21495499.555    21495502.0854
 00  1 21  3 19 30.0000000  0  6 24 10 17 30 06 05
  22692636.386   -13864982.014 8 -10760994.48246  22692636.065    22692638.6354
  20745073.328   -22788507.417 9 -17744131.98147  20745072.465    20745074.8114
  23634830.688    -9440905.810 8  -6860980.71946  23634829.948    23634833.1944
  20560836.170   -25674669.370 9 -19989972.81948  20560836.319    20560837.6224
  21403662.268   -22393246.749 9 -17432772.93147  21403662.033    21403663.8744
  21510689.575   -20858450.670 9 -16235940.01947  21510689.010    21510691.5534
 00  1 21  3 20  0.0000000  0  6 24 10 17 30 06 05
  22707002.186   -13789488.590 8 -10702168.44746  22707001.930    22707004.5814
  20745703.229   -22785197.242 9 -17741552.61447  20745702.359    20745704.7124
  23620303.088    -9517248.642 8  -6920468.57946  23620302.345    23620305.6024
  20562817.987   -25664254.720 9 -19981857.50848  20562818.147    20562819.4224
  21393147.215   -22448503.569 9 -17475830.17747  21393146.983    21393148.8064
  21525946.034   -20778277.721 9 -16173467.61047  21525945.428    21525947.9564
 00  1 21  3 20 30.0000000  0  6 24 10 17 30 06 05
  22721369.975   -13713985.217 8 -10643334.65446  22721369.753    22721372.4274
  20746451.886   -22781262.931 9 -17738486.90447  20746451.031    20746453.3724
  23605810.285    -9593408.482 8  -6979813.85546  23605809.558    23605812.7794
  20564904.852   -25653288.347 9 -19973312.28748  20564905.002    20564906.2464
  21382657.966   -22503624.973 9 -17518781.90347  21382657.744    21382659.5484
  21541270.765   -20697745.904 9 -16110715.56047  21541270.169    21541272.6754
 00  1 21  3 21  0.0000000  0  6 24 10 17 30 06 05
  22735740.475   -13638467.828 8 -10584489.93846  22735740.284    22735742.8664
  20747319.961   -22776701.170 9 -17734932.27047  20747319.110    20747321.4464
  23591350.417    -9669395.202 8  -7039024.23446  23591349.699    23591352.8854
  20567097.418   -25641766.376 9 -19964334.12948  20567097.565    20567098.8244
  21372195.485   -22558605.786 9 -17561624.08247  21372195.237    21372197.0334
  21556664.043   -20616853.840 9 -16047682.79947  21556663.442    21556665.9364
 00  1 21  3 21 30.0000000  0  6 24 10 17 30 06 05
  22750115.030   -13562928.995 8 -10525628.51146  22750114.803    22750117.3714
  20748309.618   -22771500.626 9 -17730879.89147  20748308.735    20748311.0894
  23576925.718    -9745196.949 8  -7098090.47746  23576925.064    23576928.2554
  20569398.787   -25629672.603 9 -19954910.41348  20569398.951    20569400.1924
  21361759.932   -22613444.691 9 -17604355.68147  21361759.702    21361761.5144
  21572127.593   -20535592.372 9 -15984362.19247  21572126.977    21572129.4794
 00  1 21  3 22  0.0000000  0  6 24 10 17 30 06 05
  22764496.178   -13487355.750 8 -10466740.26946  22764495.957    22764498.4904
  20749418.786   -22765671.803 9 -17726337.93847  20749417.927    20749420.2664
  23562538.191    -9820803.390 8  -7157004.53046  23562537.475    23562540.7504
  20571809.191   -25617005.883 9 -19945040.24248  20571809.333    20571810.5944
  21351351.021   -22668144.017 9 -17646978.52147  21351350.778    21351352.5754
  21587658.963   -20453974.475 9 -15920763.84247  21587658.345    21587660.8304
 00  1 21  3 22 30.0000000  0  6 24 10 17 30 06 05
  22778882.853   -13411753.462 8 -10407829.39946  22778882.617    22778885.1044
  20750643.601   -22759235.179 9 -17721322.37347  20750642.729    20750645.0664
  23548187.825    -9896214.478 8  -7215766.35046  23548187.140    23548190.5054
  20574328.673   -25603765.815 9 -19934723.30648  20574328.829    20574330.1044
  21340968.530   -22722704.260 9 -17689492.97547  21340968.285    21340970.0884
  21603254.937   -20372017.036 9 -15856900.92147  21603254.358    21603256.8544
 00  1 21  3 23  0.0000000  0  6 24 10 17 30 06 05
  22793274.528   -13336124.778 8 -10348897.95946  22793274.275    22793276.7814
  20751978.758   -22752218.694 9 -17715854.97047  20751977.895    20751980.2264
  23533875.928    -9971423.468 8  -7274370.69646  23533875.267    23533878.7044
  20576961.259   -25589931.369 9 -19923943.22248  20576961.426    20576962.6914
  21330612.060   -22777127.946 9 -17731901.03147  21330611.825    21330613.6184
  21618914.258   -20289726.966 9 -15792778.80647  21618913.657    21618916.1634
 00  1 21  3 23 30.0000000  0  6 24 10 17 30 06 05
  22807669.889   -13260476.770 8 -10289951.47346  22807669.619    22807672.1234
  20753425.415   -22744616.446 9 -17709931.12847  20753424.553    20753426.8834
  23519603.489   -10046424.899 8  -7332813.31046  23519602.858    23519606.3034
  20579708.968   -25575492.222 9 -19912691.94148  20579709.134    20579710.4054
  21320281.276   -22831416.665 9 -17774203.91747  21320281.017    21320282.7904
  21634635.679   -20207110.447 9 -15728402.31147  21634635.074    21634637.5994
 00  1 21  3 24  0.0000000  0  6 24 10 17 30 06 05
  22822069.933   -13184803.907 8 -10230985.59646  22822069.680    22822072.2074
  20754986.642   -22736412.098 9 -17703538.11947  20754985.792    20754988.1304
  23505367.599   -10121234.934 8  -7391106.79246  23505366.993    23505370.4084
  20582573.023   -25560441.457 9 -19900964.07348  20582573.181    20582574.4474
  21309979.555   -22885552.337 9 -17816387.54747  21309979.298    21309981.0824
  21650420.882   -20124158.605 9 -15663764.52947  21650420.266    21650422.8114
 00  1 21  3 24 30.0000000  0  6 24 10 17 30 06 05
  22836477.277   -13109092.650 8 -10171989.82046  22836477.036    22836479.5714
  20756667.715   -22727578.096 9 -17696654.47347  20756666.869    20756669.1994
  23491169.667   -10195845.504 8  -7449244.83846  23491169.102    23491172.4774
  20585558.424   -25544752.950 9 -19888739.26748  20585558.574    20585559.8554
  21299709.680   -22939520.861 9 -17858440.93147  21299709.448    21299711.2244
  21666275.627   -20040841.355 9 -15598842.01447  21666275.030    21666277.5714
 00  1 21  3 25  0.0000000  0  6 24 10 17 30 06 05
  22850895.206   -13033325.741 8 -10112950.67046  22850894.945    22850897.5404
  20758473.063   -22718090.782 9 -17689261.75147  20758472.199    20758474.5434
  23477010.279   -10270253.558 8  -7507225.08146  23477009.715    23477013.0454
  20588665.747   -25528423.824 9 -19876015.27848  20588665.903    20588667.1944
  21289471.906   -22993320.766 9 -17900362.92547  21289471.675    21289473.4274
  21682201.493   -19957150.531 9 -15533628.40447  21682200.865    21682203.4144
 00  1 21  3 25 30.0000000  0  6 24 10 17 30 06 05
  22865324.573   -12957498.807 8 -10053864.75146  22865324.305    22865326.9054
  20760408.958   -22707917.389 9 -17681334.42047  20760408.099    20760410.4434
  23462889.520   -10344459.032 8  -7565047.48746  23462888.920    23462892.2014
  20591893.002   -25511464.435 9 -19862800.17248  20591893.149    20591894.4454
  21279268.207   -23046941.578 9 -17942145.36347  21279267.959    21279269.7114
  21698199.708   -19873079.413 9 -15468118.45747  21698199.099    21698201.6714
 00  1 21  3 26  0.0000000  0  6 24 10 17 30 06 05
  22879766.957   -12881603.296 8  -9994725.38846  22879766.707    22879769.2914
  20762474.685   -22697062.047 9 -17672875.69947  20762473.829    20762476.1534
  23448808.424   -10418455.807 8  -7622707.24846  23448807.788    23448811.0314
  20595240.305   -25493874.293 9 -19849093.56748  20595240.472    20595241.7454
  21269100.342   -23100373.885 9 -17983780.91847  21269100.108    21269101.8844
  21714270.742   -19788625.609 8 -15402310.31147  21714270.104    21714272.6714
 00  1 21  3 26 30.0000000  0  6 24 10 17 30 06 05
  22894221.272   -12805645.452 8  -9935537.47746  22894220.991    22894223.6084
  20764666.892   -22685541.793 9 -17663898.87047  20764666.051    20764668.3814
  23434769.549   -10492230.480 8  -7680193.95246  23434768.907    23434772.0894
  20598705.508   -25475664.680 9 -19834904.26548  20598705.663    20598706.9614
  21258968.200   -23153618.776 9 -18025270.43347  21258967.953    21258969.7114
  21730411.316   -19703806.120 8 -15336217.22547  21730410.720    21730413.2774
 00  1 21  3 27  0.0000000  0  6 24 10 17 30 06 05
  22908686.282   -12729631.600 8  -9876305.90946  22908685.997    22908688.5974
  20766981.260   -22673379.609 9 -17654421.83247  20766980.419    20766982.7334
  23420770.355   -10565796.662 8  -7737518.20346  23420769.649    23420772.8794
  20602286.970   -25456843.844 9 -19820238.68148  20602287.113    20602288.4434
  21248871.456   -23206677.448 9 -18066614.84547  21248871.213    21248872.9404
  21746616.727   -19618646.248 8 -15269858.89747  21746616.141    21746618.7264
 00  1 21  3 27 30.0000000  0  6 24 10 17 30 06 05
  22923161.198   -12653565.580 8  -9817033.68446  22923160.926    22923163.5334
  20769413.036   -22660600.637 9 -17644464.18247  20769412.185    20769414.4984
  23406810.632   -10639155.103 8  -7794680.56146  23406809.903    23406813.1714
  20605987.363   -25437398.170 9 -19805086.21248  20605987.522    20605988.8534
  21238811.541   -23259542.683 9 -18107808.52747  21238811.287    21238813.0164
  21762887.550   -19533142.683 8 -15203232.75947  21762886.967    21762889.5554
 00  1 21  3 28  0.0000000  0  6 24 10 17 30 06 05
  22937645.102   -12577452.216 8  -9757724.58246  22937644.779    22937647.3904
  20771956.113   -22647236.755 9 -17634050.75947  20771955.235    20771957.5434
  23392891.137   -10712302.220 8  -7851678.26346  23392890.429    23392893.7354
  20609806.136   -25417330.367 9 -19789448.96748  20609806.278    20609807.6384
  21228787.049   -23312221.746 9 -18148857.13647  21228786.777    21228788.5184
  21779222.338   -19447302.958 8 -15136344.68247  21779221.728    21779224.3094
 00  1 21  3 28 30.0000000  0  6 24 10 17 30 06 05
  22952134.600   -12501308.816 8  -9698392.07246  22952134.378    22952136.9894
  20774608.550   -22633297.963 9 -17623189.35047  20774607.678    20774609.9754
  23379009.960   -10785247.682 8  -7908518.82646  23379009.309    23379012.6584
  20613740.441   -25396655.400 9 -19773338.60448  20613740.604    20613741.9644
  21218795.951   -23364724.923 9 -18189768.69647  21218795.714    21218797.4524
  21795619.817   -19361133.674 8 -15069199.79747  21795619.227    21795621.7574
 00  1 21  3 29  0.0000000  0  6 24 10 17 30 06 05
  22966628.596   -12425142.829 8  -9639041.94746  22966628.304    22966630.8424
  20777371.098   -22618780.495 9 -17611877.02647  20777370.236    20777372.5304
  23365164.951   -10858003.737 8  -7965211.81246  23365164.304    23365167.6034
  20617790.161   -25375373.895 9 -19756755.61848  20617790.321    20617791.6914
  21208837.284   -23417057.818 9 -18230547.56447  21208837.068    21208838.7974
  21812081.475   -19274627.411 8 -15001792.33347  21812080.891    21812083.3994
 00  1 21  3 29 30.0000000  0  6 24 10 17 30 06 05
  22981124.511   -12348966.196 8  -9579683.54446  22981124.279    22981126.8134
  20780246.401   -22603670.789 9 -17600103.22047  20780245.545    20780247.8174
  23351357.829   -10930560.828 8  -8021749.76946  23351357.162    23351360.3694
  20621949.665   -25353515.401 9 -19739723.03148  20621949.831    20621951.2024
  21198910.323   -23469224.457 9 -18271196.88547  21198910.110    21198911.8304
  21828607.140   -19187784.569 8 -14934122.60647  21828606.540    21828609.0724
 00  1 21  3 30  0.0000000  0  6 24 10 17 30 06 05
  22995620.829   -12272787.797 8  -9520323.75346  22995620.553    22995623.1034
  20783236.740   -22587956.466 9 -17587858.28547  20783235.885    20783238.1614
  23337586.929   -11002927.204 8  -8078139.11546  23337586.265    23337589.3794
  20626214.342   -25331104.472 9 -19722259.97548  20626214.509    20626215.8674
  21189015.227   -23521223.523 9 -18311715.62847  21189015.000    21189016.7234
  21845193.502   -19100622.723 8 -14866204.30347  21845192.908    21845195.4304
 00  1 21  3 30 30.0000000  0  6 24 10 17 30 06 05
  23010117.380   -12196607.933 8  -9460962.82846  23010117.087    23010119.6774
  20786345.296   -22571620.817 9 -17575129.19647  20786344.423    20786346.7304
  23323850.849   -11075110.270 8  -8134385.61246  23323850.194    23323853.3094
  20630583.269   -25308145.927 9 -19704370.20648  20630583.424    20630584.7614
  21179154.420   -23573042.262 9 -18352093.85447  21179154.187    21179155.9544
  21861839.290   -19013148.245 8 -14798042.38547  21861838.704    21861841.2244
 00  1 21  3 31  0.0000000  0  6 24 10 17 30 06 05
  23024615.086   -12120421.761 8  -9401596.98946  23024614.791    23024617.4254
  20789571.697   -22554665.887 9 -17561917.55647  20789570.850    20789573.1314
  23310152.171   -11147097.247 8  -8190479.32246  23310151.528    23310154.5754
  20635056.538   -25284638.720 9 -19686052.90948  20635056.697    20635058.0354
  21169329.012   -23624675.016 9 -18392327.16147  21169328.809    21169330.5444
  21878544.255   -18925363.172 8 -14729638.45247  21878543.659    21878546.1624
 00  1 21  3 31 30.0000000  0  6 24 10 17 30 06 05
  23039113.553   -12044232.349 8  -9342228.61646  23039113.223    23039115.8214
  20792913.713   -22537103.361 9 -17548232.45747  20792912.866    20792915.1364
  23296491.073   -11218886.709 8  -8246419.11646  23296490.385    23296493.4424
  20639633.924   -25260584.556 9 -19667309.40948  20639634.069    20639635.4144
  21159538.902   -23676122.464 9 -18432416.06747  21159538.666    21159540.4064
  21895306.528   -18837277.170 8 -14661000.02247  21895305.925    21895308.4034
 00  1 21  3 32  0.0000000  0  6 24 10 17 30 06 05
  23053612.132   -11968041.893 8  -9282859.43946  23053611.796    23053614.3434
  20796368.150   -22518950.227 9 -17534087.15047  20796367.295    20796369.5984
  23282866.036   -11290486.274 8  -8302210.94146  23282865.368    23282868.4294
  20644321.084   -25235953.240 9 -19648116.18348  20644321.234    20644322.5864
  21149784.312   -23727383.275 9 -18472359.54747  21149784.069    21149785.7884
  21912126.355   -18748888.549 8 -14592125.78847  21912125.741    21912128.2234
 00  1 21  3 32 30.0000000  0  6 24 10 17 30 06 05
  23068112.099   -11891844.151 8  -9223484.56946  23068111.769    23068114.3124
  20799935.594   -22500203.315 9 -17519479.15747  20799934.725    20799937.0104
  23269280.888   -11361876.414 8  -8357839.59346  23269280.222    23269283.2424
  20649122.381   -25210722.267 9 -19628455.69248  20649122.520    20649123.8764
  21140064.351   -23778462.000 9 -18512161.14347  21140064.118    21140065.8134
  21929006.017   -18660185.340 8 -14523006.42047  21929005.395    21929007.9394
 00  1 21  3 33  0.0000000  0  6 24 10 17 30 06 05
  23082614.096   -11815635.410 8  -9164101.13946  23082613.789    23082616.3234
  20803614.045   -22480872.674 9 -17504416.31247  20803613.178    20803615.4684
  23255735.721   -11433056.852 8  -8413304.82346  23255735.040    23255737.9714
  20654038.798   -25184886.247 9 -19608323.73848  20654038.956    20654040.3374
  21130375.676   -23829376.181 9 -18551834.52147  21130375.445    21130377.1554
  21945946.107   -18571164.282 8 -14453639.38647  21945945.528    21945948.0844
 00  1 21  3 33 30.0000000  0  6 24 10 17 30 06 05
  23097119.991   -11739406.307 8  -9104701.86246  23097119.697    23097122.2724
  20807406.822   -22460941.389 9 -17488885.43347  20807405.983    20807408.2384
  23242227.399   -11504043.457 8  -8468619.02046  23242226.731    23242229.6224
  20659070.216   -25158446.017 9 -19587720.97148  20659070.383    20659071.7534
  21120717.728   -23880129.016 9 -18591382.17747  21120717.492    21120719.1874
  21962944.781   -18481835.744 8 -14384032.75047  21962944.170    21962946.7364
 00  1 21  3 34  0.0000000  0  6 24 10 17 30 06 05
  23111631.239   -11663148.874 8  -9045280.48846  23111630.951    23111633.5714
  20811315.626   -22440400.495 9 -17472879.52747  20811314.796    20811317.0464
  23228756.707   -11574832.438 8  -8523779.23146  23228756.037    23228758.8834
  20664215.099   -25131409.586 9 -19566653.62848  20664215.251    20664216.5974
  21111091.221   -23930716.665 9 -18630801.11147  21111090.966    21111092.6654
  21980002.498   -18392196.808 8 -14314184.25047  21980001.891    21980004.4674
 00  1 21  3 34 30.0000000  0  6 24 10 17 30 06 05
  23126147.889   -11586863.107 8  -8985837.04246  23126147.661    23126150.2914
  20815339.171   -22419256.606 9 -17456403.76247  20815338.331    20815340.5924
  23215322.620   -11645428.632 8  -8578789.21046  23215321.967    23215324.8494
  20669467.512   -25103808.126 9 -19545146.00548  20669467.665    20669468.9924
  21101496.573   -23981136.753 9 -18670089.48347  21101496.328    21101498.0204
  21997117.890   -18302254.731 8 -14244099.53447  21997117.293    21997119.8964
 00  1 21  3 35  0.0000000  0  6 24 10 17 30 06 05
  23140668.231   -11510558.656 8  -8926379.03446  23140668.009    23140670.5704
  20819475.220   -22397521.455 9 -17439467.27447  20819474.388    20819476.6334
  23201921.972   -11715849.354 8  -8633662.45746  23201921.324    23201924.2114
  20674823.866   -25075660.200 9 -19523212.56748  20674824.027    20674825.3704
  21091933.877   -24031389.054 9 -18709247.11547  21091933.638    21091935.3214
  22014286.127   -18212035.330 8 -14173798.72347  22014285.517    22014288.1224
 00  1 21  3 35 30.0000000  0  6 24 10 17 30 06 05
  23155190.526   -11434243.566 8  -8866912.73846  23155190.325    23155192.8584
  20823722.699   -22375200.674 9 -17422074.44447  20823721.847    20823724.0954
  23188555.715   -11786089.161 8  -8688394.72946  23188555.057    23188557.9944
  20680285.104   -25046961.178 9 -19500849.69848  20680285.276    20680286.6324
  21082405.686   -24081459.931 9 -18748263.37247  21082405.464    21082407.1554
  22031505.522   -18121546.813 8 -14103288.21147  22031504.907    22031507.5344
 00  1 21  3 36  0.0000000  0  6 24 10 17 30 06 05
  23169713.304   -11357925.987 8  -8807444.49746  23169713.091    23169715.6394
  20828077.762   -22352314.576 9 -17404241.11047  20828076.902    20828079.1804
  23175225.332   -11856140.948 8  -8742980.48946  23175224.656    23175227.5704
  20685851.431   -25017710.010 9 -19478056.58748  20685851.593    20685852.9524
  21072914.111   -24131338.500 9 -18787129.78547  21072913.885    21072915.6034
  22048776.686   -18030786.357 8 -14032565.79647  22048776.080    22048778.7304
 00  1 21  3 36 30.0000000  0  6 24 10 17 30 06 05
  23184235.195   -11281612.688 8  -8747979.59346  23184234.978    23184237.5144
  20832540.479   -22328862.745 9 -17385966.95147  20832539.643    20832541.8994
  23161931.068   -11926002.265 8  -8797417.83546  23161930.399    23161933.3324
  20691524.213   -24987899.411 9 -19454827.56048  20691524.366    20691525.7274
  21063459.616   -24181022.258 9 -18825844.39747  21063459.400    21063461.0954
  22066096.667   -17939769.292 8 -13961643.42447  22066096.060    22066098.7204
 00  1 21  3 37  0.0000000  0  6 24 10 17 30 06 05
  23198755.767   -11205306.349 8  -8688520.11346  23198755.555    23198758.1604
  20837114.431   -22304826.332 9 -17367237.26947  20837113.576    20837115.8574
  23148675.251   -11995661.887 8  -8851698.01946  23148674.606    23148677.5674
  20697306.522   -24957513.054 9 -19431149.88548  20697306.663    20697308.0504
  21054041.570   -24230514.527 9 -18864409.79347  21054041.340    21054043.0024
  22083467.204   -17848486.521 8 -13890514.01347  22083466.584    22083469.2784
 00  1 21  3 37 30.0000000  0  6 24 10 17 30 06 05
  23213274.610   -11129009.737 8  -8629068.21846  23213274.364    23213277.0004
  20841800.704   -22280199.663 9 -17348047.65247  20841799.832    20841802.1434
  23135457.729   -12065120.226 8  -8905821.36446  23135457.086    23135460.0074
  20703198.175   -24926552.142 9 -19407024.50848  20703198.344    20703199.7244
  21044662.353   -24279802.604 9 -18902816.08247  21044662.114    21044663.7794
  22100893.882   -17756908.890 8 -13819154.84347  22100893.250    22100895.9404
 00  1 21  3 38  0.0000000  0  6 24 10 17 30 06 05
  23227792.200   -11052719.486 8  -8569621.27746  23227791.934    23227794.5594
  20846603.893   -22254958.757 9 -17328379.40547  20846603.027    20846605.3414
  23122279.077   -12134374.437 8  -8959785.64846  23122278.440    23122281.3814
  20709198.925   -24895018.120 9 -19382452.54948  20709199.060    20709200.4614
  21035323.708   -24328877.571 9 -18941056.31147  21035323.479    21035325.1534
  22118377.920   -17665029.746 8 -13747560.73147  22118377.276    22118379.9794
 00  1 21  3 38 30.0000000  0  6 24 10 17 30 06 05
  23242308.103   -10976437.934 8  -8510181.11546  23242307.805    23242310.4304
  20851526.206   -22229091.714 9 -17308223.26047  20851525.359    20851527.6664
  23109141.212   -12203414.592 8  -9013583.13246  23109140.565    23109143.4674
  20715310.269   -24862902.694 9 -19357427.55048  20715310.419    20715311.8304
  21026025.168   -24377741.477 9 -18979132.07647  21026024.946    21026026.6334
  22135919.893   -17572845.926 8 -13675729.20147  22135919.262    22135921.9854
 00  1 21  3 39  0.0000000  0  6 24 10 17 30 06 05
  23256823.192   -10900160.600 8  -8450744.24846  23256822.907    23256825.5534
  20856567.168   -22202601.214 9 -17287581.30947  20856566.330    20856568.6244
  23096045.236   -12272234.163 8  -9067208.74546  23096044.611    23096047.5074
  20721534.260   -24830195.473 9 -19331941.41648  20721534.420    20721535.8294
  21016767.852   -24426389.051 9 -19017039.27347  21016767.644    21016769.2974
  22153522.840   -17480341.993 8 -13603648.23647  22153522.216    22153524.9354
 00  1 21  3 39 30.0000000  0  6 24 10 17 30 06 05
  23271340.320   -10823872.308 8  -8391298.83346  23271340.046    23271342.7244
  20861724.206   -22175500.883 9 -17266464.15747  20861723.360    20861725.6674
  23082991.480   -12340831.877 8  -9120661.46446  23082990.858    23082993.7584
  20727871.879   -24796891.293 9 -19305990.11348  20727872.033    20727873.4494
  21007552.181   -24474817.922 9 -19054776.05147  21007551.954    21007553.6164
  22171183.044   -17387536.823 8 -13531332.53347  22171182.470    22171185.1664
 00  1 21  3 40  0.0000000  0  6 24 10 17 30 06 05
  23285861.387   -10747564.026 8  -8331837.84246  23285861.104    23285863.7004
  20866994.480   -22147805.209 9 -17244883.10647  20866993.651    20866995.9314
  23069980.874   -12409203.125 8  -9173937.72946  23069980.235    23069983.1444
  20734323.325   -24762988.902 9 -19279572.67648  20734323.476    20734324.8814
  20998374.018   -24523049.481 9 -19092359.08347  20998373.778    20998375.4394
  22188896.376   -17294452.621 8 -13458799.40847  22188895.777    22188898.5174
 00  1 21  3 40 30.0000000  0  6 24 10 17 30 06 05
  23300384.667   -10671243.624 8  -8272367.40746  23300384.330    23300386.9664
  20872372.088   -22119545.951 9 -17222862.89647  20872371.228    20872373.5154
  23057010.522   -12477362.420 8  -9227048.83646  23057009.864    23057012.8184
  20740885.994   -24728501.703 9 -19252699.54348  20740886.143    20740887.5524
  20989230.224   -24571100.511 9 -19129801.43747  20989229.988    20989231.6514
  22206661.329   -17201097.212 8 -13386054.95047  22206660.739    22206663.4604
 00  1 21  3 41  0.0000000  0  6 24 10 17 30 06 05
  23314909.974   -10594912.098 8  -8212888.30446  23314909.674    23314912.3074
  20877854.738   -22090734.420 9 -17200412.34847  20877853.892    20877856.1824
  23044075.718   -12545335.537 8  -9280014.86846  23044075.029    23044077.9344
  20747557.201   -24693444.115 9 -19225381.95348  20747557.365    20747558.7584
  20980121.132   -24618969.006 9 -19167101.55747  20980120.904    20980122.5664
  22224475.795   -17107481.672 8 -13313107.79447  22224475.206    22224477.9024
 00  1 21  3 41 30.0000000  0  6 24 10 17 30 06 05
  23329437.353   -10518570.337 8  -8153401.22146  23329437.077    23329439.7354
  20883442.560   -22061370.179 9 -17177531.11747  20883441.714    20883443.9914
  23031173.760   -12613135.789 8  -9332846.20446  23031173.071    23031175.9204
  20754334.676   -24657828.297 9 -19197629.37848  20754334.853    20754336.2524
  20971047.828   -24666649.451 9 -19204255.14847  20971047.586    20971049.2564
  22242337.454   -17013618.251 8 -13239967.48746  22242336.880    22242339.5304
 00  1 21  3 42  0.0000000  0  6 24 10 17 30 06 05
  23343962.726   -10442238.953 8  -8093922.22446  23343962.461    23343965.0944
  20889137.549   -22031442.888 9 -17154211.13947  20889136.682    20889138.9594
  23018304.020   -12680766.818 8  -9385545.68146  23018303.320    23018306.1884
  20761215.991   -24621666.784 9 -19169451.58248  20761216.159    20761217.5394
  20962013.781   -24714123.575 9 -19241247.96447  20962013.550    20962015.2304
  22260248.835   -16919493.435 8 -13166623.48646  22260248.241    22260250.8994
 00  1 21  3 42 30.0000000  0  6 24 10 17 30 06 05
  23358485.124   -10365923.517 8  -8034455.65446  23358484.858    23358487.4204
  20894944.531   -22000926.812 9 -17130432.37647  20894943.691    20894945.9464
  23005468.153   -12748219.327 8  -9438106.05046  23005467.476    23005470.4094
  20768203.297   -24584948.337 9 -19140839.81548  20768203.442    20768204.8354
  20953023.928   -24761365.490 9 -19278059.84547  20953023.723    20953025.4074
  22278211.481   -16825099.399 8 -13093069.71546  22278210.866    22278213.5224
 00  1 21  3 43  0.0000000  0  6 24 10 17 30 06 05
  23373007.936   -10289606.051 8  -7974987.50146  23373007.634    23373010.1444
  20900868.677   -21969795.350 9 -17106174.08947  20900867.810    20900870.0894
  22992671.716   -12815464.667 8  -9490504.98446  22992671.045    22992674.0424
  20775300.258   -24547653.701 9 -19111779.06948  20775300.419    20775301.7834
  20944081.448   -24808358.551 9 -19314677.81047  20944081.244    20944082.9284
  22296224.881   -16730438.417 8 -13019307.92446  22296224.265    22296226.9174
 00  1 21  3 43 30.0000000  0  7 24 10 17 30 06 05 13
  23387535.408   -10213263.873 8  -7915500.08546  23387535.116    23387537.5854
  20906914.532   -21938024.084 9 -17081417.25647  20906913.685    20906915.9524
  22979923.750   -12882455.423 8  -9542705.53846  22979923.100    22979926.0424
  20782512.376   -24509753.801 9 -19082246.69348  20782512.536    20782513.9164
  20935189.749   -24855084.954 9 -19351087.99247  20935189.520    20935191.2174
  22314294.183   -16635483.512 8 -12945317.11446  22314293.596    22314296.2704
  24826857.508    -5939120.723 7  -4457677.57145  24826857.804    24826858.7924
 00  1 21  3 44  0.0000000  0  7 24 10 17 30 06 05 13
  23402061.162   -10136930.535 8  -7856019.57546  23402060.830    23402063.3774
  20913075.129   -21905649.881 9 -17056190.59747  20913074.270    20913076.5364
  22967220.132   -12949213.750 8  -9594724.97846  22967219.435    22967222.3254
  20789834.152   -24471277.643 9 -19052265.27848  20789834.307    20789835.6754
  20926341.752   -24901581.433 9 -19387319.00847  20926341.525    20926343.2094
  22332413.422   -16540266.327 8 -12871121.91946  22332412.812    22332415.5234
  24823291.698    -5957858.511 7  -4472278.42245  24823292.123    24823292.9574
 00  1 21  3 44 30.0000000  0  7 24 10 17 30 06 05 13
  23416587.142   -10060595.722 8  -7796537.90546  23416586.814    23416589.4124
  20919345.697   -21872697.591 9 -17030513.48447  20919344.849    20919347.1494
  22954559.566   -13015745.275 8  -9646567.69746  22954558.830    22954561.7544
  20797263.718   -24432235.001 9 -19021842.45548  20797263.894    20797265.2484
  20917533.839   -24947867.372 9 -19423385.97147  20917533.613    20917535.2874
  22350577.157   -16444815.279 8 -12796744.49946  22350576.548    22350579.2634
  24819809.631    -5976156.449 7  -4486536.54445  24819809.933    24819811.0334
 00  1 21  3 45  0.0000000  0  7 24 10 17 30 06 05 13
  23431113.463    -9984259.497 8  -7737055.14646  23431113.178    23431115.8044
  20925720.646   -21839197.091 9 -17004409.19547  20925719.816    20925722.0854
  22941940.846   -13082056.634 8  -9698238.86146  22941940.156    22941943.0914
  20804796.826   -24392648.337 9 -18990995.71348  20804796.999    20804798.3654
  20908765.491   -24993945.293 9 -19459290.84147  20908765.253    20908766.9134
  22368782.841   -16349143.964 8 -12722195.44246  22368782.224    22368784.9314
  24816410.027    -5994021.706 7  -4500457.51545  24816410.067    24816411.2924
 00  1 21  3 45 30.0000000  0  7 24 10 17 30 06 05 13
  23445636.328    -9907941.433 8  -7677586.53746  23445636.044    23445638.6584
  20932195.662   -21805171.003 9 -16977895.35647  20932194.803    20932197.0494
  22929360.306   -13148167.484 8  -9749753.77246  22929359.615    22929362.5624
  20812428.919   -24352541.367 9 -18959743.54148  20812429.095    20812430.4634
  20900038.446   -25039806.148 9 -19495026.56747  20900038.205    20900039.8464
  22387029.319   -16253258.471 8 -12647479.49046  22387028.682    22387031.3784
  24813092.953    -6011453.544 7  -4514040.74345  24813093.024    24813094.0254
 00  1 21  3 46  0.0000000  0  7 24 10 17 30 06 05 13
  23460154.423    -9831648.493 8  -7618137.49146  23460154.163    23460156.7944
  20938770.067   -21770622.227 9 -16950974.22747  20938769.202    20938771.4414
  22916816.129   -13214087.182 8  -9801119.75046  22916815.469    22916818.4654
  20820156.789   -24311931.238 9 -18928099.29048  20820156.975    20820158.3524
  20891353.687   -25085444.764 9 -19530589.11947  20891353.427    20891355.0984
  22405313.669   -16157173.693 8 -12572608.25046  22405313.005    22405315.7264
  24809859.898    -6028442.696 7  -4527279.03045  24809859.912    24809860.9874
 00  1 21  3 46 30.0000000  0  7 24 10 17 30 06 05 13
  23474666.588    -9755386.780 8  -7558712.79246  23474666.277    23474668.9084
  20945444.790   -21735546.372 9 -16923642.39247  20945443.921    20945446.1514
  22904305.885   -13279828.930 8  -9852347.05546  22904305.190    22904308.1544
  20827979.622   -24270822.049 9 -18896066.17148  20827979.790    20827981.1934
  20882712.131   -25130856.275 9 -19565974.71147  20882711.889    20882713.5544
  22423635.138   -16060893.721 8 -12497584.91946  22423634.481    22423637.2444
  24806711.895    -6044985.336 8  -4540169.36645  24806711.940    24806712.9514
 00  1 21  3 47  0.0000000  0  7 24 10 17 30 06 05 13
  23489170.750    -9679166.288 8  -7499320.22246  23489170.495    23489173.2044
  20952222.943   -21699926.741 9 -16895886.83347  20952222.098    20952224.3254
  22891829.276   -13345394.191 8  -9903436.85146  22891828.587    22891831.5034
  20835900.989   -24229195.070 9 -18863629.57848  20835901.156    20835902.5454
  20874116.301   -25176027.582 9 -19601173.12848  20874116.060    20874117.7514
  22441996.384   -15964404.895 8 -12422398.83446  22441995.729    22441998.4674
  24803649.643    -6061077.229 7  -4552708.47845  24803649.770    24803650.8254
 00  1 21  3 47 30.0000000  0  7 24 10 17 30 06 05 13
  23503669.329    -9602975.618 8  -7439950.88046  23503669.049    23503671.7244
  20959111.003   -21663729.725 9 -16867681.36147  20959110.140    20959112.4084
  22879386.808   -13410779.770 8  -9954386.62046  22879386.101    22879388.9664
  20843926.489   -24187020.843 9 -18830766.55448  20843926.650    20843928.0404
  20865566.576   -25220956.747 9 -19636182.86448  20865566.329    20865568.0544
  22460401.469   -15867685.468 8 -12347033.06646  22460400.808    22460403.5584
  24800676.399    -6076702.085 8  -4564883.65545  24800676.468    24800677.7164
 00  1 21  3 48  0.0000000  0  7 24 10 17 30 06 05 13
  23518167.419    -9526787.306 8  -7380583.38845  23518167.171    23518169.8574
  20966113.637   -21626930.413 9 -16839006.56947  20966112.772    20966115.0454
  22866981.087   -13475972.203 8 -10005185.88246  22866980.399    22866983.2404
  20852062.531   -24144265.729 9 -18797450.89547  20852062.707    20852064.0634
  20857061.753   -25265649.812 9 -19671008.62648  20857061.507    20857063.2184
  22478854.607   -15770713.539 8 -12271470.54546  22478853.923    22478856.7244
  24797795.391    -6091842.604 7  -4576681.44845  24797795.503    24797796.6254
 00  1 21  3 48 30.0000000  0  7 24 10 17 30 06 05 13
  23532668.312    -9450584.350 8  -7321204.45745  23532668.113    23532670.8744
  20973231.606   -21589525.290 9 -16809859.71447  20973230.745    20973233.0194
  22854612.942   -13540967.253 8 -10055831.35446  22854612.261    22854615.0304
  20860312.764   -24100910.766 9 -18763667.81648  20860312.916    20860314.2734
  20848603.457   -25310098.375 9 -19705643.85948  20848603.232    20848604.9224
  22497358.135   -15673476.763 8 -12195701.63846  22497357.463    22497360.3044
  24795006.777    -6106496.953 7  -4588100.37945  24795006.834    24795007.7504
 00  1 21  3 49  0.0000000  0  7 24 10 17 30 06 05 13
  23547172.818    -9374363.224 8  -7261811.39745  23547172.542    23547175.2854
  20980462.295   -21551528.001 9 -16780251.43647  20980461.409    20980463.6734
  22842286.049   -13605745.289 8 -10106307.72046  22842285.365    22842288.1404
  20868677.082   -24056955.988 9 -18729417.35647  20868677.235    20868678.6074
  20840190.468   -25354308.951 9 -19740093.66048  20840190.236    20840191.9254
  22515911.039   -15575980.475 8 -12119730.52746  22515910.409    22515913.2424
  24792310.265    -6120667.124 7  -4599142.05445  24792310.340    24792311.2724
 00  1 21  3 49 30.0000000  0  7 24 10 17 30 06 05 13
  23561682.437    -9298114.811 8  -7202397.06345  23561682.117    23561684.8794
  20987804.578   -21512943.793 9 -16750185.81547  20987803.696    20987805.9634
  22829999.719   -13670310.184 8 -10156618.00046  22829999.031    22830001.8234
  20877150.637   -24012427.286 9 -18694719.67747  20877150.779    20877152.1534
  20831821.250   -25398289.365 9 -19774364.10848  20831821.020    20831822.7154
  22534512.807   -15478227.712 8 -12043559.55046  22534512.172    22534514.9864
  24789706.224    -6134351.190 8  -4609804.92645  24789706.353    24789707.3494
 00  1 21  3 50  0.0000000  0  7 24 10 17 30 06 05 13
  23576193.116    -9221860.208 8  -7142977.90045  23576192.832    23576195.5874
  20995251.366   -21473810.668 9 -16719692.46647  20995250.491    20995252.7704
  22817753.767   -13734663.034 8 -10206763.04746  22817753.088    22817755.8504
  20885728.622   -23967349.589 9 -18659594.20947  20885728.771    20885730.1734
  20823495.210   -25442042.973 9 -19808457.82348  20823494.975    20823496.6594
  22553157.709   -15380248.037 8 -11967211.76846  22553157.124    22553159.8894
  24787192.673    -6147561.026 8  -4620098.28045  24787192.763    24787193.6984
 00  1 21  3 50 30.0000000  0  7 24 10 17 30 06 05 13
  23590700.966    -9145620.865 8  -7083570.64545  23590700.688    23590703.5014
  21002797.827   -21434153.658 9 -16688790.90047  21002796.986    21002799.2654
  22805548.218   -13798803.317 8 -10256742.46046  22805547.558    22805550.3514
  20894407.334   -23921742.683 9 -18624056.37947  20894407.493    20894408.8824
  20815212.874   -25485566.942 9 -19842372.60848  20815212.628    20815214.3124
  22571841.585   -15282063.900 8 -11890704.66946  22571840.990    22571843.7444
  24784765.366    -6160316.626 7  -4630037.68545  24784765.473    24784766.2864
 00  1 21  3 51  0.0000000  0  7 24 10 17 30 06 05 13
  23605201.456    -9069420.770 8  -7024193.95945  23605201.229    23605203.9344
  21010443.143   -21393977.271 9 -16657484.62347  21010442.293    21010444.5644
  22793381.148   -13862741.590 8 -10306564.46246  22793380.501    22793383.2694
  20903184.597   -23875618.001 9 -18588115.08047  20903184.746    20903186.1274
  20806972.240   -25528871.688 9 -19876116.56448  20806972.013    20806973.6774
  22590562.721   -15183683.722 8 -11814044.80646  22590562.129    22590564.8924
  24782423.071    -6172625.118 7  -4639628.70245  24782423.195    24782424.3254
 00  1 21  3 51 30.0000000  0  7 24 10 17 30 06 05 13
  23619695.271    -8993255.478 8  -6964844.38746  23619695.045    23619697.6884
  21018189.448   -21353270.188 9 -16625764.81447  21018188.591    21018190.8604
  22781251.679   -13926482.380 8 -10356232.58346  22781251.028    22781253.7704
  20912059.489   -23828980.144 9 -18551773.90947  20912059.642    20912061.0134
  20798774.198   -25571952.686 9 -19909686.17248  20798773.958    20798775.6294
  22609323.779   -15085093.647 8 -11737221.38946  22609323.181    22609325.9384
  24780164.847    -6184492.361 7  -4648875.87445  24780165.059    24780166.1164
 00  1 21  3 52  0.0000000  0  8 24 10 17 30 06 26 05 13
  23634180.016    -8917137.942 8  -6905532.02346  23634179.767    23634182.3344
  21026033.670   -21312048.657 9 -16593644.13747  21026032.810    21026035.0454
  22769162.379   -13990012.009 8 -10405736.16146  22769161.727    22769164.4744
  20921033.970   -23781818.999 9 -18515024.97747  20921034.109    20921035.5134
  20790618.561   -25614810.835 9 -19943082.13148  20790618.324    20790619.9834
  24375672.366    -6306896.457 7  -4879687.62245  24375672.353    24375676.2234
  22628122.729   -14986304.451 8 -11660242.80946  22628122.156    22628124.8784
  24777985.047    -6195946.766 7  -4657801.36745  24777985.188    24777986.5624
 00  1 21  3 52 30.0000000  0  8 24 10 17 30 06 26 05 13
  23648653.320    -8841080.808 8  -6846266.72446  23648653.058    23648655.5554
  21033976.725   -21270307.694 9 -16561118.70547  21033975.862    21033978.0704
  22757107.195   -14053362.261 8 -10455099.96246  22757106.553    22757109.3074
  20930103.441   -23734158.560 9 -18477886.98647  20930103.611    20930104.9844
  20782501.345   -25657467.196 9 -19976320.84848  20782501.104    20782502.7574
  24359402.015    -6392397.026 7  -4946311.37445  24359402.137    24359405.9314
  22646955.939   -14887335.340 8 -11583124.03846  22646955.359    22646958.0704
  24775879.575    -6207010.765 8  -4666422.64745  24775879.625    24775881.0594
 00  1 21  3 53  0.0000000  0  8 24 10 17 30 06 26 05 13
  23663125.125    -8765031.031 8  -6787007.16745  23663124.899    23663127.4094
  21042032.016   -21227976.727 9 -16528133.53147  21042031.155    21042033.3744
  22745093.680   -14116493.641 8 -10504293.21246  22745093.000    22745095.7624
  20939276.084   -23685955.966 9 -18440326.53547  20939276.241    20939277.6394
  20774433.490   -25699864.160 9 -20009357.44448  20774433.239    20774434.8934
  24343131.439    -6477899.029 7  -5012936.24445  24343131.621    24343135.2884
  22665833.870   -14788131.398 8 -11505822.27646  22665833.270    22665836.0024
  24773861.467    -6217616.742 7  -4674687.00145  24773861.403    24773862.7894
 00  1 21  3 53 30.0000000  0  8 24 10 17 30 06 26 05 13
  23677597.538    -8688977.775 8  -6727744.90445  23677597.300    23677599.8544
  21050198.025   -21185064.209 9 -16494695.20047  21050197.172    21050199.3764
  22733124.136   -14179393.662 8 -10553306.18546  22733123.486    22733126.2724
  20948551.881   -23637211.345 9 -18402343.72847  20948552.009    20948553.4544
  20766415.284   -25742000.065 9 -20042190.61348  20766415.060    20766416.7114
  24326860.677    -6563402.510 7  -5079562.26845  24326860.825    24326864.5024
  22684754.364   -14688703.367 8 -11428345.90546  22684753.812    22684756.5234
  24771933.007    -6227748.457 8  -4682581.87445  24771933.147    24771935.3204
 00  1 21  3 54  0.0000000  0  8 24 10 17 30 06 26 05 13
  23692068.393    -8612933.090 8  -6668489.30545  23692068.093    23692070.6514
  21058471.744   -21141585.306 9 -16460815.52547  21058470.874    21058473.1024
  22721194.188   -14242086.054 8 -10602157.35946  22721193.465    22721196.3414
  20957931.090   -23587923.164 9 -18363937.36347  20957931.246    20957932.6824
  20758447.544   -25783870.795 9 -20074817.15048  20758447.316    20758448.9804
  24310589.704    -6648907.467 7  -5146189.43545  24310589.779    24310593.4544
  22703711.344   -14589083.772 8 -11350720.25946  22703710.818    22703713.5144
  24770099.935    -6237382.338 8  -4690088.74345  24770100.036    24770101.4044
 00  1 21  3 54 30.0000000  0  8 24 10 17 30 06 26 05 13
  23706538.249    -8536893.470 8  -6609237.66245  23706537.966    23706540.5214
  21066856.430   -21097523.433 9 -16426481.59747  21066855.589    21066857.7984
  22709300.546   -14304587.323 8 -10650859.62346  22709299.809    22709302.6534
  20967415.743   -23538080.964 9 -18325099.30447  20967415.900    20967417.3424
  20750532.392   -25825465.177 9 -20107228.36148  20750532.175    20750533.8224
  24294325.998    -6734373.496 7  -5212786.27545  24294325.968    24294329.6804
  22722705.955   -14489266.573 8 -11272940.64346  22722705.388    22722708.0904
  24768368.277    -6246483.247 7  -4697180.34745  24768368.215    24768369.3444
 00  1 21  3 55  0.0000000  0  8 24 10 17 30 06 26 05 13
  23721007.665    -8460856.041 8  -6549987.72445  23721007.418    23721009.8774
  21075348.411   -21052897.799 9 -16391708.37047  21075347.561    21075349.7794
  22697444.274   -14366892.306 8 -10699408.93146  22697443.557    22697446.3464
  20977005.443   -23487686.942 9 -18285831.24747  20977005.601    20977007.0224
  20742669.272   -25866786.130 9 -20139426.50248  20742669.039    20742670.6814
  24278073.681    -6819779.892 7  -5279336.64545  24278073.620    24278077.1814
  22741740.059   -14389241.775 8 -11194999.25846  22741739.511    22741742.2074
  24766739.678    -6255040.085 7  -4703847.99345  24766739.844    24766741.1894
 00  1 21  3 55 30.0000000  0  8 24 10 17 30 06 26 05 13
  23735477.508    -8384816.778 8  -6490736.34445  23735477.201    23735479.6694
  21083941.971   -21007738.271 9 -16356519.12747  21083941.111    21083943.3544
  22685624.418   -14429005.792 8 -10747809.03046  22685623.729    22685626.4994
  20986699.144   -23436746.202 9 -18246137.18347  20986699.290    20986700.7454
  20734856.584   -25907842.150 9 -20171418.20748  20734856.348    20734857.9994
  24261831.808    -6905130.925 7  -5345843.89045  24261831.724    24261835.3314
  22760810.892   -14289024.059 8 -11116907.54746  22760810.319    22760813.0374
  24765212.727    -6263065.216 7  -4710101.30845  24765212.910    24765213.7264
 00  1 21  3 56  0.0000000  0  8 24 10 17 30 06 26 05 13
  23749945.394    -8308787.358 8  -6431492.63945  23749945.065    23749947.5634
  21092637.027   -20962045.251 9 -16320914.17047  21092636.192    21092638.4274
  22673837.987   -14490944.002 8 -10796072.53046  22673837.279    22673840.0304
  20996494.177   -23385273.039 9 -18206028.23847  20996494.320    20996495.7644
  20727096.837   -25948620.033 9 -20203193.17648  20727096.590    20727098.2244
  24245600.109    -6990428.571 7  -5412309.52945  24245599.861    24245603.7334
  22779917.407   -14188618.494 8 -11038669.46446  22779916.821    22779919.5334
  24763782.284    -6270580.731 7  -4715957.53945  24763782.422    24763783.1604
 00  1 21  3 56 30.0000000  0  8 24 10 17 30 06 26 05 13
  23764412.201    -8232763.474 8  -6372253.27945  23764411.910    23764414.4824
  21101435.264   -20915810.152 9 -16284886.81847  21101434.421    21101436.6824
  22662089.881   -14552680.712 8 -10844179.03646  22662089.162    22662091.9234
  21006387.249   -23333284.670 9 -18165517.84047  21006387.410    21006388.8444
  20719390.373   -25989117.773 9 -20234749.85948  20719390.155    20719391.7544
  24229377.395    -7075678.855 7  -5478738.26445  24229377.241    24229381.0744
  22799062.334   -14088011.211 8 -10960274.19446  22799061.768    22799064.5354
  24762445.892    -6277603.087 8  -4721429.47145  24762446.016    24762447.1264
 00  1 21  3 57  0.0000000  0  8 24 10 17 30 06 26 05 13
  23778878.483    -8156742.576 8  -6313016.23245  23778878.216    23778880.8174
  21110334.364   -20869045.085 9 -16248446.50647  21110333.500    21110335.7814
  22650381.503   -14614208.454 8 -10892122.70246  22650380.808    22650383.5324
  21016373.503   -23280806.568 9 -18124625.82547  21016373.647    21016375.0904
  20711736.482   -26029338.955 9 -20266091.04148  20711736.273    20711737.8674
  24213157.040    -7160917.190 7  -5545157.67545  24213156.930    24213160.6104
  22818242.723   -13987217.314 8 -10881733.51146  22818242.130    22818244.9944
  24761198.861    -6284156.340 8  -4726535.90645  24761198.989    24761200.0364
 00  1 21  3 57 30.0000000  0  8 24 10 17 30 06 26 05 13
  23793341.544    -8080738.831 8  -6253792.55345  23793341.272    23793343.9184
  21119333.024   -20821756.718 9 -16211598.42347  21119332.171    21119334.4284
  22638714.013   -14675521.685 8 -10939899.22346  22638713.285    22638715.9914
  21026452.647   -23227840.358 9 -18083353.47047  21026452.800    21026454.2554
  20704136.582   -26069276.731 9 -20297211.38548  20704136.355    20704137.9404
  24196935.882    -7246160.127 7  -5611580.66745  24196935.660    24196939.4044
  22837454.163   -13886260.534 8 -10803065.91346  22837453.569    22837456.4294
  24760037.036    -6290262.135 7  -4731293.64745  24760037.113    24760038.0984
 00  1 21  3 58  0.0000000  0  8 24 10 17 30 06 26 05 13
  23807799.222    -8004764.034 8  -6194591.41445  23807798.884    23807801.5044
  21128433.486   -20773933.394 9 -16174333.48847  21128432.641    21128434.9284
  22627088.081   -14736615.846 8 -10987505.03046  22627087.374    22627090.1214
  21036623.829   -23174390.541 9 -18041704.27247  21036623.988    21036625.4334
  20696589.848   -26108935.249 9 -20328114.12048  20696589.639    20696591.2114
  24180715.536    -7331398.459 7  -5678000.08145  24180715.439    24180719.0274
  22856697.013   -13785138.763 8 -10724269.74346  22856696.408    22856699.2974
  24758959.260    -6295925.337 7  -4735706.50845  24758959.349    24758960.3524
 00  1 21  3 58 30.0000000  0  8 24 10 17 30 06 26 05 13
  23822254.990    -7928798.173 8  -6135397.24845  23822254.637    23822257.4244
  21137635.939   -20725573.947 9 -16136650.80447  21137635.100    21137637.4024
  22615506.197   -14797478.844 8 -11034930.71846  22615505.532    22615508.2514
  21046888.345   -23120450.246 9 -17999672.89447  21046888.502    21046889.9324
  20689092.281   -26148335.282 9 -20358815.45148  20689092.060    20689093.6304
  24164497.752    -7416623.260 7  -5744408.92245  24164497.537    24164501.2354
  22875972.444   -13683845.836 8 -10645340.20646  22875971.894    22875974.6884
  24757968.238    -6301133.488 7  -4739764.78145  24757968.275    24757969.0864
 00  1 21  3 59  0.0000000  0  8 24 10 17 30 06 26 05 13
  23836705.698    -7852858.146 7  -6076223.22845  23836705.422    23836708.3684
  21146934.652   -20676708.951 9 -16098574.18247  21146933.812    21146936.1014
  22603965.611   -14858124.819 8 -11082187.29346  22603964.940    22603967.6824
  21057245.730   -23066021.807 9 -17957261.13747  21057245.892    21057247.3434
  20681640.251   -26187496.017 9 -20389330.30848  20681640.019    20681641.6274
  24148283.740    -7501827.973 7  -5810802.12445  24148283.661    24148287.2594
  22895276.553   -13582402.400 8 -10566293.39346  22895275.960    22895278.7204
  24757063.625    -6305886.737 8  -4743468.61145  24757063.702    24757064.4524
 00  1 21  3 59 30.0000000  0  8 24 10 17 30 06 26 05 13
  23851148.462    -7776960.389 7  -6017082.16345  23851148.164    23851151.3044
  21156325.255   -20627361.060 9 -16060121.28147  21156324.411    21156326.6944
  22592464.205   -14918565.193 8 -11129283.66846  22592463.553    22592466.2564
  21067695.961   -23011105.589 9 -17914469.29747  21067696.127    21067697.5704
  20674231.309   -26226430.122 9 -20419668.57248  20674231.088    20674232.7124
  24132076.645    -7586996.247 7  -5877166.93845  24132076.451    24132080.0704
  22914607.136   -13480819.511 8 -10487137.92046  22914606.568    22914609.3104
  24756247.946    -6310173.588 7  -4746809.01245  24756248.006    24756248.5334
 00  1 21  4  0  0.0000000  0  8 24 10 17 30 06 26 05 13
  23865582.325    -7701110.468 8  -5957978.33645  23865582.051    23865585.0884
  21165806.190   -20577538.629 9 -16021298.60447  21165805.308    21165807.5834
  22580997.276   -14978824.500 8 -11176238.94746  22580996.601    22580999.2734
  21078238.630   -22955703.613 9 -17871298.93647  21078238.769    21078240.2144
  20666863.107   -26265150.275 9 -20449840.11848  20666862.879    20666864.5184
  24115876.983    -7672124.993 7  -5943500.92945  24115877.016    24115880.4754
  22933964.581   -13379095.721 8 -10407872.64946  22933964.007    22933966.7424
  24755523.196    -6313982.315 7  -4749776.82545  24755523.277    24755523.7104
 00  1 21  4  0 30.0000000  0  8 24 10 17 30 06 26 05 13
  23880004.966    -7625319.567 8  -5898920.50845  23880004.597    23880007.5894
  21175375.333   -20527252.466 9 -15982114.58047  21175374.463    21175376.6984
  22569563.595   -15038908.834 8 -11223057.88746  22569562.917    22569565.5634
  21088876.346   -22899801.898 9 -17827739.17647  21088876.495    21088877.9444
  20659537.354   -26303647.343 9 -20479837.83748  20659537.130    20659538.7694
  24099684.693    -7757216.227 7  -6009805.72445  24099684.665    24099688.0834
  22953349.002   -13277230.088 8 -10328496.84446  22953348.367    22953351.1244
  24754892.067    -6317298.945 8  -4752361.19445  24754892.215    24754892.5624
 00  1 21  4  1  0.0000000  0  9 24 10 17 30 06 26 23 05 13
  23894404.137    -7549651.099 8  -5839958.08745  23894403.799    23894406.8864
  21185023.660   -20476550.094 9 -15942606.23747  21185022.794    21185024.9794
  22558152.519   -15098874.228 8 -11269784.14446  22558151.837    22558154.5124
  21099601.456   -22843441.020 9 -17783821.62247  21099601.620    21099603.0574
  20652249.855   -26341943.320 9 -20509678.85948  20652249.635    20652251.2884
  24083490.797    -7842315.360 7  -6076116.65245  24083490.866    24083494.2084
  24581093.441    -3029119.325 7  -2324621.31745  24581092.873    24581096.7444
  22972751.133   -13175271.333 8 -10249048.48146  22972750.496    22972753.2614
  24754345.451    -6320172.224 8  -4754600.10445  24754345.643    24754345.8364
 00  1 21  4  1 30.0000000  0  9 24 10 17 30 06 26 23 05 13
  23908800.953    -7473995.253 8  -5781005.50345  23908800.552    23908803.7344
  21194773.847   -20425312.666 9 -15902680.96647  21194772.964    21194775.1554
  22546779.479   -15158639.855 8 -11316354.74746  22546778.830    22546781.4944
  21110434.622   -22786512.747 9 -17739461.94647  21110434.760    21110436.2004
  20645022.691   -26379922.361 9 -20539272.91348  20645022.468    20645024.1164
  24067314.616    -7927321.524 7  -6142355.13445  24067314.665    24067317.9364
  24560875.420    -3135365.443 7  -2407410.44045  24560874.881    24560878.6934
  22992192.325   -13073107.226 8 -10169440.10446  22992191.657    22992194.4944
  24753901.533    -6322505.837 8  -4756418.47645  24753901.570    24753901.6714
 00  1 21  4  2  0.0000000  0  9 24 10 17 30 06 26 23 05 13
  23923195.748    -7398350.157 8  -5722061.30545  23923195.387    23923198.5054
  21204629.504   -20373520.646 9 -15862323.55147  21204628.661    21204630.8344
  22535445.169   -15218202.130 8 -11362766.88646  22535444.506    22535447.1454
  21121374.100   -22729025.306 9 -17694666.55647  21121374.257    21121375.7064
  20637858.201   -26417572.052 9 -20568610.33748  20637857.958    20637859.6224
  24051155.793    -8012236.258 7  -6208522.37645  24051155.881    24051159.0644
  24540685.850    -3241461.888 7  -2490082.92845  24540685.348    24540689.0744
  23011673.089   -12970734.674 8 -10089669.30646  23011672.481    23011675.3614
  24753558.437    -6324308.945 7  -4757823.47845  24753558.539    24753558.5174
 00  1 21  4  2 30.0000000  0  9 24 10 17 30 06 26 23 05 13
  23937590.079    -7322707.326 8  -5663118.84845  23937589.761    23937592.7794
  21214590.671   -20321174.227 9 -15821534.13547  21214589.845    21214592.0214
  22524153.015   -15277542.645 8 -11409006.23846  22524152.344    22524154.9664
  21132416.979   -22670994.641 9 -17649447.87447  21132417.142    21132418.5994
  20630757.340   -26454887.260 9 -20597687.12448  20630757.124    20630758.7754
  24035013.114    -8097066.154 7  -6274623.51045  24035013.257    24035016.3234
  24520524.262    -3347411.132 7  -2572640.70145  24520523.675    24520527.4014
  23031191.176   -12868166.403 8 -10009746.01146  23031190.559    23031193.5054
  24753313.527    -6325595.437 7  -4758825.93445  24753313.598    24753313.9264
 00  1 21  4  3  0.0000000  0  9 24 10 17 30 06 26 23 05 13
  23951987.216    -7247050.351 8  -5604165.38045  23951986.895    23951989.8684
  21224657.284   -20268274.123 9 -15780313.26847  21224656.416    21224658.5774
  22512902.071   -15336666.838 8 -11455077.01546  22512901.393    22512903.9814
  21143556.739   -22612455.016 9 -17603832.59647  21143556.880    21143558.3544
  20623718.072   -26491878.894 9 -20626511.77548  20623717.847    20623719.5094
  24018886.318    -8181813.162 7  -6340660.06145  24018886.371    24018889.3814
  24500387.627    -3453228.688 7  -2655095.85145  24500387.344    24500390.8654
  23050744.618   -12765412.453 8  -9929678.01546  23050744.032    23050746.9464
  24753165.013    -6326375.689 7  -4759433.89745  24753165.001    24753165.3284
 00  1 21  4  3 30.0000000  0  9 24 10 17 30 06 26 23 05 13
  23966386.275    -7171382.821 8  -5545203.68145  23966385.986    23966388.9544
  21234827.148   -20214831.267 9 -15738669.48947  21234826.266    21234828.4104
  22501691.873   -15395576.799 8 -11500980.86946  22501691.213    22501693.7794
  21154789.651   -22553425.557 9 -17557835.63247  21154789.814    21154791.2894
  20616736.670   -26528566.381 9 -20655099.42748  20616736.450    20616738.0984
  24002775.905    -8266473.470 7  -6406629.07145  24002775.904    24002779.0914
  24480274.671    -3558922.274 7  -2737454.38845  24480274.539    24480277.8744
  23070331.375   -12662483.452 8  -9849473.61246  23070330.782    23070333.6664
  24753113.283    -6326646.685 7  -4759645.04445  24753113.307    24753113.7794
 00  1 21  4  4  0.0000000  0  9 24 10 17 30 06 26 23 05 13
  23980782.424    -7095730.741 8  -5486254.02645  23980782.129    23980785.0294
  21245094.872   -20160874.020 9 -15696624.88247  21245093.998    21245096.1674
  22490524.644   -15454260.708 8 -11546708.57546  22490523.974    22490526.5804
  21166109.770   -22493938.302 9 -17511481.94847  21166109.917    21166111.3784
  20609809.272   -26564970.010 9 -20683465.88948  20609809.046    20609810.7104
  23986678.334    -8351066.067 7  -6472545.30745  23986678.298    23986681.6864
  24460179.469    -3664522.607 7  -2819740.26145  24460179.271    24460182.7384
  23089946.343   -12559406.136 8  -9769153.64846  23089945.793    23089948.6644
  24753157.594    -6326413.331 7  -4759463.19745  24753157.575    24753157.9414
 00  1 21  4  4 30.0000000  0  9 24 10 17 30 06 26 23 05 13
  23995172.365    -7020111.603 8  -5427330.02945  23995172.098    23995174.9204
  21255456.142   -20106425.242 9 -15654197.26347  21255455.275    21255457.4664
  22479396.868   -15512737.387 8 -11592274.80446  22479396.208    22479398.8264
  21177513.599   -22434010.826 9 -17464785.23647  21177513.742    21177515.2084
  20602933.252   -26601103.652 9 -20711621.97448  20602933.016    20602934.7054
  23970591.815    -8435600.837 7  -6538416.47345  23970591.765    23970595.2044
  24440098.282    -3770049.794 7  -2901969.13245  24440097.932    24440101.4374
  23109586.365   -12456197.411 8  -9688731.28946  23109585.757    23109588.6534
  24753296.168    -6325685.904 8  -4758896.32545  24753296.060    24753296.5024
 00  1 21  4  5  0.0000000  0  9 24 10 17 30 06 26 23 05 13
  24009551.841    -6944547.543 8  -5368448.95145  24009551.583    24009554.2884
  21265908.687   -20051496.617 9 -15611395.73047  21265907.828    21265910.0134
  22468305.304   -15571023.929 8 -11637692.87147  22468304.626    22468307.2364
  21189001.356   -22373642.327 9 -17417744.86347  21189001.489    21189002.9814
  20596108.039   -26636970.329 9 -20739570.03148  20596107.821    20596109.5184
  23954518.848    -8520064.678 7  -6604232.39145  23954518.732    23954522.2774
  24420030.513    -3875506.198 7  -2984142.83545  24420030.025    24420033.6734
  23129250.435   -12352862.422 8  -9608210.53946  23129249.813    23129252.6554
  24753529.760    -6324458.624 8  -4757940.00345  24753529.637    24753530.1464
